[[{"header":{"parameterUnit":"m.s-1","parameterCategory":1,"la1":31.0,"la2":29.5877,"lo1":-88.7671,"lo2":-86.6584,"dy":0.0162,"dx":0.0185,"nx":115,"ny":88,"refTime":"2023-10-02T18:00:00:Z","depth":0,"parameterNumber":2,"parameterNumberName":"U-component_of_WINDS"},"data":[0.0,0.0,0.0,0.0,0.0,0.0,0.0,0.0,0.0,0.0,0.0,0.0,0.0,0.0,0.0,0.0,0.0,0.0,0.0,0.0,0.0,0.0,0.0,0.0,0.0,0.0,0.0,0.0,0.0,0.0,0.0,0.0,0.0,0.0,0.0,0.0,0.0,0.0,0.0,0.0,0.0,0.0,0.0,0.0,0.0,0.0,0.0,0.0,0.0,0.0,0.0,0.0,0.0,0.0,0.0,0.0,0.0,0.0,0.0,0.0,0.0,0.0,0.0,0.0,0.0,0.0,0.0,0.0,0.0,0.0,0.0,0.0,0.0,0.0,0.0,0.0,0.0,0.0,0.0,0.0,0.0,0.0,0.0,0.0,0.0,0.0,0.0,0.0,0.0,0.0,0.0,0.0,0.0,0.0,0.0,0.0,0.0,0.0,0.0,0.0,0.0,0.0,0.0,0.0,0.0,0.0,0.0,0.0,0.0,0.0,0.0,0.0,0.0,0.0,0.0,0.0,0.0,0.0,0.0,0.0,0.0,0.0,0.0,0.0,0.0,0.0,0.0,0.0,0.0,0.0,0.0,0.0,0.0,0.0,0.0,0.0,0.0,0.0,0.0,0.0,0.0,0.0,0.0,0.0,0.0,0.0,0.0,0.0,0.0,0.0,0.0,0.0,0.0,0.0,0.0,0.0,0.0,0.0,0.0,0.0,0.0,0.0,0.0,0.0,0.0,0.0,0.0,0.0,0.0,0.0,0.0,0.0,0.0,0.0,0.0,0.0,0.0,0.0,0.0,0.0,0.0,0.0,0.0,0.0,0.0,0.0,0.0,0.0,0.0,0.0,0.0,0.0,0.0,0.0,0.0,0.0,0.0,0.0,0.0,0.0,0.0,0.0,0.0,0.0,0.0,0.0,0.0,0.0,0.0,0.0,0.0,0.0,0.0,0.0,0.0,0.0,0.0,0.0,0.0,0.0,0.0,0.0,0.0,0.0,0.0,0.0,0.0,0.0,0.0,0.0,0.0,0.0,0.0,0.0,0.0,0.0,0.0,0.0,0.0,0.0,0.0,0.0,0.0,0.0,0.0,0.0,0.0,0.0,0.0,0.0,0.0,0.0,0.0,0.0,0.0,0.0,0.0,0.0,0.0,0.0,0.0,0.0,0.0,0.0,0.0,0.0,0.0,0.0,0.0,0.0,0.0,0.0,0.0,0.0,0.0,0.0,0.0,0.0,0.0,0.0,0.0,0.0,0.0,0.0,0.0,0.0,0.0,0.0,0.0,0.0,0.0,0.0,0.0,0.0,0.0,0.0,0.0,0.0,0.0,0.0,0.0,0.0,0.0,0.0,0.0,0.0,0.0,0.0,0.0,0.0,0.0,0.0,0.0,0.0,0.0,0.0,0.0,0.0,0.0,0.0,0.0,0.0,0.0,0.0,0.0,0.0,0.0,0.0,0.0,0.0,0.0,0.0,0.0,0.0,0.0,0.0,0.0,0.0,0.0,0.0,0.0,0.0,0.0,0.0,0.0,0.0,0.0,0.0,0.0,0.0,0.0,0.0,0.0,0.0,0.0,0.0,0.0,0.0,0.0,0.0,0.0,0.0,0.0,0.0,0.0,0.0,0.0,0.0,0.0,0.0,0.0,0.0,0.0,0.0,0.0,0.0,0.0,0.0,0.0,0.0,0.0,0.0,0.0,0.0,0.0,0.0,0.0,0.0,0.0,0.0,0.0,0.0,0.0,0.0,0.0,0.0,0.0,0.0,0.0,0.0,0.0,0.0,0.0,0.0,0.0,0.0,0.0,0.0,0.0,0.0,0.0,0.0,0.0,0.0,0.0,0.0,0.0,0.0,0.0,0.0,0.0,0.0,0.0,0.0,0.0,0.0,0.0,0.0,0.0,0.0,0.0,0.0,0.0,0.0,0.0,0.0,0.0,0.0,0.0,0.0,0.0,0.0,0.0,0.0,0.0,0.0,0.0,0.0,0.0,0.0,0.0,0.0,0.0,0.0,0.0,0.0,0.0,0.0,0.0,0.0,0.0,0.0,0.0,0.0,0.0,0.0,0.0,0.0,0.0,0.0,0.0,0.0,0.0,0.0,0.0,0.0,0.0,0.0,0.0,0.0,0.0,0.0,0.0,0.0,0.0,0.0,0.0,0.0,0.0,0.0,0.0,0.0,0.0,0.0,0.0,0.0,0.0,0.0,0.0,0.0,0.0,0.0,0.0,0.0,0.0,0.0,0.0,0.0,0.0,0.0,0.0,0.0,0.0,0.0,0.0,0.0,0.0,0.0,0.0,0.0,0.0,0.0,0.0,0.0,0.0,0.0,0.0,0.0,0.0,0.0,0.0,0.0,0.0,0.0,0.0,0.0,0.0,0.0,0.0,0.0,0.0,0.0,0.0,0.0,0.0,0.0,0.0,0.0,0.0,0.0,0.0,0.0,0.0,0.0,0.0,0.0,0.0,0.0,0.0,0.0,0.0,0.0,0.0,0.0,0.0,0.0,0.0,0.0,0.0,0.0,0.0,0.0,0.0,0.0,0.0,0.0,0.0,0.0,0.0,0.0,0.0,0.0,0.0,0.0,0.0,0.0,0.0,0.0,0.0,0.0,0.0,0.0,0.0,0.0,0.0,0.0,0.0,0.0,0.0,0.0,0.0,0.0,0.0,0.0,0.0,0.0,0.0,0.0,0.0,0.0,0.0,0.0,0.0,0.0,0.0,0.0,0.0,0.0,0.0,0.0,0.0,0.0,0.0,0.0,0.0,0.0,0.0,0.0,0.0,0.0,0.0,0.0,0.0,0.0,0.0,0.0,0.0,0.0,0.0,0.0,0.0,0.0,0.0,0.0,0.0,0.0,0.0,0.0,0.0,0.0,0.0,0.0,0.0,0.0,0.0,0.0,0.0,0.0,0.0,0.0,0.0,0.0,0.0,0.0,0.0,0.0,0.0,0.0,0.0,0.0,0.0,0.0,0.0,0.0,0.0,0.0,0.0,0.0,0.0,0.0,0.0,0.0,0.0,0.0,0.0,0.0,0.0,0.0,0.0,0.0,0.0,0.0,0.0,0.0,0.0,0.0,0.0,0.0,0.0,0.0,0.0,0.0,0.0,0.0,0.0,0.0,0.0,0.0,0.0,0.0,0.0,0.0,0.0,0.0,0.0,0.0,0.0,0.0,0.0,0.0,0.0,0.0,0.0,0.0,0.0,0.0,0.0,0.0,0.0,0.0,0.0,0.0,0.0,0.0,0.0,0.0,0.0,0.0,0.0,0.0,0.0,0.0,0.0,0.0,0.0,0.0,0.0,0.0,0.0,0.0,0.0,0.0,0.0,0.0,0.0,0.0,0.0,0.0,0.0,0.0,0.0,0.0,0.0,0.0,0.0,0.0,0.0,0.0,0.0,0.0,0.0,0.0,0.0,0.0,0.0,0.0,0.0,0.0,0.0,0.0,0.0,0.0,0.0,0.0,0.0,0.0,0.0,0.0,0.0,0.0,0.0,0.0,0.0,0.0,0.0,0.0,0.0,0.0,0.0,0.0,0.0,0.0,0.0,0.0,0.0,0.0,0.0,0.0,0.0,0.0,0.0,0.0,0.0,0.0,0.0,0.0,0.0,0.0,0.0,0.0,0.0,0.0,0.0,0.0,0.0,0.0,0.0,0.0,0.0,0.0,0.0,0.0,0.0,0.0,0.0,0.0,0.0,0.0,0.0,0.0,0.0,0.0,0.0,0.0,0.0,0.0,0.0,0.0,0.0,0.0,0.0,0.0,0.0,0.0,0.0,0.0,0.0,0.0,0.0,0.0,0.0,0.0,0.0,0.0,0.0,0.0,0.0,0.0,0.0,0.0,0.0,0.0,0.0,0.0,0.0,0.0,0.0,0.0,0.0,0.0,0.0,0.0,0.0,0.0,0.0,0.0,0.0,0.0,0.0,0.0,0.0,0.0,0.0,0.0,0.0,0.0,0.0,0.0,0.0,0.0,0.0,0.0,0.0,0.0,0.0,0.0,0.0,0.0,0.0,0.0,0.0,0.0,0.0,0.0,0.0,0.0,0.0,0.0,0.0,0.0,0.0,0.0,0.0,0.0,0.0,0.0,0.0,0.0,0.0,0.0,0.0,0.0,0.0,0.0,0.0,0.0,0.0,0.0,0.0,0.0,0.0,0.0,0.0,0.0,0.0,0.0,0.0,0.0,0.0,0.0,0.0,0.0,0.0,0.0,0.0,0.0,0.0,0.0,0.0,0.0,0.0,0.0,0.0,0.0,0.0,0.0,-0.0039,0.0,0.0,0.0,0.0,0.0,0.0,0.0,0.0,0.0,0.0,0.0,0.0,0.0,0.0,0.0,0.0,0.0,0.0,0.0,0.0,0.0,0.0,0.0,0.0,0.0,0.0,0.0,0.0,0.0,0.0,0.0,0.0,0.0,0.0,0.0,0.0,0.0,0.0,0.0,0.0,0.0,0.0,0.0,0.0,0.0,0.0,0.0,0.0,0.0,0.0,0.0,0.0,0.0,0.0,0.0,0.0,0.0,0.0,0.0,0.0,0.0,0.0,0.0,0.0,0.0,0.0,0.0,0.0,0.0,0.0,0.0,0.0,0.0,0.0,0.0,0.0,0.0,0.0,0.0,0.0,0.0,0.0,0.0,0.0,0.0,0.0,0.0,0.0,0.0,0.0,0.0,0.0,0.0,0.0,0.0,0.0,0.0,0.0,0.0,0.0,0.0,0.0,0.0,0.0,0.0,0.0,0.0,0.0,0.0,0.0,0.0,0.0,0.0,0.0,0.0,0.0,0.0,0.0,0.0,0.0,0.0,0.0,0.0,0.0,0.0,0.0,0.0,0.0,0.0,0.0,0.0,0.0,0.0,0.0,0.0,0.0,0.0,0.0,0.0,0.0,0.0,0.0,0.0,0.0,0.0,0.0,0.0,0.0,0.0,0.0,0.0,0.0,0.0,0.0,0.0,0.0,0.0,0.0,0.0,0.0,0.0,0.0,0.0,0.0,0.0,0.0,0.0,0.0,0.0,0.0,0.0,0.0,0.0,0.0,0.0,0.0,0.0,0.0,0.0,0.0,0.0,0.0,0.0,0.0,0.0,0.0,0.0,0.0,0.0,0.0,0.0,0.0,0.0,0.0,0.0,0.0,0.0,0.0,0.0,0.0,0.0,0.0,0.0,0.0,0.0,0.0,0.0,0.0,0.0,0.0,0.0,0.0,0.0,0.0,0.0,0.0,0.0,0.0,0.0,0.0,0.0,0.0,0.0,0.0,0.0,0.0,0.0,0.0,0.0,0.0,0.0,0.0,0.0,0.0,0.0,0.0,0.0,0.0,0.0,0.0,0.0,0.0,0.0,0.0,0.0,0.0,0.0,0.0,0.0,0.0,0.0,0.0,0.0,0.0,0.0,0.0,0.0,0.0,0.0,0.0,0.0,0.0,0.0,0.0,0.0,0.0,0.0,0.0,0.0,0.0,0.0,0.0,0.0,0.0,0.0,0.0,0.0,0.0,0.0,0.0,0.0,0.0,0.0,0.0,0.0,0.0,0.0,0.0,0.0,0.0,0.0,0.0,0.0,0.0,0.0,0.0,0.0,0.0,0.0,0.0,0.0,0.0,0.0,0.0,0.0,0.0,0.0,0.0,0.0,0.0,0.0,0.0,0.0,0.0,0.0,0.0,0.0,0.0,0.0,0.0,0.0,0.0,0.0,0.0,0.0,0.0,0.0,0.0,0.0,0.0,0.0,0.0,0.0,0.0,0.0,0.0,0.0,0.0,0.0,0.0,0.0,0.0,0.0,0.0,0.0,0.0,0.0,0.0,0.0,0.0,0.0,0.0,0.0,0.0,0.0,0.0,0.0,0.0,0.0,0.0,0.0,0.0,0.0,0.0,0.0,0.0,0.0,0.0,0.0,0.0,0.0,0.0,0.0,0.0,0.0,0.0,0.0,0.0,0.0,0.0,0.0,0.0,0.0,0.0,0.0,0.0,0.0,0.0,0.0,0.0,0.0,0.0,0.0,0.0,0.0,0.0,0.0,0.0,0.0,0.0,0.0,0.0,0.0,0.0,0.0,0.0,0.0,0.0,0.0,0.0,0.0,0.0,0.0,0.0,0.0,0.0,0.0,0.0,0.0,0.0,0.0,0.0,0.0,0.0,0.0,0.0,0.0,0.0,0.0,0.0,0.0,0.0,0.0,0.0,0.0,0.0,0.0,0.0,0.0,0.0,0.0,0.0,0.0,0.0,0.0,0.0,0.0,0.0,0.0,0.0,0.0,0.0,0.0,0.0,0.0,0.0,0.0,0.0,0.0,0.0,0.0,0.0,0.0,0.0,0.0,0.0,0.0,0.0,0.0,0.0,0.0,0.0,0.0,0.0,0.0,0.0,0.0,0.0,0.0,0.0,0.0,0.0,0.0,0.0,0.0,0.0,0.0,0.0,0.0,0.0,0.0,0.0,0.0,0.0,0.0,0.0,0.0,0.0,0.0,0.0,0.0,0.0,0.0,0.0,0.0,0.0,0.0,0.0,0.0,0.0,0.0,0.0,0.0,0.0,0.0,0.0,0.0,0.0,0.0,0.0,0.0,0.0,0.0,0.0,0.0,0.0,0.0,0.0,0.0,0.0,0.0,0.0,0.0,0.0,0.0,0.0,0.0,0.0,0.0,0.0,0.0,0.0,0.0,0.0,0.0,0.0,0.0,0.0,0.0,0.0,0.0,0.0,0.0,0.0,0.0,0.0,0.0,0.0,0.0,0.0,0.0,0.0,0.0,0.0,0.0,0.0,0.0,0.0,0.0,0.0,0.0,0.0,0.0,0.0,0.0,0.0,0.0,0.0,0.0,0.0,0.0,0.0,0.0,0.0,0.0,0.0,0.0,0.0,0.0,0.0,0.0,0.0,0.0,0.0,0.0,0.0,0.0,0.0,0.0,0.0,0.0,0.0,0.0,0.0,0.0,0.0,0.0,0.0,0.0,0.0,0.0,0.0,0.0,0.0,0.0,0.0,0.0,0.0,0.0,0.0,0.0,0.0,0.0,0.0,0.0,0.0,0.0,0.0,0.0,0.0,0.0,0.0,0.0,0.0,0.0,0.0,0.0,0.0,0.0,0.0,0.0,0.0,0.0,0.0,0.0,0.0,0.0,0.0,0.0,0.0,0.0,0.0,0.0,0.0,0.0,0.0,0.0,0.0,0.0,0.0,0.0,0.0,0.0,0.0,0.0,0.0,0.0,0.0,0.0,0.0,0.0,0.0,0.0,0.0,0.0,0.0,0.0,0.0,0.0,0.0,0.0,0.0,0.0,0.0,0.0,0.0,0.0,0.0,0.0,0.0,0.0,0.0,0.0,0.0,0.0,0.0,0.0,0.0,0.0,0.0,0.0,0.0,0.0,0.0,0.0,0.0,0.0,0.0,0.0,0.0,0.0,0.0,0.0,0.0,0.0,0.0,0.0,0.0,0.0,0.0,0.0,0.0,0.0,0.0,0.0,0.0,0.0,0.0,0.0,0.0,0.0,0.0,0.0,0.0,0.0,0.0,0.0,0.0,0.0,0.0,0.0,0.0,0.0,0.0,0.0,0.0,0.0,0.0,0.0,0.0,0.0,0.0,0.0,0.0,0.0,0.0,0.0,0.0,0.0,0.0,0.0,0.0,0.0,0.0,0.0,0.0,0.0,0.0,0.0,0.0,0.0,0.0,0.0,0.0,0.0,0.0,0.0,0.0,0.0,0.0,0.0,0.0,0.0,0.0,0.0,0.0,0.0,0.0,0.0,0.0,0.0,0.0,0.0,0.0,0.0,0.0,0.0,0.0,0.0196,0.0216,0.0118,0.0,0.0,0.0,0.0,0.0,0.0,0.0,0.0,0.0,0.0,0.0,0.0,0.0,0.0,0.0,0.0,0.0,0.0,0.0,0.0,0.0,0.0,0.0,0.0,0.0,0.0,0.0,0.0,0.0,0.0,0.0,0.0,0.0,0.0,0.0,0.0,0.0,0.0,0.0,0.0,0.0,0.0,0.0,0.0,0.0,0.0,0.0,0.0,0.0,0.0,0.0,0.0,0.0,0.0,0.0,0.0,0.0,0.0,0.0,0.0,0.0,0.0,0.0,0.0,0.0,0.0,0.0,0.0,0.0,0.0,0.0,0.0,0.0,0.0,0.0,0.0,0.0,0.0,0.0,0.0,0.0,0.0,0.0,0.0,0.0,0.0,0.0,0.0,0.0,0.0,0.0,0.0,0.0,0.0,0.0,0.0,0.0,0.0,0.0,0.0,0.0,0.0,0.0,0.0,0.0,0.0,0.0,0.0,0.0,0.0,0.0,0.0,0.0298,0.0,0.0318,0.0119,0.0179,0.0218,0.0,0.0,0.0,0.0,0.0,0.0,0.0,0.0,0.0,0.0,0.0,0.0,0.0,0.0,0.0,0.0,0.0,0.0,0.0,0.0,0.0,0.0,0.0,0.0,0.0,0.0,0.0,0.0,0.0,0.0,0.0,0.0,0.0,0.0,0.0,0.0,0.0,0.0,0.0,0.0,0.0,0.0,0.0,0.0,0.0,0.0,0.0,0.0,0.0,0.0,0.0,0.0,0.0,0.0,0.0,0.0,0.0,0.0,0.0,0.0,0.0,0.0,0.0,0.0,0.0,0.0,0.0,0.0,0.0,0.0,0.0,0.0,0.0,0.0,0.0,0.0,0.0,0.0,0.0,0.0,0.0,0.0,0.0,0.0,0.0,0.0,0.0,0.0,0.0,0.0,0.0,0.0,0.0,0.0,0.0,0.0,0.0,0.0,0.0,0.0,0.0,0.0,0.0,0.0,0.0,0.0,0.0,0.0,0.0497,0.0325,0.057,0.053,0.0306,0.053,0.0664,0.0,0.0,0.0,0.0,0.0,0.0,0.0,0.0,0.0,0.0,0.0,0.0,0.0,0.0,0.0,0.0,0.0,0.0,0.0,0.0,0.0,0.0,0.0,0.0,0.0,0.0,0.0,0.0,0.0,0.0,0.0,0.0,0.0,0.0,0.0,0.0,0.0,0.0,0.0,0.0,0.0,0.0,0.0,0.0,0.0,0.0,0.0,0.0,0.0,0.0,0.0,0.0,0.0,0.0,0.0,0.0,0.0,0.0,0.0,0.0,0.0,0.0,0.0,0.0,0.0,0.0,0.0,0.0,0.0,0.0,0.0,0.0,0.0,0.0,0.0,0.0,0.0,0.0,0.0,0.0,0.0,0.0,0.0,0.0,0.0,0.0,0.0,0.0,0.0,0.0,0.0,0.0,0.0,0.0,0.0,0.0,0.0,0.0,0.0,0.0,0.0,0.0,0.0,0.0,0.0,0.0,0.0,0.0,0.0,0.0792,0.055,0.0405,0.0363,0.0448,0.0461,0.0,0.0,0.0,0.0,0.0,0.0,0.0,0.0,0.0,0.0,0.0,0.0,0.0,0.0,0.0,0.0,0.0,0.0,0.0,0.0,0.0,0.0,0.0,0.0,0.0,0.0,0.0,0.0,0.0,0.0,0.0,0.0,0.0,0.0,0.0,0.0,0.0,0.0,0.0,0.0,0.0,0.0,0.0,0.0,0.0,0.0,0.0,0.0,0.0,0.0,0.0,0.0,0.0,0.0,0.0,0.0,0.0,0.0,0.0,0.0,0.0,0.0,0.0,0.0,0.0,0.0,0.0,0.0,0.0,0.0,0.0,0.0,0.0,0.0,0.0,0.0,0.0,0.0,0.0,0.0,0.0,0.0,0.0,0.0,0.0,0.0,0.0,0.0,0.0,0.0,0.0,0.0,0.0,0.0,0.0,0.0,0.0,0.0,0.0,0.0,0.0,0.0,0.0,0.0,0.0,0.0,0.0,0.0,0.0,0.1017,0.075,0.0524,0.0365,0.052,0.055,0.0418,0.0,0.0,0.0,0.0,0.0,0.0,0.0,0.0,0.0,0.0,0.0,0.0,0.0,0.0,0.0,0.0,0.0,0.0,0.0,0.0,0.0,0.0,0.0,0.0,0.0,0.0,0.0,0.0,0.0,0.0,0.0,0.0,0.0,0.0,0.0,0.0,0.0,0.0,0.0,0.0,0.0,0.0,0.0,0.0,0.0,0.0,0.0,0.0,0.0,0.0,0.0,0.0,0.0,0.0,0.0,0.0,0.0,0.0,0.0,0.0,0.0,0.0,0.0,0.0,0.0,0.0,0.0,0.0,0.0,0.0,0.0,0.0,0.0,0.0,0.0,0.0,0.0,0.0,0.0,0.0,0.0,0.0,0.0,0.0,0.0,0.0,0.0,0.0,0.0,0.0,0.0,0.0,0.0,0.0,0.0,0.0,0.0,0.0,0.0,0.0,0.0,0.0,0.0,0.0,0.0,0.0,0.0,0.0,0.1297,0.1253,0.0943,0.0321,0.0751,0.0886,0.0,0.0,0.0,0.0,0.0,0.0,0.0,0.0,0.0,0.0,0.0,0.0,0.0,0.0,0.0,0.0,0.0,0.0,0.0,0.0,0.0,0.0,0.0,0.0,0.0,0.0,0.0,0.0,0.0,0.0,0.0,0.0,0.0,0.0,0.0,0.0,0.0,0.0,0.0,0.0,0.0,0.0,0.0,0.0,0.0,0.0,0.0,0.0,0.0,0.0,0.0,0.0,0.0,0.0,0.0,0.0,0.0,0.0,0.0,0.0,0.0,0.0,0.0,0.0,0.0,0.0,0.0,0.0,0.0,0.0,0.0,0.0,0.0,0.0,0.0,0.0,0.0,0.0,0.0,0.0,0.0,0.0,0.0,0.0,0.0,0.0,0.0,0.0,0.0,0.0,0.0,0.0,0.0,0.0,0.0,0.0,0.0,0.0,0.0,0.0,0.0,0.0,0.0,0.0,0.0,0.0,0.0,0.0,0.0,0.3763,0.3002,0.1875,0.0454,0.0672,0.0792,0.0,0.0,0.0,0.0,0.0,0.0,0.0,0.0,0.0,0.0,0.0,0.0,0.0,0.0,0.0,0.0,0.0,0.0,0.0,0.0,0.0,0.0,0.0,0.0,0.0,0.0,0.0,0.0,0.0,0.0,0.0,0.0,0.0,0.0,0.0,0.0,0.0,0.0,0.0,0.0,0.0,0.0,0.0,0.0,0.0,0.0,0.0,0.0,0.0,0.0,0.0,0.0,0.0,0.0,0.0,0.0,0.0,0.0,0.0,0.0,0.0,0.0,0.0,0.0,0.0,0.0,0.0,0.0,0.0,0.0,0.0,0.0,0.0,0.0,0.0,0.0,0.0,0.0,0.0,0.0,0.0,0.0,0.0,0.0,0.0,0.0,0.0,0.0,0.0,0.0,0.0,0.0,0.0,0.0,0.0,0.0,0.0,0.0,0.0,0.0,0.0,0.0,0.0,0.0,0.0,0.0,0.0,0.0,0.2749,0.3128,0.2273,0.1278,0.0263,0.0498,0.0602,0.0,0.0,0.0,0.0,0.0,0.0,0.0,0.0,0.0,0.0,0.0,0.0,0.0,0.0,0.0,0.0,0.0,0.0,0.0,0.0,0.0,0.0,0.0,0.0,0.0,0.0,0.0,0.0,0.0,0.0,0.0,0.0,0.0,0.0,0.0,0.0,0.0,0.0,0.0,0.0,0.0,0.0,0.0,0.0,0.0,0.0,0.0,0.0,0.0,0.0,0.0,0.0,0.0,0.0,0.0,0.0,0.0,0.0,0.0,0.0,0.0,0.0,0.0,0.0,0.0,0.0,0.0,0.0,0.0,0.0,0.0,0.0,0.0,0.0,0.0,0.0,0.0,0.0,0.0,0.0,0.0,0.0,0.0,0.0,0.0,0.0,0.0,0.0,0.0,0.0,0.0,0.0,0.0,0.0,0.0,0.0,0.0,0.0,0.0,0.0,0.0,0.0,0.0,0.0,0.0,0.0,0.0,0.0,0.1317,0.1278,0.0817,0.0482,0.0285,0.0353,0.0413,0.0,0.0,0.0,0.0,0.0,0.0,0.0,0.0,0.0,0.0,0.0,0.0,0.0,0.0,0.0,0.0,0.0,0.0,0.0,0.0,0.0,0.0,0.0,0.0,0.0,0.0,0.0,0.0,0.0,0.0,0.0,0.0,0.0,0.0,0.0,0.0,0.0,0.0,0.0,0.0,0.0,0.0,0.0,0.0,0.0,0.0,0.0,0.0,0.0,0.0,0.0,0.0,0.0,0.0,0.0,0.0,0.0,0.0,0.0,0.0,0.0,0.0,0.0,0.0,0.0,0.0,0.0,0.0,0.0,0.0,0.0,0.0,0.0,0.0,0.0,0.0,0.0,0.0,0.0,0.0,0.0,0.0,0.0,0.0,0.0,0.0,0.0,0.0,0.0,0.0,0.0,0.0,0.0,0.0,0.0,0.0,0.0,0.0,0.0,0.0,0.0,0.0,0.0,0.0,0.0,0.0,0.0,0.0,0.4568,0.3781,0.4069,0.356,0.215,0.1002,0.0513,0.0,0.0,0.0,0.0,0.0,0.0,0.0,0.0,0.0,0.0,0.0,0.0,0.0,0.0,0.0,0.0,0.0,0.0,0.0,0.0,0.0,0.0,0.0,0.0,0.0,0.0,0.0,0.0,0.0,0.0,0.0,0.0,0.0,0.0,0.0,0.0,0.0,0.0,0.0,0.0,0.0,0.0,0.0,0.0,0.0,0.0,0.0,0.0,0.7497,0.0,0.0,0.0,0.0,0.0,0.0,0.0,0.0,0.0,0.0,0.0,0.0,0.0,0.0,0.0,0.0,0.0,0.0,0.0,0.0,0.0,0.0,0.0,0.0,0.0,0.0,0.0,0.0,0.0,0.0,0.0,0.0,0.0,0.0,0.0,0.0,0.0,0.0,0.0,0.0,0.0,0.0,0.0,0.0,0.0,0.0,0.0,0.0,0.0,0.0,0.0,0.0,0.0,0.0,0.0,0.0,0.0,0.0,0.0,0.5527,0.5131,0.5279,0.4876,0.3864,0.3047,0.2043,0.0,0.0,0.0,0.0,0.0,0.0,0.0,0.0,0.0,0.0,0.0,0.0,0.0,0.0,0.0,0.0,0.0,0.0,0.0,0.0,0.0,0.0,0.0,0.0,0.0,0.0,0.0,0.0,0.0,0.0,0.0,0.0,0.0,0.0,0.0,0.0,0.0,0.0,0.0,0.0,0.0,0.0,0.0,0.0,0.0,0.0,0.0,0.0,0.0,0.0,0.0,0.0,0.0,0.0,0.0,0.0,0.0,0.0,0.0,0.0,0.0,0.0,0.0,0.0,0.0,0.0,0.0,0.0,0.0,0.0,0.0,0.0,0.0,0.0,0.0,0.0,0.0,0.0,0.0,0.0,0.0,0.0,0.0,0.0,0.0,0.0,0.0,0.0,0.0,0.0,0.0,0.0,0.0,0.0,0.0,0.0,0.0,0.0,0.0,0.0,0.0,0.0,0.0,0.0,0.0,0.0,0.0,0.564,0.5712,0.5646,0.5737,0.5544,0.5077,0.4999,0.3788,0.1325,0.0,0.0,0.0,0.0,0.0,0.0,0.0,0.0,0.0,0.0,0.0,0.0,0.0,0.0,0.0,0.0,0.0,0.0,0.0,0.0,0.0,0.0,0.0,0.0,0.0,0.0,0.0,0.0,0.0,0.0,0.0,0.0,0.0,0.0,0.0,0.0,0.0,0.0,0.6233,0.6629,0.0,0.0,0.0,0.0,0.0,0.0,0.0,0.0,0.835,0.0,0.0,0.0,0.0,0.0,0.0,0.0,0.0,0.0,0.0,0.0,0.0,0.0,0.0,0.0,0.0,0.0,0.0,0.0,0.0,0.0,0.0,0.0,0.0,0.0,0.0,0.0,0.0,0.0,0.0,0.0,0.0,0.0,0.0,0.0,0.0,0.0,0.0,0.0,0.0,0.0,0.0,0.0,0.0,0.0,0.0,0.0,0.0,0.0,0.0,0.0,0.0,0.0,0.0,0.0,0.0,0.6138,0.7069,0.6747,0.5127,0.6593,0.6625,0.5009,0.4557,0.391,0.2959,0.0,0.0,0.0,0.0,0.0,0.0,0.0,0.0,0.0,0.0,0.0,0.0,0.0,0.0,0.0,0.0,0.0,0.0,0.0,0.0,0.0,0.0,0.0,0.0,0.0,0.0,0.0,0.0,0.0,0.0,0.0,0.0,0.0,0.0,0.0,0.0,0.0,0.0,0.0,0.7801,0.8046,0.0,0.0,0.0,0.0,0.0,0.0,0.0,0.0,0.8554,0.0,0.0,0.0,0.0,0.0,0.0,0.0,0.0,0.0,0.0,0.0,0.0,0.0,0.0,0.0,0.0,0.0,0.0,0.0,0.0,0.0,0.0,0.0,0.0,0.0,0.0,0.0,0.0,0.0,0.0,0.0,0.0,0.0,0.0,0.0,0.0,0.0,0.0,0.0,0.0,0.0,0.0,0.0,0.0,0.0,0.0,0.0,0.0,0.0,0.0,0.0,0.0,0.0,0.0,0.0,0.778,0.8663,0.8666,0.7867,0.8718,0.8661,0.7586,0.7132,0.6155,0.0,0.0,0.0,0.0,0.0,0.0,0.0,0.0,0.0,0.0,0.0,0.0,0.0,0.0,0.0,0.0,0.0,0.0,0.0,0.0,0.0,0.0,0.0,0.0,0.0,0.0,0.0,0.0,0.0,0.0,0.0,0.0,0.0,0.0,0.0,0.0,0.0,0.0,0.0,0.0,0.8231,0.8498,0.9,0.0,0.0,0.0,0.0,0.0,0.0,0.8879,0.8852,0.0,0.0,0.0,0.0,0.0,0.0,0.0,0.0,0.0,0.0,0.0,0.0,0.0,0.0,0.0,0.0,0.0,0.0,0.0,0.0,0.0,0.0,0.0,0.0,0.0,0.0,0.0,0.0,0.0,0.0,0.0,0.0,0.0,0.0,0.0,0.0,0.0,0.0,0.0,0.0,0.0,0.0,0.0,0.0,0.0,0.0,0.0,0.0,0.0,0.0,0.0,0.0,0.0,0.0,0.0,0.9144,0.9808,1.0213,1.0432,1.0446,1.0324,0.9997,0.9514,0.8119,0.0,0.0,0.0,0.0,0.0,0.0,0.0,0.0,0.0,0.0,0.0,0.0,0.0,0.0,0.0,0.0,0.0,0.0,0.0,0.0,0.0,0.0,0.0,0.0,0.0,0.0,0.0,0.0,0.0,0.0,0.0,0.0,0.0,0.0,0.0,0.0,0.0,0.0,0.0,0.0,0.0,0.8863,0.9359,0.9349,0.0,0.0,0.0,0.0,0.9,0.9198,0.0,0.0,0.0,0.0,0.0,0.0,0.0,0.0,0.0,0.0,0.0,0.0,0.0,0.0,0.0,0.0,0.0,0.0,0.0,0.0,0.0,0.0,0.0,0.0,0.0,0.0,0.0,0.0,0.0,0.0,0.0,0.0,0.0,0.0,0.0,0.0,0.0,0.0,0.0,0.0,0.0,0.0,0.0,0.0,0.0,0.0,0.0,0.0,0.0,0.0,0.0,0.0,0.0,0.0,0.0,0.0,0.92,0.9808,1.0165,1.0297,1.0304,1.0222,0.9984,0.9108,0.768,0.0,0.0,0.0,0.0,0.0,0.0,0.0,0.0,0.0,0.0,0.0,0.0,0.0,0.0,0.0,0.0,0.0,0.0,0.0,0.0,0.0,0.0,0.0,0.0,0.0,0.0,0.0,0.0,0.0,0.0,0.0,0.0,0.0,0.0,0.0,0.0,0.0,0.0,0.0,0.0,0.0,0.9359,0.9557,0.9571,0.9449,0.0,0.0,0.9327,0.9334,0.9643,0.0,0.0,0.0,0.0,0.0,0.0,0.0,0.0,0.0,0.0,0.0,0.0,0.0,0.0,0.0,0.0,0.0,0.0,0.0,0.0,0.0,0.0,0.0,0.0,0.0,0.0,0.0,0.0,0.0,0.0,0.0,0.0,0.0,0.0,0.0,0.0,0.0,0.0,0.0,0.0,0.0,0.0,0.0,0.0,0.0,0.0,0.0,0.0,0.0,0.0,0.0,0.0,0.0,0.0,0.0,0.8716,0.9308,0.9907,1.0247,1.0308,1.0308,1.0168,0.9893,0.9002,0.7829,0.0,0.0,0.0,0.0,0.0,0.0,0.0,0.0,0.0,0.0,0.0,0.0,0.0,0.0,0.0,0.0,0.0,0.0,0.0,0.0,0.0,0.0,0.0,0.0,0.0,0.0,0.0,0.0,0.0,0.0,0.0,0.0,0.0,0.0,0.0,0.0,0.0,0.0,0.0,0.0,0.0,0.0,0.969,0.9876,0.0,0.0,0.0,0.9761,0.9791,0.0,0.0,0.0,0.0,0.0,0.0,0.0,0.0,0.0,0.0,0.0,0.0,0.0,0.0,0.0,0.0,0.0,0.0,0.0,0.0,0.0,0.0,0.0,0.0,0.0,0.0,0.0,0.0,0.0,0.0,0.0,0.0,0.0,0.0,0.0,0.0,0.0,0.0,0.0,0.0,0.0,0.0,0.0,0.0,0.0,0.0,0.0,0.0,0.0,0.0,0.0,0.0,0.0,0.0,0.0,0.0,0.0,0.9429,1.0029,1.0317,1.0417,1.0349,1.0168,0.9907,0.9129,0.0,0.0,0.0,0.0,0.0,0.0,0.0,0.0,0.0,0.0,0.0,0.0,0.0,0.0,0.0,0.0,0.0,0.0,0.0,0.0,0.0,0.0,0.0,0.0,0.0,0.0,0.0,0.693,0.0,0.0,0.0,0.0,0.0,0.0,0.0,0.0,0.0,0.0,0.0,0.0,0.0,0.0,0.9873,0.9978,1.0256,1.0351,0.0,0.0,1.0148,1.0145,1.0168,1.0035,0.0,0.0,0.0,0.0,0.0,0.0,0.0,0.0,0.0,0.0,0.0,0.0,0.0,0.0,0.0,0.0,0.0,0.0,0.0,0.0,0.0,0.0,0.0,0.0,0.0,0.0,0.0,0.0,0.0,0.0,0.0,0.0,0.0,0.0,0.0,0.0,0.0,0.0,0.0,0.0,0.0,0.0,0.0,0.0,0.0,0.0,0.0,0.0,0.0,0.0,0.0,0.0,0.0,0.0,0.0,0.9578,1.0046,1.0412,1.067,1.0419,1.027,1.0243,0.9542,0.8506,0.0,0.0,0.0,0.0,0.0,0.0,0.0,0.0,0.0,0.0,0.0,0.0,0.0,0.0,0.0,0.0,0.0,0.0,0.0,0.0,0.0,0.0,0.0,0.0,0.0,0.0,0.0,0.0,0.0,0.0,0.0,0.0,0.0,0.0,0.0,0.0,0.0,0.0,0.0,0.0,0.0,1.0165,1.0437,1.0677,1.0813,0.0,0.0,1.0412,1.0315,1.0493,1.0385,0.9537,0.0,0.0,0.0,0.0,0.0,0.0,0.0,0.0,0.0,0.0,0.0,0.0,0.0,0.0,0.0,0.0,0.0,0.0,0.0,0.0,0.0,0.0,0.0,0.0,0.0,0.0,0.0,0.0,0.0,0.0,0.0,0.0,0.0,0.0,0.0,0.0,0.0,0.0,0.0,0.0,0.0,0.0,0.0,0.0,0.0,0.0,0.0,0.0,0.0,0.0,0.0,0.0,0.0,0.9054,0.9734,1.0181,1.0514,1.0671,1.0514,1.0371,1.0283,0.9654,0.8915,0.0,0.0,0.0,0.0,0.0,0.0,0.0,0.0,0.0,0.0,0.0,0.0,0.0,0.0,0.0,0.0,0.0,0.0,0.0,0.0,0.0,0.0,0.0,0.0,0.0,0.0,0.0,0.0,0.8374,0.8507,0.8361,0.0,0.0,0.0,0.0,0.0,0.0,0.0,0.0,0.0,0.0,1.0399,1.0602,1.0887,0.0,0.0,1.0826,1.0825,1.046,1.0582,1.0446,0.9652,0.9415,0.0,0.0,0.0,0.0,0.0,0.0,0.0,0.0,0.0,0.0,0.0,0.0,0.0,0.0,0.0,0.0,0.0,0.0,0.0,0.0,0.0,0.0,0.0,0.0,0.0,0.0,0.0,0.0,0.0,0.0,0.0,0.0,0.0,0.0,0.0,0.0,0.0,0.0,0.0,0.0,0.0,0.0,0.0,0.0,0.0,0.0,0.0,0.0,0.0,0.0,0.0,0.0,0.9195,0.9852,1.0331,1.0603,1.0785,1.061,1.0493,1.0344,0.9906,0.939,0.0,0.0,0.0,0.0,0.0,0.0,0.0,0.0,0.0,0.0,0.0,0.0,0.0,0.0,0.0,0.0,0.0,0.0,0.0,0.0,0.0,0.0,0.0,0.0,0.0,0.0,0.0,0.0,0.8743,0.8723,0.8478,0.0,0.0,0.0,0.0,0.0,0.0,0.0,0.0,0.0,0.0,1.065,1.0833,1.1063,1.1125,1.0887,1.0989,1.0907,1.0548,1.0548,1.0365,0.9713,0.0,0.0,0.0,0.0,0.0,0.0,0.0,0.0,0.0,0.0,0.0,0.0,0.0,0.0,0.0,0.0,0.0,0.0,0.0,0.0,0.0,0.0,0.0,0.0,0.0,0.0,0.0,0.0,0.0,0.0,0.0,0.0,0.0,0.0,0.0,0.0,0.0,0.0,0.0,0.0,0.0,0.0,0.0,0.0,0.0,0.0,0.0,0.0,0.0,0.0,0.0,0.0,0.0,0.9284,1.0008,1.0461,1.0759,1.0867,1.0765,1.0643,1.0487,1.0344,1.0002,0.9396,0.0,0.0,0.0,0.0,0.0,0.0,0.0,0.0,0.0,0.0,0.0,0.0,0.0,0.0,0.0,0.0,0.0,0.0,0.0,0.0,0.0,0.0,0.0,0.0,0.0,0.0,0.8696,0.8683,0.8601,0.0,0.0,0.0,0.0,0.0,0.0,0.0,0.0,0.0,0.0,1.0561,1.0955,1.1166,1.1193,1.1193,1.1179,1.0914,1.0683,1.0521,1.0385,1.0165,0.0,0.0,0.0,0.0,0.0,0.0,0.0,0.0,0.0,0.0,0.0,0.0,0.0,0.0,0.0,0.0,0.0,0.0,0.0,0.0,0.0,0.0,0.0,0.0,0.0,0.0,0.0,0.8042,0.8124,0.0,0.0,0.0,0.0,0.0,0.0,0.0,0.0,0.0,0.0,0.0,0.9208,0.9162,0.0,0.0,0.0,0.0,0.0,0.0,0.0,0.0,0.0,0.0,0.0,0.0,0.967,1.0324,1.0657,1.0907,1.1084,1.0914,1.0765,1.0617,1.05,1.0109,0.9409,0.0,0.0,0.0,0.0,0.0,0.0,0.0,0.0,0.0,0.0,0.0,0.0,0.0,0.0,0.0,0.0,0.0,0.0,0.0,0.0,0.0,0.0,0.0,0.0,0.0,0.8845,0.0,0.0,0.0,0.0,0.0,0.0,0.0,0.0,0.0,0.0,0.0,0.9808,1.0555,1.0704,1.0921,1.1267,1.1261,1.12,0.0,0.0,0.0,0.0,0.0,0.0,0.0,0.0,0.0,0.0,0.0,0.0,0.0,0.0,1.0021,0.9575,0.9843,1.0161,1.032,0.0,0.0,0.0,0.0,0.0,0.0,0.0,0.0,0.0,0.0,0.0,0.0,0.0,0.0,0.0,0.0,0.8716,0.0,0.0,0.0,0.0,0.0,0.0,0.0,0.0,1.0012,1.0202,1.0283,1.015,1.0032,0.0,0.9621,0.9161,0.0,0.0,0.0,0.0,0.0,0.0,0.0,0.0,1.0005,1.0487,1.086,1.1145,1.1268,1.1151,1.0968,1.0772,1.0602,1.0262,0.9786,0.9193,0.8702,0.0,0.0,0.0,0.0,0.0,0.0,0.0,0.0,0.0,0.0,0.0,0.0,0.0,0.0,0.0,0.0,0.0,0.0,0.0,0.0,0.0,0.0,0.0,0.9055,0.0,0.0,0.0,0.0,0.0,0.0,0.0,0.0,0.0,0.9605,0.9852,1.0278,1.0907,1.0995,1.1104,1.1322,0.0,0.0,0.0,0.0,0.0,0.0,0.0,1.0725,1.0387,1.0527,1.0683,1.0738,1.09,1.1029,1.113,0.0,0.0,1.0405,1.0608,1.0904,1.0969,1.1304,1.181,1.2606,1.3208,1.4152,0.0,0.0,0.0,0.0,0.0,0.0,0.0,0.0,0.9262,0.9137,0.0,0.9172,0.0,0.0,0.0,0.0,0.0,0.0,0.0,0.0,1.0907,1.1193,1.1166,1.086,1.0698,1.0671,1.0251,1.0049,1.0063,0.9211,0.0,0.0,0.0,0.0,0.0,0.0,1.017,1.0521,1.1077,1.1382,1.1375,1.1382,1.1246,1.0921,1.0663,1.05,1.048,0.9924,0.9559,0.9409,0.8469,0.0,0.0,0.0,0.0,0.0,0.0,0.0,0.0,0.0,0.0,0.0,0.0,0.0,0.0,0.0,0.0,0.0,0.0,0.0,0.0,0.9221,0.0,0.0,0.0,0.0,0.0,0.0,0.0,0.0,0.0,0.0,1.0069,1.0549,1.0968,1.1193,0.0,0.0,0.0,0.0,1.1341,1.124,1.1213,1.1131,1.0968,1.109,1.1166,1.0955,0.0,0.0,1.1606,1.164,1.1647,1.1647,1.1719,1.1678,1.128,1.1227,1.1234,1.1247,1.1608,1.2564,1.4431,1.5704,1.7439,0.9707,0.0,0.0,0.0,0.0,0.9589,0.9836,1.0114,1.0222,1.0127,0.9903,0.9937,0.0,0.0,0.0,0.0,0.0,0.0,1.0405,1.0732,1.1036,1.12,1.12,1.1192,1.109,1.0846,1.0853,1.0846,1.0859,1.0487,0.9981,0.9429,0.0,0.0,0.0,0.0,1.0412,1.0772,1.109,1.1261,1.1261,1.1335,1.1246,1.0887,1.0833,1.0677,1.05,1.0348,1.0027,0.9565,0.9156,0.0,0.0,0.0,0.0,0.0,0.0,0.0,0.0,0.0,0.0,0.0,0.0,0.0,0.0,0.0,0.0,0.0,0.0,0.0,0.9306,0.9415,0.9464,0.0,0.0,0.0,0.0,0.0,0.0,0.0,0.0,0.0,1.1083,1.1002,1.1049,0.0,0.0,1.1336,1.1356,1.1362,1.1416,1.1477,0.0,0.0,0.0,1.1525,1.1477,1.1401,1.1674,1.1962,1.2074,1.2182,1.225,1.2244,1.2284,1.2264,1.2179,1.1982,1.1887,1.1975,1.208,1.2366,1.3124,1.4677,1.6666,1.1021,1.0319,1.0127,1.0154,1.0245,1.0393,1.0629,1.086,1.1009,1.0873,1.0555,1.067,1.0337,0.9716,0.9716,0.0,0.0,0.0,1.0786,1.1266,1.1328,1.147,1.1723,1.1764,1.1653,1.1455,1.154,1.1526,1.143,1.128,1.0907,1.0419,0.0,0.0,1.0204,1.0493,1.0765,1.0995,1.124,1.1341,1.1383,1.1375,1.1274,1.1043,1.0941,1.0799,1.0595,1.0582,1.0403,1.0036,0.9738,0.9295,0.0,0.0,0.0,0.0,0.0,0.0,0.0,0.0,0.0,0.0,0.0,0.7287,0.7354,0.0,0.0,0.0,0.915,0.9367,0.9609,0.9673,0.0,0.0,0.0,0.0,0.0,0.0,0.0,1.0703,1.0975,1.13,1.1617,1.1489,1.1491,1.1762,1.1633,1.1567,1.1565,0.0,1.1723,1.1782,1.1796,1.1823,1.1904,1.1904,1.1904,1.1922,1.2115,1.2295,1.2352,1.2447,1.2501,1.2501,1.2501,1.2501,1.2501,1.2352,1.2295,1.2352,1.2372,1.286,1.4498,1.5922,1.755,1.2288,1.2091,1.1111,1.0819,1.1009,1.1192,1.1363,1.1457,1.1606,1.1381,1.0995,1.1294,1.1097,1.0568,1.0588,0.0,1.0799,1.0961,1.1333,1.184,1.1712,1.1972,1.2488,1.2352,1.2291,1.2277,1.2173,1.2036,1.1827,1.1685,1.166,1.1653,1.107,1.0744,1.0609,1.0982,1.122,1.1234,1.1477,1.1584,1.1633,1.1491,1.1363,1.12,1.1002,1.0853,1.0724,1.0717,1.0717,1.0677,1.0162,0.9844,0.9773,0.0,0.0,0.0,0.0,0.0,0.0,0.0,0.0,0.0,0.0,0.0,0.0,0.0,0.0,0.0,0.9855,0.0,1.0021,0.99,0.0,0.0,0.0,1.0204,1.0534,1.0664,1.0955,1.1382,0.0,0.0,1.1813,0.0,1.2118,1.2132,1.2111,1.2043,1.187,1.1972,1.2118,1.2111,1.2125,1.2132,1.2152,1.2241,1.2318,1.2427,1.2501,1.2488,1.2488,1.2494,1.2501,1.2501,1.2501,1.2501,1.2501,1.2488,1.2501,1.2494,1.2688,1.3907,1.7094,1.8383,1.9817,1.2678,1.2751,1.2352,1.2047,1.1846,1.1959,1.2016,1.1955,1.2067,1.1877,1.1428,1.1538,1.1423,1.1185,1.1374,1.1599,1.1791,1.2013,1.221,1.2338,1.2311,1.2366,1.2494,1.2359,1.2291,1.2284,1.2173,1.2139,1.2169,1.2026,1.2013,1.2115,1.1907,1.1613,1.1362,1.1341,1.1396,1.1511,1.1586,1.1638,1.1739,1.1604,1.1436,1.1206,1.1166,1.0989,1.0698,1.0717,1.0717,1.0684,1.0551,1.0279,0.9799,0.9187,0.0,0.0,0.0,0.0,0.0,0.0,0.0,0.0,0.0,0.8125,0.8125,0.0,0.9715,0.0,1.0099,1.0175,0.9997,1.0096,0.0,0.0,1.061,1.0819,1.1145,1.1314,1.1455,1.1665,1.1864,1.2013,1.2162,1.221,1.2277,1.2372,1.2241,1.2084,1.205,1.2179,1.2275,1.225,1.2332,1.24,1.24,1.2427,1.2467,1.2494,1.2501,1.2501,1.2501,1.2501,1.2501,1.2501,1.2501,1.2501,1.2508,1.2501,1.2501,1.2617,1.3683,1.5004,1.6113,1.86,2.1141,1.2942,1.3003,1.2935,1.2745,1.2506,1.2594,1.2501,1.2372,1.2522,1.2406,1.207,1.2003,1.1891,1.1751,1.1999,1.2142,1.2213,1.2338,1.244,1.2501,1.2501,1.2576,1.2705,1.2669,1.2589,1.2622,1.2433,1.2366,1.2386,1.2366,1.2406,1.2481,1.24,1.2244,1.2013,1.1728,1.1626,1.1671,1.1782,1.1823,1.1786,1.1658,1.1406,1.0964,1.079,1.0557,1.0201,1.0097,1.0065,1.0065,1.0065,0.9929,0.9608,0.9062,0.8563,0.0,0.0,0.0,0.0,0.0,0.0,0.0,0.0,0.0,0.0,0.0,1.0221,1.0214,1.0322,1.0392,1.0414,1.0582,1.0765,1.0995,1.1178,1.1436,1.1667,1.1823,1.1972,1.2077,1.2203,1.2291,1.2372,1.2379,1.244,1.2544,1.2467,1.2332,1.2284,1.2386,1.2488,1.2488,1.261,1.2705,1.2705,1.2705,1.2705,1.2705,1.2705,1.2705,1.2705,1.2705,1.2705,1.2705,1.2744,1.2678,1.2617,1.2603,1.2583,1.2863,1.4897,1.6333,1.5722,1.8042,2.0418,1.3193,1.3118,1.3186,1.3139,1.303,1.305,1.2908,1.2699,1.2874,1.284,1.2652,1.2562,1.2372,1.2207,1.2413,1.2474,1.2417,1.2411,1.244,1.2562,1.2562,1.2758,1.3023,1.2989,1.2982,1.2989,1.2766,1.2617,1.2508,1.2637,1.2672,1.2693,1.2713,1.2632,1.2494,1.2108,1.1868,1.1854,1.1983,1.1939,1.1754,1.1569,1.1171,1.0549,1.0306,0.9962,0.9531,0.9401,0.9334,0.9315,0.9315,0.9321,0.9366,0.8826,0.8488,0.0,0.7844,0.0,0.0,0.0,0.0,0.0,0.0,0.0,0.0,1.0096,1.0609,1.0642,1.0621,1.0704,1.0941,1.1165,1.1356,1.1491,1.1755,1.1972,1.2145,1.2275,1.2366,1.2488,1.2501,1.2501,1.2494,1.2515,1.2583,1.2659,1.2732,1.2691,1.2603,1.2671,1.2752,1.272,1.2874,1.2962,1.2969,1.2982,1.2975,1.2969,1.2935,1.2962,1.2907,1.2914,1.2928,1.2921,1.2854,1.2834,1.2725,1.2691,1.2651,1.256,1.5119,1.698,1.6523,1.8156,1.9854,1.3478,1.3599,1.3356,1.32,1.318,1.3261,1.3091,1.2693,1.2766,1.2684,1.2549,1.2515,1.2542,1.2603,1.2625,1.2739,1.2873,1.2873,1.2887,1.2914,1.2914,1.3009,1.3152,1.2888,1.284,1.2975,1.2562,1.2413,1.2501,1.2535,1.261,1.2693,1.2854,1.2779,1.2515,0.0,0.0,0.0,1.1927,1.1679,1.1536,1.1056,1.0581,1.0215,1.0147,0.0,0.951,0.95,0.94,0.9321,0.9315,0.0,0.0,0.0,0.0,0.0,0.0,0.0,0.0,0.0,0.0,0.0,1.0008,1.029,1.0136,1.0778,1.1219,1.1219,1.1145,1.1158,1.1428,1.1619,1.1816,1.2094,1.2271,1.2386,1.242,1.2447,1.2474,1.2494,1.2501,1.2501,1.2515,1.2603,1.2659,1.2706,1.284,1.2901,1.2881,1.2895,1.2962,1.2962,1.3009,1.3009,1.3003,1.3009,1.2975,1.2813,1.2773,1.2739,1.2651,1.2617,1.2596,1.261,1.2583,1.2596,1.2562,1.2542,1.2549,1.2508,1.3182,1.4514,1.7436,2.0879,2.3574,1.3736,0.0,1.3498,1.3356,0.0,1.337,1.3186,1.2854,1.3003,1.2935,1.2771,1.2732,1.2684,1.2623,1.2779,1.28,1.2778,1.2813,1.2807,1.2778,1.2813,1.2881,1.2949,1.28,1.2773,1.2834,1.2535,1.2467,1.2617,1.2691,1.28,1.2949,1.3064,1.303,1.2834,1.2684,1.2508,1.2291,1.2168,1.2058,1.1874,1.1543,1.1113,1.0619,0.0,0.0,0.0,0.0,0.0,0.0,0.0,0.0,0.0,0.0,0.0,0.9645,0.9605,0.9673,0.9906,1.0039,1.0246,1.0564,1.1078,1.1271,1.0978,1.127,1.1565,1.1708,1.1621,1.1647,1.2013,1.2121,1.2223,1.2379,1.2528,1.2589,1.2515,1.2501,1.2501,1.2501,1.2501,1.2528,1.2603,1.2671,1.2793,1.2922,1.305,1.3132,1.3152,1.3152,1.3125,1.3207,1.322,1.322,1.3214,1.3146,1.3084,1.2963,1.2888,1.282,1.2785,1.2771,1.2771,1.2764,1.2732,1.2712,1.263,1.2617,1.2551,1.2638,1.3298,1.4897,1.7967,2.023,2.1639,1.3946,1.3736,1.3634,1.3512,1.3397,1.3397,1.3261,1.3091,0.0,0.0,0.0,1.2962,1.2766,1.2522,1.2805,1.2739,1.2515,1.2591,1.2623,1.2508,1.2591,1.2665,1.2686,1.2659,1.2665,1.2679,1.2576,1.253,1.2659,1.2874,1.3064,1.3173,1.3227,1.32,1.32,1.2908,1.2651,1.2427,1.239,1.2318,1.2215,1.2018,1.1626,1.104,1.0728,1.0287,0.9774,0.9547,0.9438,0.9389,0.9383,0.944,0.9554,0.9666,0.9753,0.9875,1.0115,1.047,1.0855,1.1008,1.1272,1.1719,1.2064,1.2054,1.1726,1.1726,1.1898,1.2234,1.2081,1.2125,1.2576,1.2623,1.2617,1.2623,1.2732,1.2713,1.261,1.2583,1.2596,1.2583,1.2596,1.2617,1.2672,1.2786,1.2881,1.3118,1.3207,1.3254,1.3349,1.3288,1.3288,1.3349,1.3329,1.3342,1.337,1.3227,1.3186,1.3139,1.3037,1.2955,1.2928,1.2921,1.2921,1.2867,1.2914,1.2807,1.2712,1.2664,1.2644,1.2528,1.4137,1.5998,1.7588,1.8686,1.9553,1.4122,1.4163,1.3648,1.3424,1.3397,1.3397,1.3376,1.3308,1.2936,1.276,1.272,1.2759,1.2664,1.2508,1.2549,1.2542,1.2508,1.2522,1.2522,0.0,1.2522,1.2564,1.2679,1.2596,1.2564,1.2672,1.2569,1.2515,1.2562,1.2867,1.3009,1.3064,1.3241,1.3302,1.3214,1.301,1.2948,1.2901,1.2272,1.1933,1.1796,1.1435,1.1102,1.0755,1.0723,1.0477,1.005,0.9995,0.9872,0.9651,0.9666,0.9898,1.047,1.0509,1.077,1.1259,1.1355,1.1478,1.1612,1.1646,1.1871,1.2338,1.2535,1.2508,1.223,1.2311,1.2501,1.2833,1.2678,1.2732,1.3071,1.3105,1.3091,1.3098,1.3085,1.3051,1.2935,1.2921,1.2914,1.2914,1.2935,1.288,1.2786,1.2949,1.3057,1.3091,1.3241,1.3363,1.337,1.3383,1.3376,1.3376,1.3288,1.3275,1.3329,1.3207,1.3064,1.303,1.2861,1.2725,1.2623,1.2603,1.2603,1.2576,1.2603,1.2576,1.2542,1.2535,1.2535,1.2579,1.4022,1.5463,1.6151,1.861,2.1478,1.4136,1.4014,1.3626,1.3478,1.3397,1.3308,1.3322,1.337,1.3098,1.2969,1.2949,1.276,1.2652,1.2578,1.2535,1.2501,1.2501,1.2501,1.2501,1.2501,1.2501,1.2535,1.2596,1.2535,1.2542,1.2603,1.2535,1.2583,1.2752,1.2935,1.3077,1.3241,1.3336,1.3363,1.3295,1.3193,1.3118,1.3111,1.2702,1.2403,1.2264,1.2063,1.1849,1.1564,1.1486,1.1347,1.1038,1.0954,1.0856,1.0727,1.072,1.0848,1.1155,1.1235,1.1442,1.1698,1.1965,1.2094,1.2081,1.2192,1.2368,1.261,1.2766,1.2834,1.2812,1.2867,1.2962,1.3098,1.3003,1.3024,1.32,1.3214,1.3186,1.3105,1.3166,1.3152,1.303,1.3003,1.3003,1.3003,1.3003,1.3003,1.2969,1.3085,1.3234,1.3193,1.3275,1.3281,1.3275,1.3254,1.322,1.3349,1.3316,1.3214,1.3254,1.3146,1.2982,1.2854,1.2712,1.2551,1.2508,1.2501,1.2501,1.2501,1.2501,1.2501,1.2501,1.2501,1.2501,1.2579,1.3074,1.4099,1.554,1.8761,2.2049,1.4089,1.3788,1.3605,1.3505,1.339,1.3275,1.3295,1.3383,1.3275,1.3227,1.3227,1.2908,1.2766,1.2679,1.2569,1.2501,1.2501,1.2501,1.2501,1.2501,1.2501,1.2501,1.2501,1.2501,1.2501,1.2501,1.2501,1.263,1.288,1.2962,1.3152,1.337,1.3397,1.3397,1.3397,1.3281,1.3227,1.322,1.3159,1.2969,1.2786,1.2786,1.2671,1.2454,1.237,1.2189,1.2003,1.1898,1.1803,1.1769,1.1735,1.1748,1.178,1.1925,1.2013,1.2108,1.2413,1.2562,1.2467,1.2684,1.2834,1.2834,1.2976,1.3146,1.3248,1.322,1.3227,1.3268,1.3261,1.322,1.3234,1.3275,1.322,1.3118,1.3193,1.3227,1.3125,1.3064,1.3098,1.3105,1.3105,1.3139,1.32,1.3248,1.3268,1.3342,1.3268,1.322,1.32,1.3071,1.303,1.318,1.3173,1.3132,1.3139,1.2996,1.2827,1.2686,1.2571,1.2528,1.2501,1.2501,1.2501,1.2501,1.2501,1.2481,1.2461,1.2447,1.244,1.2479,1.3041,1.4007,1.6104,1.9101,2.1863,1.3987,1.3768,1.3546,1.3417,1.3403,1.3383,1.3383,1.3397,1.3383,1.3383,1.3342,1.3111,1.2861,1.2679,1.2576,1.2515,1.2515,1.2501,1.2508,1.2515,1.2501,1.2501,1.2508,1.2501,1.2501,1.2501,1.2501,1.2528,1.261,1.2887,1.3112,1.337,1.3397,1.3397,1.3397,1.3383,1.3376,1.3376,1.337,1.322,1.2996,1.2982,1.2969,1.2941,1.2921,1.2807,1.2584,1.2463,1.2359,1.2237,1.2139,1.2149,1.2379,1.2433,1.2562,1.2853,1.2928,1.2948,1.2948,1.3084,1.3159,1.3146,1.3254,1.3349,1.337,1.3376,1.3376,1.337,1.3376,1.337,1.3376,1.337,1.3356,1.3329,1.3349,1.337,1.3342,1.3363,1.3356,1.3356,1.3329,1.3315,1.3248,1.3309,1.3356,1.3342,1.3234,1.318,1.3146,1.2908,1.28,1.2929,1.2874,1.2854,1.2915,1.2771,1.2651,1.2691,1.2603,1.2522,1.2501,1.2501,1.2501,1.2501,1.2501,1.2461,1.2379,1.2311,1.2318,1.2519,1.3603,1.5429,1.7795,1.9817,2.1377,1.3777,1.3653,1.3492,1.3397,1.3397,1.3397,1.3397,1.3397,1.3397,1.3397,1.3376,1.322,1.3051,1.2976,1.2745,1.2684,1.2812,1.2812,1.2773,1.2766,1.2678,1.2598,1.263,1.2542,1.2501,1.2501,1.2501,1.2596,1.28,1.3118,1.3241,1.3275,1.3356,1.3397,1.3397,1.3397,1.3397,1.3397,1.3397,1.3336,1.3227,1.3132,1.3084,1.3009,1.3003,1.2975,1.2868,1.2807,1.2745,1.273,1.2662,1.269,1.2766,1.2812,1.2867,1.2989,1.3003,1.3037,1.3125,1.3139,1.3214,1.3214,1.3315,1.3397,1.3397,1.3397,1.3397,1.3397,1.3397,1.3397,1.3397,1.3397,1.3397,1.3397,1.3397,1.3397,1.3397,1.3397,1.3397,1.3397,1.3397,1.3342,1.3261,1.3268,1.3227,1.3207,1.3078,1.3071,1.2922,1.2725,1.2637,1.2664,1.263,1.2671,1.2773,1.2699,1.2637,1.2589,1.2549,1.2501,1.2488,1.2501,1.2501,1.2494,1.2481,1.2467,1.2447,1.2345,1.2343,1.2574,1.2713,1.3984,1.4889,1.7588,1.9403,1.3592,1.3511,1.3444,1.3397,1.3397,1.3397,1.3397,1.3397,1.3397,1.3397,1.3383,1.3282,1.32,1.3193,1.2922,1.2861,1.2989,1.2955,1.2901,1.2921,1.2739,1.2625,1.2651,1.2562,1.2501,1.2501,1.2501,1.2664,1.3003,1.3248,1.3302,1.3302,1.3349,1.3397,1.3397,1.3397,1.3397,1.3397,1.3397,1.3397,1.3383,1.3295,1.3186,1.3132,1.3125,1.3125,1.3118,1.3084,1.3057,1.3057,1.3023,1.3016,1.3057,1.3064,1.3077,1.3118,1.3125,1.3166,1.3227,1.3275,1.3234,1.3288,1.3342,1.3397,1.3397,1.3397,1.3397,1.3397,1.3397,1.3397,1.3397,1.3397,1.3397,1.3397,1.3397,1.3397,1.3397,1.3397,1.3397,1.3397,1.3356,1.3302,1.3248,1.3214,1.3139,1.305,1.3009,1.2854,1.2671,1.2542,1.2501,1.2454,1.2447,1.2508,1.2591,1.2611,1.2596,1.2501,1.2433,1.2413,1.24,1.2417,1.242,1.2366,1.2393,1.2359,1.2284,1.2281,1.2223,1.2383,1.251,1.2635,1.3035,1.5998,1.8118,1.3626,1.3431,1.3403,1.3397,1.3397,1.3397,1.3397,1.3397,1.3397,1.3397,1.3383,1.3254,1.3261,1.3363,1.3139,1.3003,1.2989,1.2847,1.2786,1.2726,1.2617,1.2522,1.2515,1.2501,1.2508,1.2542,1.2549,1.2684,1.3003,1.3152,1.3254,1.3376,1.339,1.3397,1.3397,1.3397,1.3397,1.3397,1.3397,1.3397,1.3397,1.339,1.3376,1.3356,1.3376,1.3363,1.3349,1.3275,1.32,1.32,1.3091,1.3071,1.3186,1.3207,1.3227,1.3342,1.337,1.337,1.3376,1.3376,1.3376,1.3383,1.339,1.3397,1.3397,1.3397,1.3397,1.3397,1.3397,1.3397,1.3397,1.3397,1.3397,1.3397,1.3397,1.3397,1.339,1.3376,1.3397,1.3356,1.3247,1.3152,1.3193,1.3214,1.3118,1.3009,1.2975,1.2846,1.2467,1.2427,1.2413,1.2345,1.2318,1.2345,1.2474,1.2481,1.2427,1.2366,1.2318,1.2302,1.2193,1.2132,1.222,1.2223,1.2234,1.2179,1.2111,1.2077,1.207,1.2155,1.2386,1.2467,1.2501,1.596,1.8042,1.3668,1.3403,1.3397,1.3397,1.3397,1.3397,1.3397,1.3397,1.3397,1.3397,1.341,1.3444,1.3444,1.3397,1.3397,1.3336,1.3241,1.3186,1.3105,1.3003,1.2861,1.2839,1.2786,1.2698,1.2705,1.2826,1.2833,1.2887,1.2996,1.3146,1.3241,1.3261,1.3356,1.3397,1.3397,1.3397,1.3397,1.3397,1.3397,1.3397,1.3314,1.3397,1.3397,1.3397,1.3397,1.3397,1.3397,1.3349,1.3322,1.3315,1.3309,1.3261,1.3308,1.3315,1.3342,1.339,1.3397,1.3397,1.3397,1.3397,1.3397,1.3397,1.3397,1.3397,1.3397,1.3397,1.3397,1.3397,1.3397,1.3397,1.3397,1.3397,1.3397,1.3397,1.3397,1.3363,1.3281,1.3254,1.322,1.3159,1.299,1.2895,1.2929,1.2976,1.2941,1.2623,1.2691,1.2623,1.2379,1.2302,1.2268,1.2257,1.2247,1.22,1.2241,1.2254,1.2247,1.2244,1.223,1.2193,1.2098,1.2064,1.2132,1.2108,1.2091,1.2057,1.2023,1.2104,1.2026,1.2047,1.2277,1.244,1.2501,1.5943,1.7805,1.3612,1.3485,1.3424,1.3397,1.3397,1.3397,1.3397,1.3397,1.3397,1.3397,1.3431,1.3559,1.3519,1.339,1.3497,1.347,1.3342,1.3322,1.3247,1.3146,1.3043,1.2975,1.2881,1.2827,1.2854,1.2996,1.305,1.3071,1.3084,1.322,1.3288,1.3261,1.3356,1.3397,1.3397,1.3397,1.3397,1.3321,1.2685,1.2264,1.2305,1.2312,1.2305,1.243,1.3024,1.3397,1.3397,1.3397,1.3397,1.3397,1.3397,1.3397,1.3397,1.3397,1.3397,1.3397,1.3397,1.3397,1.3397,1.3397,1.3397,1.3397,1.3397,1.3397,1.3397,1.3397,1.3397,1.3397,1.3397,1.3397,1.3397,1.3397,1.3383,1.3349,1.337,1.3336,1.32,1.322,1.3085,1.2929,1.2813,1.2706,1.2699,1.2827,1.2691,1.2377,1.2481,1.2447,1.2142,1.204,1.2013,1.2108,1.2047,1.2033,1.204,1.2026,1.1999,1.2026,1.206,1.2043,1.1996,1.1982,1.1996,1.1965,1.1959,1.1932,1.1965,1.206,1.2067,1.2026,1.2189,1.2379,1.3755,1.5849,1.7473,1.3592,1.36,1.3464,1.3424,1.3437,1.3444,1.3417,1.3437,1.3424,1.3431,1.3478,1.3573,1.3485,1.3315,1.3519,1.3471,1.3295,1.3261,1.3186,1.305,1.3023,1.2948,1.28,1.2915,1.3016,1.305,1.3152,1.3207,1.3207,1.3281,1.3356,1.3376,1.3383,1.3397,1.3397,1.3397,1.3397,1.3065,1.1594,1.0419,1.0044,1.0252,1.0377,1.0549,1.2139,1.3189,1.3355,1.3397,1.3397,1.3397,1.3397,1.3397,1.3397,1.3397,1.3397,1.3397,1.3397,1.3397,1.3397,1.3397,1.3397,1.3397,1.3397,1.3397,1.3397,1.3397,1.3397,1.3397,1.3397,1.3397,1.3397,1.3397,1.3356,1.3268,1.3329,1.3336,1.3254,1.32,1.3051,1.276,1.2665,1.2686,1.2686,1.2706,1.2623,1.2393,1.2311,1.2216,1.1884,1.183,1.1793,1.182,1.1857,1.187,1.1857,1.1843,1.1816,1.1759,1.1793,1.1823,1.1762,1.1742,1.1789,1.1803,1.1782,1.1755,1.1782,1.1864,1.1918,1.1938,1.2142,1.2315,1.3506,1.5119,1.7265,1.3627,1.3585,1.358,1.3572,1.3653,1.366,1.366,1.3688,1.3565,1.3572,1.3639,1.3605,1.3573,1.3519,1.3593,1.3519,1.3336,1.3329,1.3288,1.3166,1.3146,1.3118,1.3044,1.3118,1.3159,1.3234,1.3241,1.3214,1.3227,1.3227,1.3288,1.3302,1.3356,1.3397,1.3397,1.3397,1.3397,1.3314,1.2727,1.1677,1.0252,1.0044,1.0003,1.0128,1.0757,1.176,1.3272,1.3397,1.3397,1.3397,1.3397,1.3397,1.3397,1.3397,1.3397,1.3397,1.3397,1.3397,1.3397,1.3397,1.3397,1.3397,1.3397,1.3397,1.3397,1.3397,1.3397,1.3397,1.3397,1.3397,1.3397,1.3397,1.3376,1.3336,1.337,1.3329,1.3159,1.299,1.2793,1.2623,1.2576,1.2576,1.2596,1.2644,1.2564,1.2352,1.2291,1.2169,1.2016,1.1789,1.1705,1.1766,1.1726,1.1735,1.1755,1.1762,1.1721,1.1671,1.1678,1.1692,1.1617,1.1584,1.1624,1.1631,1.1604,1.1597,1.1617,1.1658,1.1732,1.1857,1.2013,1.2244,1.2473,1.4085,1.6467,1.3666,1.366,1.3605,1.3666,1.3774,1.3693,1.3673,1.3693,1.3565,1.3593,1.3612,1.366,1.3531,1.3464,1.3558,1.3519,1.3275,1.3342,1.3349,1.3268,1.3254,1.3234,1.3234,1.3234,1.3295,1.337,1.3302,1.3254,1.3261,1.3295,1.3261,1.3281,1.3356,1.3397,1.3397,1.3355,1.3106,1.2222,1.122,0.9836,0.804,0.7622,0.7998,0.8707,0.9628,1.122,1.3189,1.3397,1.3397,1.3397,1.3397,1.3397,1.3397,1.3397,1.3397,1.3397,1.3397,1.3397,1.3397,1.3397,1.3397,1.3397,1.3397,1.3397,1.3397,1.3397,1.3397,1.3397,1.3397,1.3397,1.3397,1.3397,1.3397,1.3397,1.3342,1.3227,1.3037,1.2807,1.2638,1.2556,1.2508,1.2501,1.2528,1.2556,1.2517,1.2345,1.2291,1.2237,1.2118,1.1941,1.1891,1.182,1.1773,1.1732,1.1714,1.1674,1.1597,1.1597,1.1604,1.1611,1.1584,1.1584,1.1604,1.1604,1.1584,1.1584,1.1604,1.1631,1.1692,1.1823,1.1884,1.2012,1.2377,1.3964,1.5916,1.3774,1.3781,1.3646,1.3666,1.3754,1.3566,1.3519,1.3538,1.3478,1.3424,1.3478,1.3634,1.3498,1.3214,1.3505,1.3437,1.3159,1.3247,1.3383,1.3376,1.3376,1.3322,1.3282,1.3322,1.3376,1.3397,1.339,1.3376,1.3336,1.339,1.3403,1.339,1.3431,1.3424,1.3437,1.3417,1.2366,1.0382,0.8415,0.6449,0.4027,0.3692,0.4737,0.6825,0.8707,1.0798,1.3024,1.3397,1.3397,1.3397,1.3397,1.3397,1.3397,1.3397,1.3397,1.3397,1.3397,1.3397,1.3397,1.3397,1.3397,1.3397,1.3397,1.3397,1.3397,1.3397,1.3397,1.3397,1.3397,1.3397,1.3397,1.3397,1.3397,1.3363,1.3268,1.3085,1.2767,1.2706,1.2618,1.2542,1.2501,1.2501,1.2501,1.2515,1.2447,1.2366,1.2325,1.2257,1.2149,1.2098,1.2098,1.1979,1.1813,1.1739,1.1671,1.1624,1.1584,1.1584,1.1584,1.1584,1.1584,1.1584,1.1584,1.1584,1.1584,1.1584,1.159,1.1617,1.1624,1.1694,1.1748,1.1796,1.2449,1.372,1.4848,1.3599,1.3774,1.3646,1.3666,1.3768,1.3599,1.3519,1.3464,1.3417,1.3383,1.3403,1.3356,1.3349,1.3281,1.3207,1.3207,1.3124,1.3165,1.3302,1.339,1.3397,1.3383,1.3349,1.3376,1.3355,1.3314,1.33,1.3342,1.3261,1.3409,1.3498,1.3417,1.3558,1.3654,1.3587,1.3559,1.2322,1.0393,0.954,0.7034,0.386,0.3316,0.4444,0.6533,0.741,0.967,1.2899,1.3397,1.3397,1.3397,1.3397,1.3397,1.3397,1.3397,1.3397,1.3397,1.3397,1.3397,1.3397,1.3397,1.3397,1.3397,1.3397,1.3397,1.3397,1.3397,1.3397,1.3397,1.3397,1.3397,1.3397,1.3397,1.3356,1.3247,1.3241,1.3139,1.2922,1.2793,1.2671,1.2535,1.2508,1.2501,1.2501,1.2494,1.2481,1.2447,1.2433,1.2393,1.2277,1.225,1.2244,1.1979,1.1793,1.1726,1.1665,1.1617,1.1584,1.1584,1.1584,1.1584,1.1584,1.1584,1.1584,1.1584,1.1584,1.1584,1.1584,1.1597,1.1584,1.1584,1.1611,1.1678,1.1775,1.2589,1.372,1.3551,1.37,1.3619,1.3632,1.3673,1.3526,1.339,1.3315,1.3302,1.3268,1.3241,1.3342,1.3268,1.3125,1.3207,1.2634,1.1891,1.184,1.1317,1.0699,1.1427,1.2388,1.3093,1.3349,1.2916,1.2175,1.2916,1.2751,1.2322,1.2984,1.349,1.36,1.3653,1.3666,1.3627,1.3543,1.2449,1.0315,0.9165,0.6825,0.365,0.3316,0.457,0.6495,0.7539,0.992,1.2899,1.3397,1.3397,1.3397,1.3397,1.3397,1.3397,1.3397,1.3397,1.3397,1.3397,1.3397,1.3397,1.3397,1.3397,1.3397,1.3397,1.3397,1.3397,1.3397,1.3397,1.3397,1.3397,1.3397,1.3397,1.3397,1.3356,1.3295,1.3254,1.3159,1.3016,1.282,1.2705,1.261,1.2542,1.2501,1.2501,1.2508,1.2501,1.2515,1.2562,1.2494,1.242,1.2427,1.2379,1.2135,1.1938,1.1877,1.1782,1.1678,1.159,1.1584,1.1584,1.1584,1.1584,1.1584,1.1584,1.1584,1.1584,1.1584,1.1584,1.1584,1.1584,1.1584,1.1584,1.1631,1.1748,1.1891,1.2955,1.3572,1.3627,1.3593,1.3538,1.3532,1.3281,1.3166,1.3139,1.318,1.3098,1.305,1.3349,1.286,1.243,1.2363,1.1688,0.9374,0.9562,0.8547,0.8198,0.8874,1.0466,1.1837,1.2342,1.1723,1.0818,1.2133,1.1783,1.1395,1.2489,1.3536,1.3783,1.377,1.3709,1.3736,1.366,1.2234,0.9697,0.7947,0.5636,0.3367,0.3153,0.453,0.6662,0.9373,1.1095,1.2858,1.3397,1.3397,1.3397,1.3397,1.3397,1.3397,1.3397,1.3397,1.3397,1.3397,1.3397,1.3397,1.3397,1.3397,1.3397,1.3397,1.3397,1.3397,1.3397,1.3397,1.3397,1.3397,1.3397,1.3397,1.3397,1.339,1.3356,1.3268,1.3186,1.301,1.2861,1.2713,1.2706,1.2623,1.2542,1.2542,1.2535,1.2535,1.2596,1.2644,1.263,1.2569,1.2556,1.2494,1.2359,1.2182,1.207,1.1911,1.1782,1.1651,1.1584,1.1584,1.1584,1.1584,1.1584,1.1584,1.1584,1.1584,1.1584,1.1584,1.1584,1.159,1.1604,1.1617,1.1685,1.1773,1.1993,1.2712,1.3519,1.3565,1.337,1.3268,1.3241,1.3118,1.2914,1.2684,1.2955,1.2921,1.2712,1.2807,1.1881,1.0358,1.0349,0.9162,0.741,0.7177,0.6928,0.6951,0.7038,0.7581,0.8582,0.9713,1.0315,0.9951,1.0356,1.0545,1.0736,1.2149,1.3831,1.398,1.4048,1.4089,1.3973,1.3796,1.1764,0.8334,0.711,0.5004,0.2587,0.3033,0.4737,0.7159,1.059,1.2602,1.3189,1.3397,1.3397,1.3397,1.3397,1.3397,1.3397,1.3397,1.3397,1.3397,1.3397,1.3397,1.3397,1.3397,1.3397,1.3397,1.3417,1.3397,1.3397,1.341,1.3403,1.3397,1.3397,1.3397,1.3397,1.3397,1.3397,1.3383,1.3363,1.3329,1.3268,1.3105,1.2929,1.2881,1.2786,1.2725,1.2867,1.2712,1.2691,1.2665,1.2718,1.2745,1.2712,1.2651,1.2569,1.2454,1.2277,1.2145,1.1999,1.1857,1.1735,1.1611,1.1597,1.1584,1.1584,1.1584,1.1584,1.1584,1.1584,1.1584,1.1584,1.164,1.1653,1.1638,1.1671,1.1759,1.1911,1.2094,1.221,1.3451,1.3492,1.3268,1.3173,1.3111,1.303,1.2826,1.2617,1.2941,1.2887,1.237,1.1853,1.0728,0.9436,0.8504,0.7016,0.5088,0.388,0.3463,0.369,0.4405,0.5114,0.524,0.6202,0.6909,0.7072,0.7991,0.8465,0.9253,1.1013,1.2754,1.4011,1.4163,1.4122,1.4125,1.4075,1.2879,1.0409,0.787,0.596,0.5277,0.4766,0.6745,0.929,1.2139,1.3397,1.3397,1.3397,1.3397,1.3397,1.3397,1.3397,1.3397,1.3397,1.3403,1.3397,1.3397,1.3397,1.3397,1.3397,1.3397,1.3403,1.3464,1.3451,1.3451,1.3458,1.3464,1.3424,1.3397,1.3397,1.3397,1.3397,1.3397,1.3397,1.3397,1.3397,1.3363,1.32,1.3098,1.3071,1.2929,1.2895,1.2888,1.2847,1.2766,1.2732,1.2679,1.2739,1.2651,1.2603,1.2583,1.2474,1.2343,1.2193,1.2067,1.1938,1.1782,1.1671,1.1631,1.1604,1.1584,1.1584,1.1584,1.1584,1.1584,1.1584,1.1584,1.1653,1.1674,1.1687,1.1735,1.1864,1.1979,1.2139,1.2234,1.3397,1.339,1.3234,1.3132,1.3016,1.2996,1.2786,1.2589,1.2562,1.2119,1.1731,1.0257,0.8861,0.8063,0.6755,0.4792,0.2764,0.0,0.0,0.0,0.0,0.2771,0.2939,0.3107,0.3231,0.3145,0.5078,0.6112,0.7035,0.9045,1.1524,1.3264,1.4065,1.4116,1.4132,1.4102,1.3452,1.1983,0.8714,0.7466,0.8309,0.7342,0.8731,1.2147,1.3118,1.3431,1.341,1.3397,1.3397,1.3397,1.3397,1.3397,1.3397,1.3403,1.3424,1.3424,1.3424,1.3424,1.3458,1.3451,1.3451,1.3437,1.3573,1.358,1.3512,1.3532,1.3519,1.3451,1.3397,1.3397,1.3397,1.3397,1.3397,1.3397,1.3397,1.3397,1.3376,1.3281,1.3261,1.3193,1.3091,1.303,1.301,1.2976,1.2861,1.2766,1.2759,1.2718,1.2637,1.2576,1.2562,1.2501,1.2338,1.2115,1.1999,1.1952,1.1773,1.1698,1.1651,1.1617,1.1584,1.1584,1.1584,1.1584,1.1584,1.1584,1.159,1.166,1.1681,1.1687,1.1809,1.2016,1.2098,1.2145,1.2247,1.3397,1.339,1.3234,1.3132,1.3009,1.2996,1.274,1.2245,1.0905,1.011,0.9651,0.785,0.5981,0.4619,0.3982,0.2462,0.0956,0.0,0.0,0.0,0.0,0.0,0.0,0.0,0.0,0.1178,0.2765,0.4004,0.5314,0.8201,1.0398,1.1485,1.3292,1.4197,1.4116,1.4089,1.3368,1.1954,0.9057,0.7976,0.8303,0.8281,0.9314,1.3179,1.3587,1.3526,1.3431,1.3403,1.3397,1.3397,1.3397,1.3403,1.3424,1.3424,1.3471,1.3519,1.3458,1.3444,1.3559,1.358,1.3545,1.3578,1.368,1.3687,1.3599,1.3614,1.3593,1.3464,1.341,1.3397,1.3397,1.3397,1.3397,1.3397,1.3397,1.3397,1.339,1.337,1.3336,1.3322,1.3227,1.3159,1.3146,1.3105,1.3003,1.2915,1.2881,1.2786,1.2664,1.261,1.2576,1.2488,1.2372,1.2135,1.1874,1.1847,1.178,1.1735,1.1687,1.1604,1.1584,1.1584,1.1584,1.1617,1.1604,1.1584,1.164,1.1667,1.1714,1.1755,1.1918,1.2145,1.2227,1.2295,1.2332,1.3397,1.3376,1.32,1.3064,1.2996,1.2868,1.2076,1.0865,1.0024,0.8976,0.7496,0.5695,0.4232,0.3043,0.184,0.0867,0.0,0.0,0.0,0.0,0.0,0.0,0.0,0.0,0.0,0.0,0.1184,0.241,0.3685,0.691,0.913,1.0886,1.2998,1.4183,1.4061,1.4133,1.3608,1.2012,1.0229,0.9495,1.0452,1.0437,1.1946,1.2941,1.3687,1.3619,1.3553,1.3519,1.3519,1.3505,1.3444,1.3492,1.3553,1.3566,1.3511,1.36,1.3498,1.3512,1.3626,1.3646,1.3612,1.3707,1.3829,1.3878,1.381,1.379,1.3729,1.3566,1.3424,1.3397,1.3397,1.3397,1.3397,1.3397,1.3397,1.3397,1.3397,1.3397,1.3397,1.3397,1.3336,1.3295,1.3315,1.3254,1.3193,1.3118,1.305,1.2921,1.2764,1.2698,1.2678,1.2644,1.2569,1.2386,1.2142,1.202,1.1834,1.1755,1.1701,1.1653,1.159,1.1597,1.1651,1.1705,1.1671,1.1611,1.1624,1.1694,1.1719,1.18,1.2033,1.2241,1.2356,1.2413,1.2454,1.3383,1.3336,1.3105,1.3009,1.2855,1.2265,1.1065,0.9545,0.8555,0.7267,0.5579,0.3678,0.2625,0.207,0.0,0.0,0.0,0.0,0.0,0.0,0.0,0.0,0.0,0.0,0.0,0.0,0.0,0.0,0.2537,0.51,0.742,0.9436,1.2123,1.3797,1.378,1.4109,1.4136,1.3493,1.1992,1.1861,1.2935,1.374,1.3869,1.3892,1.3842,1.3824,1.3646,1.3626,1.3626,1.3599,1.36,1.3558,1.3727,1.3693,1.3646,1.3688,1.3573,1.3661,1.3777,1.3768,1.3804,1.3842,1.4027,1.4014,1.3919,1.3878,1.3838,1.3654,1.3492,1.3403,1.3397,1.3397,1.3397,1.3397,1.3397,1.3397,1.3397,1.3397,1.3397,1.3397,1.3397,1.339,1.3383,1.3356,1.3288,1.3186,1.3118,1.3043,1.2914,1.2914,1.2901,1.2868,1.2807,1.2678,1.2474,1.2257,1.204,1.1782,1.1735,1.1701,1.1638,1.1617,1.1685,1.1746,1.1726,1.1678,1.1685,1.1712,1.1786,1.1945,1.2142,1.2291,1.24,1.2433,1.2454,1.3322,1.3241,1.3159,1.3003,1.2417,1.0741,0.9753,0.8798,0.5612,0.3805,0.3368,0.0,0.0,0.0,0.0,0.0,0.0,0.0,0.0,0.0,0.0,0.0,0.0,0.0,0.0,0.0,0.0,0.0,0.1394,0.3301,0.5306,0.7592,1.033,1.1919,1.3749,1.4116,1.4193,1.3848,1.1981,1.1046,1.1666,1.3293,1.3974,1.4075,1.4034,1.3973,1.3802,1.3774,1.3774,1.3768,1.3754,1.3754,1.3795,1.3788,1.3899,1.3933,1.3905,1.3822,1.4007,1.3994,1.3994,1.4055,1.417,1.417,1.4055,1.3838,1.3729,1.3605,1.345,1.341,1.3397,1.3397,1.3397,1.3397,1.3397,1.3397,1.3397,1.3397,1.3397,1.3397,1.3397,1.3397,1.339,1.337,1.3336,1.3234,1.3186,1.3125,1.3084,1.3098,1.3091,1.3098,1.3023,1.2847,1.2671,1.2474,1.2223,1.1891,1.1816,1.1782,1.1775,1.1769,1.1712,1.1753,1.1753,1.1793,1.1877,1.1904,1.1925,1.2026,1.2196,1.2338,1.2467,1.2474,1.2461,1.3227,1.2963,1.1699,1.1078,1.0696,0.8649,0.699,0.5594,0.3951,0.2427,0.1373,0.0,0.0,0.0,0.0,0.0,0.0,0.0,0.0,0.0,0.0,0.0,0.0,0.0,0.0,0.0,0.0,0.0,0.0,0.344,0.6078,0.7053,1.0451,1.3047,1.3833,1.4207,1.434,1.4022,1.3306,1.2774,1.2996,1.3666,1.4265,1.4204,1.4197,1.4109,1.4014,1.3973,1.3973,1.3953,1.3862,1.3896,1.4027,1.4041,1.4041,1.417,1.4143,1.4136,1.4183,1.4166,1.4173,1.4234,1.4258,1.4258,1.415,1.3939,1.3707,1.3707,1.3532,1.3417,1.3403,1.3397,1.3397,1.3397,1.3397,1.3397,1.3397,1.3397,1.3397,1.3397,1.3397,1.3397,1.3397,1.339,1.3376,1.3329,1.3281,1.3254,1.3282,1.3302,1.3254,1.3241,1.3173,1.3043,1.2846,1.2649,1.2406,1.2135,1.203,1.1996,1.1968,1.1918,1.1904,1.1932,1.1986,1.2026,1.2047,1.2006,1.1965,1.2094,1.2281,1.2393,1.2528,1.2501,1.2494,1.2728,1.1953,1.0283,0.9569,0.9258,0.6669,0.4654,0.3208,0.2506,0.1411,0.0,0.0,0.0,0.0,0.0,0.0,0.0,0.0,0.0,0.0,0.0,0.0,0.0,0.0,0.0,0.0,0.0,0.0,0.0,0.3507,0.5834,0.6902,1.0527,1.3077,1.3874,1.4146,1.4268,1.4194,1.4139,1.4071,1.4166,1.4166,1.4299,1.4292,1.4285,1.4245,1.415,1.4129,1.4173,1.4109,1.4048,1.4095,1.4217,1.4183,1.417,1.4258,1.4251,1.4258,1.4251,1.4211,1.4204,1.4258,1.4299,1.4292,1.4258,1.4004,1.3822,1.3788,1.3578,1.3478,1.341,1.3397,1.3397,1.3397,1.3397,1.3397,1.3397,1.3397,1.3397,1.3397,1.3397,1.3397,1.3397,1.3397,1.3397,1.3397,1.3397,1.3397,1.3397,1.339,1.337,1.3329,1.3281,1.3173,1.2962,1.2764,1.2528,1.2359,1.2247,1.2139,1.2091,1.2104,1.2088,1.2166,1.22,1.2213,1.2169,1.2081,1.202,1.2216,1.2393,1.2494,1.2569,1.2542,1.2515,1.1677,0.9641,0.9543,0.9321,0.8886,0.5006,0.3208,0.2662,0.1059,0.0,0.0,0.0,0.0,0.0,0.0,0.0,0.0,0.0,0.0,0.0,0.0,0.0,0.0,0.0,0.0,0.0,0.0,0.0,0.0,0.2658,0.4992,0.7064,0.9964,1.198,1.3374,1.4086,1.416,1.4183,1.4258,1.4299,1.4299,1.4299,1.4299,1.4299,1.4299,1.4292,1.4285,1.4265,1.4258,1.4251,1.4217,1.4204,1.4272,1.4265,1.4272,1.4285,1.4299,1.4299,1.4278,1.4278,1.4285,1.4292,1.4299,1.4299,1.4285,1.4156,1.4,1.3829,1.3709,1.358,1.3478,1.341,1.3471,1.3444,1.3451,1.3431,1.3417,1.3397,1.3397,1.3397,1.3397,1.3397,1.3397,1.3397,1.3397,1.3397,1.3397,1.3397,1.3397,1.3397,1.3397,1.3383,1.3383,1.3247,1.3057,1.2873,1.273,1.2508,1.2377,1.2261,1.2166,1.2213,1.2295,1.2275,1.2288,1.2309,1.2291,1.2244,1.2257,1.2406,1.2515,1.2549,1.2569,1.2542,1.2522,1.0352,0.9187,0.6676,0.5573,0.5315,0.2429,0.1216,0.1098,0.0,0.0,0.0,0.0,0.0,0.0,0.0,0.0,0.0,0.0,0.0,0.0,0.0,0.0,0.0,0.0,0.0,0.0,0.0,0.0,0.0,0.0,0.4631,0.6997,0.9223,1.1781,1.3423,1.4211,1.4272,1.4278,1.4306,1.4299,1.4299,1.4299,1.4299,1.4299,1.4299,1.4299,1.4299,1.4299,1.4299,1.4299,1.4299,1.4299,1.4299,1.4299,1.4306,1.4306,1.4306,1.4306,1.4306,1.4306,1.4299,1.4299,1.4299,1.4299,1.4292,1.4207,1.4112,1.3953,1.3844,1.3715,1.3653,1.3626,1.3626,1.3545,1.3512,1.3471,1.3451,1.3431,1.3397,1.3397,1.3397,1.3397,1.3397,1.3397,1.3397,1.3397,1.3397,1.3397,1.3397,1.3397,1.3397,1.3376,1.3376,1.3349,1.3125,1.303,1.2894,1.271,1.2474,1.2359,1.2271,1.2345,1.2406,1.2366,1.2383,1.2379,1.2406,1.2413,1.2461,1.2522,1.2522,1.2515,1.2528,1.2542,1.2522,0.9164,0.8089,0.4615,0.313,0.2819,0.0863,0.0,0.0,0.0,0.0,0.0,0.0,0.0,0.0,0.0,0.0,0.0,0.0,0.0,0.0,0.0,0.0,0.0,0.0,0.0,0.0,0.0,0.0,0.0,0.0,0.4109,0.6641,0.8838,1.105,1.3792,1.4434,1.4496,1.4428,1.4414,1.436,1.4367,1.4319,1.4346,1.434,1.4333,1.4299,1.4299,1.4299,1.4299,1.4299,1.4299,1.4299,1.4299,1.4306,1.4319,1.4333,1.4326,1.4312,1.4346,1.4319,1.4306,1.4299,1.4299,1.4299,1.4272,1.4197,1.4187,1.4098,1.396,1.3892,1.3822,1.372,1.3707,1.3619,1.3519,1.3464,1.3478,1.3464,1.3424,1.3397,1.3397,1.3397,1.3397,1.3397,1.3397,1.3397,1.3397,1.3397,1.3397,1.3397,1.3397,1.337,1.3336,1.3302,1.3241,1.301,1.2807,1.2853,1.263,1.2508,1.2454,1.2501,1.2501,1.2454,1.2447,1.2488,1.2488,1.2467,1.2508,1.2576,1.2569,1.2569,1.2508,1.2522,1.2515,0.8255,0.6179,0.3912,0.2974,0.2662,0.0863,0.0,0.0,0.0,0.0,0.0,0.0,0.0,0.0,0.0,0.0,0.0,0.0,0.0,0.0,0.0,0.0,0.0,0.0,0.0,0.0,0.0,0.0,0.0,0.0,0.3404,0.6367,0.86,1.0538,1.4033,1.4441,1.4434,1.4353,1.4462,1.4502,1.4489,1.4394,1.4394,1.4387,1.4346,1.4299,1.4299,1.4299,1.4306,1.434,1.4306,1.4299,1.4299,1.4299,1.4353,1.4462,1.436,1.4373,1.443,1.4367,1.4319,1.4319,1.4333,1.4312,1.4312,1.4278,1.4231,1.4136,1.4125,1.4,1.3878,1.3734,1.3774,1.3763,1.3634,1.3559,1.3587,1.3519,1.3485,1.3451,1.3417,1.3397,1.3397,1.3397,1.3397,1.3397,1.3397,1.3397,1.3397,1.3363,1.3349,1.3336,1.3295,1.3247,1.3166,1.2922,1.2773,1.2807,1.2752,1.2583,1.2501,1.2501,1.2501,1.2501,1.2501,1.2501,1.2501,1.2494,1.2535,1.2569,1.2637,1.263,1.2556,1.2501,1.2501,0.6161,0.399,0.192,0.1059,0.0941,0.0,0.0,0.0,0.0,0.0,0.0,0.0,0.0,0.0,0.0,0.0,0.0,0.0,0.0,0.0,0.0,0.0,0.0,0.0,0.0,0.0,0.0,0.0,0.0,0.1008,0.3746,0.6782,0.9896,1.2648,1.4051,1.4509,1.4509,1.4539,1.4599,1.4613,1.4645,1.4523,1.4428,1.4407,1.4346,1.4326,1.4319,1.4326,1.4367,1.4401,1.4373,1.4319,1.4312,1.4312,1.438,1.4462,1.4394,1.4367,1.4434,1.4401,1.4353,1.438,1.4353,1.4346,1.4414,1.434,1.4278,1.4231,1.4248,1.4156,1.4143,1.4116,1.4109,1.4007,1.3892,1.3824,1.379,1.3648,1.3566,1.349,1.3498,1.3444,1.3417,1.3444,1.3451,1.3424,1.3417,1.3403,1.3397,1.3302,1.3295,1.3268,1.3247,1.3193,1.3078,1.2847,1.2699,1.2766,1.2691,1.2542,1.2501,1.2501,1.2501,1.2501,1.2501,1.2501,1.2501,1.2501,1.2515,1.2556,1.2603,1.2617,1.2542,1.2501,1.2501,0.4381,0.2897,0.0867,0.0,0.0,0.0,0.0,0.0,0.0,0.0,0.0,0.0,0.0,0.0,0.0,0.0,0.0,0.0,0.0,0.0,0.0,0.0,0.0,0.0,0.0,0.0,0.0,0.0,0.0,0.1549,0.3998,0.744,1.1793,1.3604,1.4462,1.4523,1.4584,1.462,1.4674,1.476,1.4746,1.4679,1.455,1.4502,1.4462,1.4441,1.4407,1.4421,1.4462,1.4482,1.4441,1.4373,1.4373,1.4394,1.4475,1.4563,1.4611,1.457,1.4563,1.4543,1.4491,1.4532,1.4414,1.436,1.4414,1.434,1.4312,1.4292,1.4299,1.4292,1.4285,1.4292,1.4217,1.4146,1.4027,1.3953,1.3933,1.3797,1.3626,1.3592,1.3538,1.3477,1.3478,1.3485,1.3512,1.3478,1.3437,1.3424,1.3403,1.3308,1.3261,1.322,1.3173,1.3132,1.2976,1.2786,1.2718,1.2693,1.263,1.2508,1.2501,1.2501,1.2501,1.2501,1.2501,1.2501,1.2501,1.2508,1.2515,1.2515,1.2522,1.2522,1.2501,1.2501,1.2501,0.3053,0.2706,0.0834,0.0,0.0,0.0,0.0,0.0,0.0,0.0,0.0,0.0,0.0,0.0,0.0,0.0,0.0,0.0,0.0,0.0,0.0,0.0,0.0,0.0,0.0,0.0,0.0,0.0,0.0,0.1913,0.4198,0.7814,1.2376,1.396,1.4441,1.4489,1.457,1.464,1.4787,1.4841,1.4869,1.4814,1.4726,1.4626,1.4606,1.4559,1.4539,1.4566,1.4618,1.4597,1.4536,1.4523,1.4516,1.4516,1.4713,1.4848,1.4949,1.4841,1.476,1.4713,1.464,1.462,1.4468,1.436,1.4326,1.434,1.4306,1.4299,1.4299,1.4299,1.4299,1.4245,1.419,1.4109,1.4034,1.4021,1.4048,1.3953,1.3774,1.3693,1.3639,1.3599,1.3592,1.3592,1.3627,1.3551,1.3518,1.3485,1.3451,1.3342,1.3302,1.3207,1.3132,1.3023,1.2847,1.2725,1.2644,1.2637,1.2596,1.2501,1.2501,1.2501,1.2501,1.2501,1.2501,1.2501,1.2501,1.2501,1.2501,1.2501,1.2528,1.2522,1.2528,1.2508,1.2501,0.2232,0.0863,0.0236,0.0,0.0,0.0,0.0,0.0,0.0,0.0,0.0,0.0,0.0,0.0,0.0,0.0,0.0,0.0,0.0,0.0,0.0,0.0,0.0,0.0,0.0,0.0,0.0,0.0,0.0,0.2552,0.7194,1.2192,1.3312,1.4162,1.4353,1.4367,1.4529,1.4633,1.4794,1.4896,1.4957,1.4923,1.4848,1.4787,1.4735,1.4687,1.4674,1.4687,1.476,1.4814,1.4674,1.4633,1.4672,1.4626,1.4714,1.4787,1.4875,1.4943,1.4896,1.4801,1.4708,1.4694,1.4525,1.4444,1.4428,1.4373,1.4319,1.4319,1.4326,1.434,1.434,1.4292,1.4245,1.419,1.4143,1.415,1.4163,1.4095,1.396,1.3892,1.3788,1.3747,1.3741,1.3741,1.3727,1.3693,1.3639,1.3607,1.3498,1.3397,1.3254,1.3193,1.3105,1.2956,1.284,1.2718,1.2617,1.2542,1.2515,1.2508,1.2522,1.2522,1.2508,1.2501,1.2501,1.2501,1.2501,1.2501,1.2501,1.2556,1.2576,1.2562,1.2549,1.2576,1.2569,0.1137,0.0,0.0,0.0,0.0,0.0,0.0,0.0,0.0,0.0,0.0,0.0,0.0,0.0,0.0,0.0,0.0,0.0,0.0,0.0,0.0,0.0,0.0,0.0,0.0,0.0,0.0,0.0,0.0,0.474,0.9197,1.2148,1.354,1.4255,1.4306,1.4326,1.4387,1.457,1.4733,1.4882,1.5003,1.5057,1.4957,1.4875,1.4869,1.4875,1.4848,1.4862,1.4936,1.5017,1.4855,1.4835,1.4848,1.4875,1.487,1.4957,1.5004,1.5112,1.5085,1.4984,1.4903,1.4828,1.474,1.4679,1.4536,1.4434,1.4401,1.438,1.4387,1.4387,1.4387,1.4373,1.434,1.4299,1.4292,1.4292,1.4251,1.4211,1.4136,1.4061,1.4007,1.3953,1.3933,1.3889,1.3919,1.3892,1.3788,1.37,1.3614,1.3464,1.3275,1.3159,1.3037,1.2935,1.2827,1.2739,1.2657,1.2576,1.2508,1.2515,1.2542,1.2542,1.2528,1.2515,1.2501,1.2515,1.2549,1.2515,1.2515,1.2589,1.2652,1.2732,1.2759,1.2826,1.2805,0.0,0.0,0.0,0.0,0.0,0.0,0.0,0.0,0.0,0.0,0.0,0.0,0.0,0.0,0.0,0.0,0.0,0.0,0.0,0.0,0.0,0.0,0.0,0.0,0.0,0.0,0.0,0.0,0.0,0.5142,0.853,1.0895,1.3179,1.4255,1.4299,1.4299,1.434,1.4401,1.4604,1.478,1.4943,1.5098,1.5173,1.5031,1.5065,1.5113,1.5091,1.5105,1.516,1.5031,1.497,1.5003,1.5018,1.5072,1.5126,1.5147,1.514,1.514,1.5194,1.5113,1.5052,1.4997,1.501,1.4841,1.4672,1.4489,1.4434,1.4482,1.4457,1.4464,1.4464,1.4516,1.4496,1.4421,1.4373,1.434,1.4285,1.4251,1.4217,1.4163,1.4136,1.4089,1.4089,1.4089,1.4089,1.4055,1.3973,1.3835,1.3734,1.3614,1.3417,1.3227,1.3125,1.3057,1.2874,1.2793,1.2718,1.2637,1.2589,1.2617,1.2718,1.2657,1.2556,1.261,1.271,1.261,1.261,1.2623,1.2664,1.2732,1.2827,1.2915,1.2963,1.303,1.3016,0.0,0.0,0.0,0.0,0.0,0.0,0.0,0.0,0.0,0.0,0.0,0.0,0.0,0.0,0.0,0.0,0.0,0.0,0.0,0.0,0.0,0.0,0.0,0.0,0.0,0.0,0.0,0.1882,0.4561,0.6837,0.9335,1.2952,1.4299,1.4299,1.4299,1.4299,1.4306,1.4319,1.4482,1.4613,1.4794,1.5025,1.5153,1.5133,1.5167,1.5207,1.5146,1.5045,1.5099,1.5146,1.5011,1.5038,1.5126,1.516,1.5181,1.5181,1.5181,1.5181,1.5181,1.5174,1.516,1.5031,1.501,1.4875,1.474,1.4563,1.4509,1.459,1.4579,1.4586,1.4599,1.4652,1.4631,1.4543,1.4462,1.4394,1.4333,1.4312,1.4292,1.4272,1.4251,1.4231,1.4224,1.4238,1.4245,1.419,1.4095,1.4014,1.3973,1.3851,1.3722,1.3519,1.337,1.3247,1.3017,1.2888,1.284,1.2827,1.2839,1.288,1.2935,1.2847,1.2793,1.2873,1.2907,1.2833,1.2773,1.2887,1.2928,1.2908,1.2969,1.3057,1.3152,1.3193,1.3214,0.0,0.0,0.0,0.0,0.0,0.0,0.0,0.0,0.0,0.0,0.0,0.0,0.0,0.0,0.0,0.0,0.0,0.0,0.0,0.0,0.0,0.0,0.0,0.0,0.0,0.0,0.0,0.358,0.6704,0.8708,1.0895,1.3805,1.4299,1.4299,1.4299,1.4299,1.4299,1.4306,1.4441,1.4505,1.4613,1.4855,1.5079,1.5106,1.5133,1.5133,1.5173,1.5052,1.5078,1.5105,1.5044,1.5044,1.5072,1.514,1.5174,1.5181,1.5181,1.5181,1.5181,1.5167,1.5187,1.5126,1.5059,1.5004,1.4984,1.4835,1.4753,1.4808,1.4706,1.4647,1.4794,1.4828,1.4753,1.462,1.4579,1.4539,1.4516,1.4468,1.4441,1.4401,1.4346,1.4251,1.4258,1.4292,1.4319,1.4387,1.4278,1.4204,1.415,1.4102,1.3966,1.3844,1.3695,1.3363,1.3071,1.3016,1.3043,1.3037,1.3071,1.3016,1.3016,1.3064,1.3091,1.3057,1.3023,1.2975,1.2982,1.3043,1.3077,1.3044,1.3112,1.3241,1.3295,1.3397,1.3383,0.0,0.0,0.0,0.0,0.0,0.0,0.0,0.0,0.0,0.0,0.0,0.0,0.0,0.0,0.0,0.0,0.0,0.0,0.0,0.0,0.0,0.0,0.0,0.0,0.0,0.0,0.0,0.4161,0.7012,0.8664,1.054,1.3489,1.4299,1.4299,1.4299,1.4299,1.4299,1.4319,1.4401,1.4475,1.4518,1.462,1.4896,1.5018,1.5038,1.5025,1.5059,1.5057,1.4976,1.5023,1.503,1.503,1.5057,1.5079,1.5147,1.5167,1.5181,1.5181,1.5181,1.5181,1.5174,1.5167,1.5181,1.5167,1.5133,1.5112,1.503,1.493,1.4828,1.4814,1.4923,1.497,1.4882,1.4741,1.4714,1.4687,1.462,1.4559,1.4563,1.4523,1.4421,1.4312,1.4353,1.4387,1.4414,1.4489,1.4496,1.4428,1.436,1.4306,1.4217,1.4129,1.4021,1.3634,1.3261,1.3227,1.3288,1.3295,1.3315,1.3159,1.3071,1.3166,1.3186,1.3146,1.3105,1.3132,1.3118,1.3152,1.318,1.3214,1.3295,1.3397,1.3512,1.3551,1.36,0.0,0.0,0.0,0.0,0.0,0.0,0.0,0.0,0.0,0.0,0.0,0.0,0.0,0.0,0.0,0.0,0.0,0.0,0.0,0.0,0.0,0.0,0.0,0.0,0.0,0.0,0.1476,0.3356,0.6923,0.8129,1.0135,1.4033,1.4299,1.4299,1.4299,1.4299,1.4299,1.4319,1.4333,1.4394,1.4523,1.4645,1.4821,1.4882,1.4869,1.4909,1.4903,1.4733,1.4794,1.4889,1.5003,1.4996,1.501,1.4984,1.5038,1.5106,1.5126,1.5153,1.5147,1.5167,1.5174,1.5181,1.5181,1.5181,1.5133,1.5072,1.5078,1.5105,1.4991,1.497,1.5085,1.5126,1.5025,1.4896,1.4828,1.4741,1.4687,1.4647,1.4652,1.459,1.4502,1.4509,1.4545,1.457,1.4489,1.455,1.4584,1.4523,1.4496,1.4475,1.4455,1.438,1.4299,1.4052,1.377,1.3634,1.3661,1.3654,1.3572,1.3505,1.3417,1.3363,1.3349,1.3288,1.3302,1.3336,1.3315,1.3288,1.3383,1.3471,1.3526,1.3607,1.368,1.372,1.3693]},{"header":{"parameterUnit":"m.s-1","parameterCategory":1,"la1":31.0,"la2":29.5877,"lo1":-88.7671,"lo2":-86.6584,"dy":0.0162,"dx":0.0185,"nx":115,"ny":88,"refTime":"2023-10-02T18:00:00:Z","depth":0,"parameterNumber":3,"parameterNumberName":"V-component_of_WINDS"},"data":[0.0,0.0,0.0,0.0,0.0,0.0,0.0,0.0,0.0,0.0,0.0,0.0,0.0,0.0,0.0,0.0,0.0,0.0,0.0,0.0,0.0,0.0,0.0,0.0,0.0,0.0,0.0,0.0,0.0,0.0,0.0,0.0,0.0,0.0,0.0,0.0,0.0,0.0,0.0,0.0,0.0,0.0,0.0,0.0,0.0,0.0,0.0,0.0,0.0,0.0,0.0,0.0,0.0,0.0,0.0,0.0,0.0,0.0,0.0,0.0,0.0,0.0,0.0,0.0,0.0,0.0,0.0,0.0,0.0,0.0,0.0,0.0,0.0,0.0,0.0,0.0,0.0,0.0,0.0,0.0,0.0,0.0,0.0,0.0,0.0,0.0,0.0,0.0,0.0,0.0,0.0,0.0,0.0,0.0,0.0,0.0,0.0,0.0,0.0,0.0,0.0,0.0,0.0,0.0,0.0,0.0,0.0,0.0,0.0,0.0,0.0,0.0,0.0,0.0,0.0,0.0,0.0,0.0,0.0,0.0,0.0,0.0,0.0,0.0,0.0,0.0,0.0,0.0,0.0,0.0,0.0,0.0,0.0,0.0,0.0,0.0,0.0,0.0,0.0,0.0,0.0,0.0,0.0,0.0,0.0,0.0,0.0,0.0,0.0,0.0,0.0,0.0,0.0,0.0,0.0,0.0,0.0,0.0,0.0,0.0,0.0,0.0,0.0,0.0,0.0,0.0,0.0,0.0,0.0,0.0,0.0,0.0,0.0,0.0,0.0,0.0,0.0,0.0,0.0,0.0,0.0,0.0,0.0,0.0,0.0,0.0,0.0,0.0,0.0,0.0,0.0,0.0,0.0,0.0,0.0,0.0,0.0,0.0,0.0,0.0,0.0,0.0,0.0,0.0,0.0,0.0,0.0,0.0,0.0,0.0,0.0,0.0,0.0,0.0,0.0,0.0,0.0,0.0,0.0,0.0,0.0,0.0,0.0,0.0,0.0,0.0,0.0,0.0,0.0,0.0,0.0,0.0,0.0,0.0,0.0,0.0,0.0,0.0,0.0,0.0,0.0,0.0,0.0,0.0,0.0,0.0,0.0,0.0,0.0,0.0,0.0,0.0,0.0,0.0,0.0,0.0,0.0,0.0,0.0,0.0,0.0,0.0,0.0,0.0,0.0,0.0,0.0,0.0,0.0,0.0,0.0,0.0,0.0,0.0,0.0,0.0,0.0,0.0,0.0,0.0,0.0,0.0,0.0,0.0,0.0,0.0,0.0,0.0,0.0,0.0,0.0,0.0,0.0,0.0,0.0,0.0,0.0,0.0,0.0,0.0,0.0,0.0,0.0,0.0,0.0,0.0,0.0,0.0,0.0,0.0,0.0,0.0,0.0,0.0,0.0,0.0,0.0,0.0,0.0,0.0,0.0,0.0,0.0,0.0,0.0,0.0,0.0,0.0,0.0,0.0,0.0,0.0,0.0,0.0,0.0,0.0,0.0,0.0,0.0,0.0,0.0,0.0,0.0,0.0,0.0,0.0,0.0,0.0,0.0,0.0,0.0,0.0,0.0,0.0,0.0,0.0,0.0,0.0,0.0,0.0,0.0,0.0,0.0,0.0,0.0,0.0,0.0,0.0,0.0,0.0,0.0,0.0,0.0,0.0,0.0,0.0,0.0,0.0,0.0,0.0,0.0,0.0,0.0,0.0,0.0,0.0,0.0,0.0,0.0,0.0,0.0,0.0,0.0,0.0,0.0,0.0,0.0,0.0,0.0,0.0,0.0,0.0,0.0,0.0,0.0,0.0,0.0,0.0,0.0,0.0,0.0,0.0,0.0,0.0,0.0,0.0,0.0,0.0,0.0,0.0,0.0,0.0,0.0,0.0,0.0,0.0,0.0,0.0,0.0,0.0,0.0,0.0,0.0,0.0,0.0,0.0,0.0,0.0,0.0,0.0,0.0,0.0,0.0,0.0,0.0,0.0,0.0,0.0,0.0,0.0,0.0,0.0,0.0,0.0,0.0,0.0,0.0,0.0,0.0,0.0,0.0,0.0,0.0,0.0,0.0,0.0,0.0,0.0,0.0,0.0,0.0,0.0,0.0,0.0,0.0,0.0,0.0,0.0,0.0,0.0,0.0,0.0,0.0,0.0,0.0,0.0,0.0,0.0,0.0,0.0,0.0,0.0,0.0,0.0,0.0,0.0,0.0,0.0,0.0,0.0,0.0,0.0,0.0,0.0,0.0,0.0,0.0,0.0,0.0,0.0,0.0,0.0,0.0,0.0,0.0,0.0,0.0,0.0,0.0,0.0,0.0,0.0,0.0,0.0,0.0,0.0,0.0,0.0,0.0,0.0,0.0,0.0,0.0,0.0,0.0,0.0,0.0,0.0,0.0,0.0,0.0,0.0,0.0,0.0,0.0,0.0,0.0,0.0,0.0,0.0,0.0,0.0,0.0,0.0,0.0,0.0,0.0,0.0,0.0,0.0,0.0,0.0,0.0,0.0,0.0,0.0,0.0,0.0,0.0,0.0,0.0,0.0,0.0,0.0,0.0,0.0,0.0,0.0,0.0,0.0,0.0,0.0,0.0,0.0,0.0,0.0,0.0,0.0,0.0,0.0,0.0,0.0,0.0,0.0,0.0,0.0,0.0,0.0,0.0,0.0,0.0,0.0,0.0,0.0,0.0,0.0,0.0,0.0,0.0,0.0,0.0,0.0,0.0,0.0,0.0,0.0,0.0,0.0,0.0,0.0,0.0,0.0,0.0,0.0,0.0,0.0,0.0,0.0,0.0,0.0,0.0,0.0,0.0,0.0,0.0,0.0,0.0,0.0,0.0,0.0,0.0,0.0,0.0,0.0,0.0,0.0,0.0,0.0,0.0,0.0,0.0,0.0,0.0,0.0,0.0,0.0,0.0,0.0,0.0,0.0,0.0,0.0,0.0,0.0,0.0,0.0,0.0,0.0,0.0,0.0,0.0,0.0,0.0,0.0,0.0,0.0,0.0,0.0,0.0,0.0,0.0,0.0,0.0,0.0,0.0,0.0,0.0,0.0,0.0,0.0,0.0,0.0,0.0,0.0,0.0,0.0,0.0,0.0,0.0,0.0,0.0,0.0,0.0,0.0,0.0,0.0,0.0,0.0,0.0,0.0,0.0,0.0,0.0,0.0,0.0,0.0,0.0,0.0,0.0,0.0,0.0,0.0,0.0,0.0,0.0,0.0,0.0,0.0,0.0,0.0,0.0,0.0,0.0,0.0,0.0,0.0,0.0,0.0,0.0,0.0,0.0,0.0,0.0,0.0,0.0,0.0,0.0,0.0,0.0,0.0,0.0,0.0,0.0,0.0,0.0,0.0,0.0,0.0,0.0,0.0,0.0,0.0,0.0,0.0,0.0,0.0,0.0,0.0,0.0,0.0,0.0,0.0,0.0,0.0,0.0,0.0,0.0,0.0,0.0,0.0,0.0,0.0,0.0,0.0,0.0,0.0,0.0,0.0,0.0,0.0,0.0,0.0,0.0,0.0,0.0,0.0,0.0,0.0,0.0,0.0,0.0,0.0,0.0,0.0,0.0,0.0,0.0,0.0,0.0,0.0,0.0,0.0,0.0,0.0,0.0,0.0,0.0,0.0,0.0,0.0,0.0,0.0,0.0,0.0,0.0,0.0,0.0,0.0,0.0,0.0,0.0,0.0,0.0,0.0,0.0,0.0,0.0,0.0,0.0,0.0,0.0,0.0,0.0,0.0,0.0,0.0,0.0,0.0,0.0,0.0,0.0,0.0,0.0,0.0,0.0,0.0,0.0,0.0,0.0,0.0,0.0,0.0,0.0,0.0,0.0,0.0,0.0,0.0,0.0,0.0,0.0,0.0,0.0,0.0,0.0,0.0,0.0,0.0,0.0,0.0,0.0,0.0,0.0,0.0,0.0,0.0,0.0,0.0,0.0,0.0,0.0,0.0,0.0,0.0,0.0,0.0,0.0,0.0,0.0,0.0,0.0,0.0,0.0,0.0,0.0,0.0,0.0,0.0,0.0,0.0,0.0,0.0,0.0,0.0,0.0,0.0,0.0,0.0,0.0,0.0,0.0,0.0,0.0,0.0,0.0,0.0,0.0,0.0,0.0,0.0,0.0,0.0,0.0,0.0,0.0,0.0,0.0,0.0,0.0,0.0,0.0,0.0,0.0,0.0,0.0,0.0,0.0,0.0,0.0,0.0,0.0,0.0,0.0,0.0,0.0,0.0,0.0,0.0,0.0,0.0,0.0,0.0,0.0,0.0,0.0,0.0,3.6016,0.0,0.0,0.0,0.0,0.0,0.0,0.0,0.0,0.0,0.0,0.0,0.0,0.0,0.0,0.0,0.0,0.0,0.0,0.0,0.0,0.0,0.0,0.0,0.0,0.0,0.0,0.0,0.0,0.0,0.0,0.0,0.0,0.0,0.0,0.0,0.0,0.0,0.0,0.0,0.0,0.0,0.0,0.0,0.0,0.0,0.0,0.0,0.0,0.0,0.0,0.0,0.0,0.0,0.0,0.0,0.0,0.0,0.0,0.0,0.0,0.0,0.0,0.0,0.0,0.0,0.0,0.0,0.0,0.0,0.0,0.0,0.0,0.0,0.0,0.0,0.0,0.0,0.0,0.0,0.0,0.0,0.0,0.0,0.0,0.0,0.0,0.0,0.0,0.0,0.0,0.0,0.0,0.0,0.0,0.0,0.0,0.0,0.0,0.0,0.0,0.0,0.0,0.0,0.0,0.0,0.0,0.0,0.0,0.0,0.0,3.6016,3.6016,3.6016,3.6016,3.6016,0.0,0.0,0.0,0.0,0.0,0.0,0.0,0.0,0.0,0.0,0.0,0.0,0.0,0.0,0.0,0.0,0.0,0.0,0.0,0.0,0.0,0.0,0.0,0.0,0.0,0.0,0.0,0.0,0.0,0.0,0.0,0.0,0.0,0.0,0.0,0.0,0.0,0.0,0.0,0.0,0.0,0.0,0.0,0.0,0.0,0.0,0.0,0.0,0.0,0.0,0.0,0.0,0.0,0.0,0.0,0.0,0.0,0.0,0.0,0.0,0.0,0.0,0.0,0.0,0.0,0.0,0.0,0.0,0.0,0.0,0.0,0.0,0.0,0.0,0.0,0.0,0.0,0.0,0.0,0.0,0.0,0.0,0.0,0.0,0.0,0.0,0.0,0.0,0.0,0.0,0.0,0.0,0.0,0.0,0.0,0.0,0.0,0.0,0.0,0.0,0.0,0.0,0.0,0.0,0.0,0.0,0.0,0.0,0.0,0.0,0.0,0.0,3.6016,3.6016,3.6016,0.0,0.0,0.0,0.0,0.0,0.0,0.0,0.0,0.0,0.0,0.0,0.0,0.0,0.0,0.0,0.0,0.0,0.0,0.0,0.0,0.0,0.0,0.0,0.0,0.0,0.0,0.0,0.0,0.0,0.0,0.0,0.0,0.0,0.0,0.0,0.0,0.0,0.0,0.0,0.0,0.0,0.0,0.0,0.0,0.0,0.0,0.0,0.0,0.0,0.0,0.0,0.0,0.0,0.0,0.0,0.0,0.0,0.0,0.0,0.0,0.0,0.0,0.0,0.0,0.0,0.0,0.0,0.0,0.0,0.0,0.0,0.0,0.0,0.0,0.0,0.0,0.0,0.0,0.0,0.0,0.0,0.0,0.0,0.0,0.0,0.0,0.0,0.0,0.0,0.0,0.0,0.0,0.0,0.0,0.0,0.0,0.0,0.0,0.0,0.0,0.0,0.0,0.0,0.0,0.0,0.0,0.0,0.0,0.0,0.0,3.6016,3.6016,3.6016,0.0,3.6016,0.0,0.0,0.0,0.0,0.0,0.0,0.0,0.0,0.0,0.0,0.0,0.0,0.0,0.0,0.0,0.0,0.0,0.0,0.0,0.0,0.0,0.0,0.0,0.0,0.0,0.0,0.0,0.0,0.0,0.0,0.0,0.0,0.0,0.0,0.0,0.0,0.0,0.0,0.0,0.0,0.0,0.0,0.0,0.0,0.0,0.0,0.0,0.0,0.0,0.0,0.0,0.0,0.0,0.0,0.0,0.0,0.0,0.0,0.0,0.0,0.0,0.0,0.0,0.0,0.0,0.0,0.0,0.0,0.0,0.0,0.0,0.0,0.0,0.0,0.0,0.0,0.0,0.0,0.0,0.0,0.0,0.0,0.0,0.0,0.0,0.0,0.0,0.0,0.0,0.0,0.0,0.0,0.0,0.0,0.0,0.0,0.0,0.0,0.0,0.0,0.0,0.0,0.0,0.0,0.0,0.0,0.0,0.0,0.0,0.0,3.6016,3.6016,3.6016,3.6016,0.0,0.0,0.0,0.0,0.0,0.0,0.0,0.0,0.0,0.0,0.0,0.0,0.0,0.0,0.0,0.0,0.0,0.0,0.0,0.0,0.0,0.0,0.0,0.0,0.0,0.0,0.0,0.0,0.0,0.0,0.0,0.0,0.0,0.0,0.0,0.0,0.0,0.0,0.0,0.0,0.0,0.0,0.0,0.0,0.0,0.0,0.0,0.0,0.0,0.0,0.0,0.0,0.0,0.0,0.0,0.0,0.0,0.0,0.0,0.0,0.0,0.0,0.0,0.0,0.0,0.0,0.0,0.0,0.0,0.0,0.0,0.0,0.0,0.0,0.0,0.0,0.0,0.0,0.0,0.0,0.0,0.0,0.0,0.0,0.0,0.0,0.0,0.0,0.0,0.0,0.0,0.0,0.0,0.0,0.0,0.0,0.0,0.0,0.0,0.0,0.0,0.0,0.0,0.0,0.0,0.0,0.0,0.0,0.0,0.0,3.6016,3.6016,3.6016,3.6016,3.6016,3.6016,0.0,0.0,0.0,0.0,0.0,0.0,0.0,0.0,0.0,0.0,0.0,0.0,0.0,0.0,0.0,0.0,0.0,0.0,0.0,0.0,0.0,0.0,0.0,0.0,0.0,0.0,0.0,0.0,0.0,0.0,0.0,0.0,0.0,0.0,0.0,0.0,0.0,0.0,0.0,0.0,0.0,0.0,0.0,0.0,0.0,0.0,0.0,0.0,0.0,0.0,0.0,0.0,0.0,0.0,0.0,0.0,0.0,0.0,0.0,0.0,0.0,0.0,0.0,0.0,0.0,0.0,0.0,0.0,0.0,0.0,0.0,0.0,0.0,0.0,0.0,0.0,0.0,0.0,0.0,0.0,0.0,0.0,0.0,0.0,0.0,0.0,0.0,0.0,0.0,0.0,0.0,0.0,0.0,0.0,0.0,0.0,0.0,0.0,0.0,0.0,0.0,0.0,0.0,0.0,0.0,0.0,0.0,0.0,3.6016,3.6016,3.6016,3.6016,3.6016,3.6016,0.0,0.0,0.0,0.0,0.0,0.0,0.0,0.0,0.0,0.0,0.0,0.0,0.0,0.0,0.0,0.0,0.0,0.0,0.0,0.0,0.0,0.0,0.0,0.0,0.0,0.0,0.0,0.0,0.0,0.0,0.0,0.0,0.0,0.0,0.0,0.0,0.0,0.0,0.0,0.0,0.0,0.0,0.0,0.0,0.0,0.0,0.0,0.0,0.0,0.0,0.0,0.0,0.0,0.0,0.0,0.0,0.0,0.0,0.0,0.0,0.0,0.0,0.0,0.0,0.0,0.0,0.0,0.0,0.0,0.0,0.0,0.0,0.0,0.0,0.0,0.0,0.0,0.0,0.0,0.0,0.0,0.0,0.0,0.0,0.0,0.0,0.0,0.0,0.0,0.0,0.0,0.0,0.0,0.0,0.0,0.0,0.0,0.0,0.0,0.0,0.0,0.0,0.0,0.0,0.0,0.0,0.0,0.0,0.0,3.6015,3.6015,3.6015,3.6016,3.6016,3.6016,0.0,0.0,0.0,0.0,0.0,0.0,0.0,0.0,0.0,0.0,0.0,0.0,0.0,0.0,0.0,0.0,0.0,0.0,0.0,0.0,0.0,0.0,0.0,0.0,0.0,0.0,0.0,0.0,0.0,0.0,0.0,0.0,0.0,0.0,0.0,0.0,0.0,0.0,0.0,0.0,0.0,0.0,0.0,0.0,0.0,0.0,0.0,0.0,0.0,0.0,0.0,0.0,0.0,0.0,0.0,0.0,0.0,0.0,0.0,0.0,0.0,0.0,0.0,0.0,0.0,0.0,0.0,0.0,0.0,0.0,0.0,0.0,0.0,0.0,0.0,0.0,0.0,0.0,0.0,0.0,0.0,0.0,0.0,0.0,0.0,0.0,0.0,0.0,0.0,0.0,0.0,0.0,0.0,0.0,0.0,0.0,0.0,0.0,0.0,0.0,0.0,0.0,0.0,0.0,0.0,0.0,0.0,0.0,0.0,3.6405,0.0,3.6444,3.6445,3.6406,3.6288,0.0,0.0,0.0,0.0,0.0,0.0,0.0,0.0,0.0,0.0,0.0,0.0,0.0,0.0,0.0,0.0,0.0,0.0,0.0,0.0,0.0,0.0,0.0,0.0,0.0,0.0,0.0,0.0,0.0,0.0,0.0,0.0,0.0,0.0,0.0,0.0,0.0,0.0,0.0,0.0,0.0,0.0,0.0,0.0,0.0,0.0,0.0,0.0,0.0,0.0,0.0,0.0,0.0,0.0,0.0,0.0,0.0,0.0,0.0,0.0,0.0,0.0,0.0,0.0,0.0,0.0,0.0,0.0,0.0,0.0,0.0,0.0,0.0,0.0,0.0,0.0,0.0,0.0,0.0,0.0,0.0,0.0,0.0,0.0,0.0,0.0,0.0,0.0,0.0,0.0,0.0,0.0,0.0,0.0,0.0,0.0,0.0,0.0,0.0,0.0,0.0,0.0,0.0,0.0,0.0,0.0,0.0,0.0,3.6442,3.7264,3.7339,3.7379,3.7342,3.734,3.6908,0.0,0.0,0.0,0.0,0.0,0.0,0.0,0.0,0.0,0.0,0.0,0.0,0.0,0.0,0.0,0.0,0.0,0.0,0.0,0.0,0.0,0.0,0.0,0.0,0.0,0.0,0.0,0.0,0.0,0.0,0.0,0.0,0.0,0.0,0.0,0.0,0.0,0.0,0.0,0.0,0.0,0.0,0.0,0.0,0.0,0.0,0.0,0.0,0.0,0.0,0.0,0.0,0.0,0.0,0.0,0.0,0.0,0.0,0.0,0.0,0.0,0.0,0.0,0.0,0.0,0.0,0.0,0.0,0.0,0.0,0.0,0.0,0.0,0.0,0.0,0.0,0.0,0.0,0.0,0.0,0.0,0.0,0.0,0.0,0.0,0.0,0.0,0.0,0.0,0.0,0.0,0.0,0.0,0.0,0.0,0.0,0.0,0.0,0.0,0.0,0.0,0.0,0.0,0.0,0.0,0.0,0.0,0.0,0.0,3.8195,3.8785,3.9099,3.91,3.9099,3.8396,0.0,0.0,0.0,0.0,0.0,0.0,0.0,0.0,0.0,0.0,0.0,0.0,0.0,0.0,0.0,0.0,0.0,0.0,0.0,0.0,0.0,0.0,0.0,0.0,0.0,0.0,0.0,0.0,0.0,0.0,0.0,0.0,0.0,0.0,0.0,0.0,0.0,0.0,0.0,0.0,0.0,0.0,0.0,0.0,0.0,0.0,0.0,0.0,0.0,0.0,0.0,0.0,0.0,0.0,0.0,0.0,0.0,0.0,0.0,0.0,0.0,0.0,0.0,0.0,0.0,0.0,0.0,0.0,0.0,0.0,0.0,0.0,0.0,0.0,0.0,0.0,0.0,0.0,0.0,0.0,0.0,0.0,0.0,0.0,0.0,0.0,0.0,0.0,0.0,0.0,0.0,0.0,0.0,0.0,0.0,0.0,0.0,0.0,0.0,0.0,0.0,0.0,0.0,0.0,0.0,0.0,0.0,0.0,0.0,4.1433,4.1673,4.1793,4.1795,4.1481,4.0348,3.8357,0.0,0.0,0.0,0.0,0.0,0.0,0.0,0.0,0.0,0.0,0.0,0.0,0.0,0.0,0.0,0.0,0.0,0.0,0.0,0.0,0.0,0.0,0.0,0.0,0.0,0.0,0.0,0.0,0.0,0.0,0.0,0.0,0.0,0.0,0.0,0.0,0.0,0.0,0.0,0.0,0.0,0.0,0.0,0.0,0.0,0.0,0.0,0.0,0.0,0.0,0.0,0.0,0.0,0.0,0.0,0.0,0.0,0.0,0.0,0.0,0.0,0.0,0.0,0.0,0.0,0.0,0.0,0.0,0.0,0.0,0.0,0.0,0.0,0.0,0.0,0.0,0.0,0.0,0.0,0.0,0.0,0.0,0.0,0.0,0.0,0.0,0.0,0.0,0.0,0.0,0.0,0.0,0.0,0.0,0.0,0.0,0.0,0.0,0.0,0.0,0.0,0.0,0.0,0.0,0.0,0.0,0.0,0.0,4.6622,4.592,4.5498,4.5272,4.4408,4.2725,0.0,0.0,0.0,0.0,0.0,0.0,0.0,0.0,0.0,0.0,0.0,0.0,0.0,0.0,0.0,0.0,0.0,0.0,0.0,0.0,0.0,0.0,0.0,0.0,0.0,0.0,0.0,0.0,0.0,0.0,0.0,0.0,0.0,0.0,0.0,0.0,0.0,0.0,0.0,0.0,0.0,0.0,0.0,0.0,0.0,0.0,0.0,0.0,0.0,0.0,0.0,0.0,0.0,0.0,0.0,0.0,0.0,0.0,0.0,0.0,0.0,0.0,0.0,0.0,0.0,0.0,0.0,0.0,0.0,0.0,0.0,0.0,0.0,0.0,0.0,0.0,0.0,0.0,0.0,0.0,0.0,0.0,0.0,0.0,0.0,0.0,0.0,0.0,0.0,0.0,0.0,0.0,0.0,0.0,0.0,0.0,0.0,0.0,0.0,0.0,0.0,0.0,0.0,0.0,0.0,0.0,0.0,0.0,0.0,5.0641,5.1866,5.1294,4.8943,4.7378,4.5384,0.0,0.0,0.0,0.0,0.0,0.0,0.0,0.0,0.0,0.0,0.0,0.0,0.0,0.0,0.0,0.0,0.0,0.0,0.0,0.0,0.0,0.0,0.0,0.0,0.0,0.0,0.0,0.0,0.0,0.0,0.0,0.0,0.0,0.0,0.0,0.0,0.0,0.0,0.0,0.0,0.0,0.0,0.0,0.0,0.0,0.0,0.0,0.0,0.0,0.0,0.0,0.0,0.0,0.0,0.0,0.0,0.0,0.0,0.0,0.0,0.0,0.0,0.0,0.0,0.0,0.0,0.0,0.0,0.0,0.0,0.0,0.0,0.0,0.0,0.0,0.0,0.0,0.0,0.0,0.0,0.0,0.0,0.0,0.0,0.0,0.0,0.0,0.0,0.0,0.0,0.0,0.0,0.0,0.0,0.0,0.0,0.0,0.0,0.0,0.0,0.0,0.0,0.0,0.0,0.0,0.0,0.0,0.0,4.9846,5.3033,5.5539,5.5766,5.3515,5.0701,4.7965,0.0,0.0,0.0,0.0,0.0,0.0,0.0,0.0,0.0,0.0,0.0,0.0,0.0,0.0,0.0,0.0,0.0,0.0,0.0,0.0,0.0,0.0,0.0,0.0,0.0,0.0,0.0,0.0,0.0,0.0,0.0,0.0,0.0,0.0,0.0,0.0,0.0,0.0,0.0,0.0,0.0,0.0,0.0,0.0,0.0,0.0,0.0,0.0,0.0,0.0,0.0,0.0,0.0,0.0,0.0,0.0,0.0,0.0,0.0,0.0,0.0,0.0,0.0,0.0,0.0,0.0,0.0,0.0,0.0,0.0,0.0,0.0,0.0,0.0,0.0,0.0,0.0,0.0,0.0,0.0,0.0,0.0,0.0,0.0,0.0,0.0,0.0,0.0,0.0,0.0,0.0,0.0,0.0,0.0,0.0,0.0,0.0,0.0,0.0,0.0,0.0,0.0,0.0,0.0,0.0,0.0,0.0,0.0,5.2483,5.4477,5.7611,5.8904,5.8046,5.3944,5.0467,0.0,0.0,0.0,0.0,0.0,0.0,0.0,0.0,0.0,0.0,0.0,0.0,0.0,0.0,0.0,0.0,0.0,0.0,0.0,0.0,0.0,0.0,0.0,0.0,0.0,0.0,0.0,0.0,0.0,0.0,0.0,0.0,0.0,0.0,0.0,0.0,0.0,0.0,0.0,0.0,0.0,0.0,0.0,0.0,0.0,0.0,0.0,0.0,0.0,0.0,0.0,0.0,0.0,0.0,0.0,0.0,0.0,0.0,0.0,0.0,0.0,0.0,0.0,0.0,0.0,0.0,0.0,0.0,0.0,0.0,0.0,0.0,0.0,0.0,0.0,0.0,0.0,0.0,0.0,0.0,0.0,0.0,0.0,0.0,0.0,0.0,0.0,0.0,0.0,0.0,0.0,0.0,0.0,0.0,0.0,0.0,0.0,0.0,0.0,0.0,0.0,0.0,0.0,0.0,0.0,0.0,0.0,0.0,5.3908,5.7689,5.9118,5.9816,5.9688,5.5655,5.2224,0.0,0.0,0.0,0.0,0.0,0.0,0.0,0.0,0.0,0.0,0.0,0.0,0.0,0.0,0.0,0.0,0.0,0.0,0.0,0.0,0.0,0.0,0.0,0.0,0.0,0.0,0.0,0.0,0.0,0.0,0.0,0.0,0.0,0.0,0.0,0.0,0.0,0.0,0.0,0.0,0.0,0.0,0.0,0.0,0.0,0.0,0.0,0.0,4.4648,0.0,0.0,0.0,0.0,0.0,0.0,0.0,0.0,0.0,0.0,0.0,0.0,0.0,0.0,0.0,0.0,0.0,0.0,0.0,0.0,0.0,0.0,0.0,0.0,0.0,0.0,0.0,0.0,0.0,0.0,0.0,0.0,0.0,0.0,0.0,0.0,0.0,0.0,0.0,0.0,0.0,0.0,0.0,0.0,0.0,0.0,0.0,0.0,0.0,0.0,0.0,0.0,0.0,0.0,0.0,0.0,0.0,0.0,0.0,5.5193,5.8643,5.9963,6.0272,5.9445,5.695,5.4258,0.0,0.0,0.0,0.0,0.0,0.0,0.0,0.0,0.0,0.0,0.0,0.0,0.0,0.0,0.0,0.0,0.0,0.0,0.0,0.0,0.0,0.0,0.0,0.0,0.0,0.0,0.0,0.0,0.0,0.0,0.0,0.0,0.0,0.0,0.0,0.0,0.0,0.0,0.0,0.0,0.0,0.0,0.0,0.0,0.0,0.0,0.0,0.0,0.0,0.0,0.0,0.0,0.0,0.0,0.0,0.0,0.0,0.0,0.0,0.0,0.0,0.0,0.0,0.0,0.0,0.0,0.0,0.0,0.0,0.0,0.0,0.0,0.0,0.0,0.0,0.0,0.0,0.0,0.0,0.0,0.0,0.0,0.0,0.0,0.0,0.0,0.0,0.0,0.0,0.0,0.0,0.0,0.0,0.0,0.0,0.0,0.0,0.0,0.0,0.0,0.0,0.0,0.0,0.0,0.0,0.0,0.0,5.2825,5.6116,5.8635,6.0274,6.0332,5.8765,5.787,5.5926,5.2796,0.0,0.0,0.0,0.0,0.0,0.0,0.0,0.0,0.0,0.0,0.0,0.0,0.0,0.0,0.0,0.0,0.0,0.0,0.0,0.0,0.0,0.0,0.0,0.0,0.0,0.0,0.0,0.0,0.0,0.0,0.0,0.0,0.0,0.0,0.0,0.0,0.0,0.0,4.2988,4.4193,0.0,0.0,0.0,0.0,0.0,0.0,0.0,0.0,4.7355,0.0,0.0,0.0,0.0,0.0,0.0,0.0,0.0,0.0,0.0,0.0,0.0,0.0,0.0,0.0,0.0,0.0,0.0,0.0,0.0,0.0,0.0,0.0,0.0,0.0,0.0,0.0,0.0,0.0,0.0,0.0,0.0,0.0,0.0,0.0,0.0,0.0,0.0,0.0,0.0,0.0,0.0,0.0,0.0,0.0,0.0,0.0,0.0,0.0,0.0,0.0,0.0,0.0,0.0,0.0,0.0,5.0448,5.3244,5.5962,5.8604,5.9597,5.9594,5.8732,5.7907,5.5918,5.2612,0.0,0.0,0.0,0.0,0.0,0.0,0.0,0.0,0.0,0.0,0.0,0.0,0.0,0.0,0.0,0.0,0.0,0.0,0.0,0.0,0.0,0.0,0.0,0.0,0.0,0.0,0.0,0.0,0.0,0.0,0.0,0.0,0.0,0.0,0.0,0.0,0.0,0.0,0.0,4.7409,4.7923,0.0,0.0,0.0,0.0,0.0,0.0,0.0,0.0,4.8509,0.0,0.0,0.0,0.0,0.0,0.0,0.0,0.0,0.0,0.0,0.0,0.0,0.0,0.0,0.0,0.0,0.0,0.0,0.0,0.0,0.0,0.0,0.0,0.0,0.0,0.0,0.0,0.0,0.0,0.0,0.0,0.0,0.0,0.0,0.0,0.0,0.0,0.0,0.0,0.0,0.0,0.0,0.0,0.0,0.0,0.0,0.0,0.0,0.0,0.0,0.0,0.0,0.0,0.0,0.0,5.1288,5.4313,5.6922,5.9009,5.9442,5.9056,5.7864,5.7056,5.5087,0.0,0.0,0.0,0.0,0.0,0.0,0.0,0.0,0.0,0.0,0.0,0.0,0.0,0.0,0.0,0.0,0.0,0.0,0.0,0.0,0.0,0.0,0.0,0.0,0.0,0.0,0.0,0.0,0.0,0.0,0.0,0.0,0.0,0.0,0.0,0.0,0.0,0.0,0.0,0.0,4.9516,4.9946,5.1207,0.0,0.0,0.0,0.0,0.0,0.0,5.0356,5.0202,0.0,0.0,0.0,0.0,0.0,0.0,0.0,0.0,0.0,0.0,0.0,0.0,0.0,0.0,0.0,0.0,0.0,0.0,0.0,0.0,0.0,0.0,0.0,0.0,0.0,0.0,0.0,0.0,0.0,0.0,0.0,0.0,0.0,0.0,0.0,0.0,0.0,0.0,0.0,0.0,0.0,0.0,0.0,0.0,0.0,0.0,0.0,0.0,0.0,0.0,0.0,0.0,0.0,0.0,0.0,5.1856,5.5269,5.7736,5.9165,5.9242,5.855,5.706,5.5915,5.3923,0.0,0.0,0.0,0.0,0.0,0.0,0.0,0.0,0.0,0.0,0.0,0.0,0.0,0.0,0.0,0.0,0.0,0.0,0.0,0.0,0.0,0.0,0.0,0.0,0.0,0.0,0.0,0.0,0.0,0.0,0.0,0.0,0.0,0.0,0.0,0.0,0.0,0.0,0.0,0.0,0.0,5.1746,5.3246,5.2851,0.0,0.0,0.0,0.0,5.1207,5.2164,0.0,0.0,0.0,0.0,0.0,0.0,0.0,0.0,0.0,0.0,0.0,0.0,0.0,0.0,0.0,0.0,0.0,0.0,0.0,0.0,0.0,0.0,0.0,0.0,0.0,0.0,0.0,0.0,0.0,0.0,0.0,0.0,0.0,0.0,0.0,0.0,0.0,0.0,0.0,0.0,0.0,0.0,0.0,0.0,0.0,0.0,0.0,0.0,0.0,0.0,0.0,0.0,0.0,0.0,0.0,0.0,5.1846,5.5269,5.7467,5.8396,5.8434,5.7973,5.6983,5.4795,5.2764,0.0,0.0,0.0,0.0,0.0,0.0,0.0,0.0,0.0,0.0,0.0,0.0,0.0,0.0,0.0,0.0,0.0,0.0,0.0,0.0,0.0,0.0,0.0,0.0,0.0,0.0,0.0,0.0,0.0,0.0,0.0,0.0,0.0,0.0,0.0,0.0,0.0,0.0,0.0,0.0,0.0,5.3246,5.4203,5.428,5.3587,0.0,0.0,5.2895,5.2933,5.4862,0.0,0.0,0.0,0.0,0.0,0.0,0.0,0.0,0.0,0.0,0.0,0.0,0.0,0.0,0.0,0.0,0.0,0.0,0.0,0.0,0.0,0.0,0.0,0.0,0.0,0.0,0.0,0.0,0.0,0.0,0.0,0.0,0.0,0.0,0.0,0.0,0.0,0.0,0.0,0.0,0.0,0.0,0.0,0.0,0.0,0.0,0.0,0.0,0.0,0.0,0.0,0.0,0.0,0.0,0.0,4.9274,5.262,5.6005,5.7929,5.8275,5.8275,5.7665,5.6285,5.4337,5.2584,0.0,0.0,0.0,0.0,0.0,0.0,0.0,0.0,0.0,0.0,0.0,0.0,0.0,0.0,0.0,0.0,0.0,0.0,0.0,0.0,0.0,0.0,0.0,0.0,0.0,0.0,0.0,0.0,0.0,0.0,0.0,0.0,0.0,0.0,0.0,0.0,0.0,0.0,0.0,0.0,0.0,0.0,5.5131,5.6011,0.0,0.0,0.0,5.5357,5.5352,0.0,0.0,0.0,0.0,0.0,0.0,0.0,0.0,0.0,0.0,0.0,0.0,0.0,0.0,0.0,0.0,0.0,0.0,0.0,0.0,0.0,0.0,0.0,0.0,0.0,0.0,0.0,0.0,0.0,0.0,0.0,0.0,0.0,0.0,0.0,0.0,0.0,0.0,0.0,0.0,0.0,0.0,0.0,0.0,0.0,0.0,0.0,0.0,0.0,0.0,0.0,0.0,0.0,0.0,0.0,0.0,0.0,5.3472,5.6698,5.8511,5.889,5.8506,5.7665,5.6362,5.4554,0.0,0.0,0.0,0.0,0.0,0.0,0.0,0.0,0.0,0.0,0.0,0.0,0.0,0.0,0.0,0.0,0.0,0.0,0.0,0.0,0.0,0.0,0.0,0.0,0.0,0.0,0.0,4.2406,0.0,0.0,0.0,0.0,0.0,0.0,0.0,0.0,0.0,0.0,0.0,0.0,0.0,0.0,5.617,5.6588,5.8165,5.8704,0.0,0.0,5.755,5.7352,5.7665,5.7093,0.0,0.0,0.0,0.0,0.0,0.0,0.0,0.0,0.0,0.0,0.0,0.0,0.0,0.0,0.0,0.0,0.0,0.0,0.0,0.0,0.0,0.0,0.0,0.0,0.0,0.0,0.0,0.0,0.0,0.0,0.0,0.0,0.0,0.0,0.0,0.0,0.0,0.0,0.0,0.0,0.0,0.0,0.0,0.0,0.0,0.0,0.0,0.0,0.0,0.0,0.0,0.0,0.0,0.0,0.0,5.4318,5.6973,5.905,6.0512,5.9088,5.8242,5.8088,5.5712,5.3705,0.0,0.0,0.0,0.0,0.0,0.0,0.0,0.0,0.0,0.0,0.0,0.0,0.0,0.0,0.0,0.0,0.0,0.0,0.0,0.0,0.0,0.0,0.0,0.0,0.0,0.0,0.0,0.0,0.0,0.0,0.0,0.0,0.0,0.0,0.0,0.0,0.0,0.0,0.0,0.0,0.0,5.7467,5.9006,6.0748,6.1518,0.0,0.0,5.905,5.8313,5.9511,5.8896,5.4087,0.0,0.0,0.0,0.0,0.0,0.0,0.0,0.0,0.0,0.0,0.0,0.0,0.0,0.0,0.0,0.0,0.0,0.0,0.0,0.0,0.0,0.0,0.0,0.0,0.0,0.0,0.0,0.0,0.0,0.0,0.0,0.0,0.0,0.0,0.0,0.0,0.0,0.0,0.0,0.0,0.0,0.0,0.0,0.0,0.0,0.0,0.0,0.0,0.0,0.0,0.0,0.0,0.0,5.1515,5.5203,5.7742,5.9627,6.071,5.9627,5.8819,5.8319,5.6367,5.455,0.0,0.0,0.0,0.0,0.0,0.0,0.0,0.0,0.0,0.0,0.0,0.0,0.0,0.0,0.0,0.0,0.0,0.0,0.0,0.0,0.0,0.0,0.0,0.0,0.0,0.0,0.0,0.0,4.8105,4.8557,4.8186,0.0,0.0,0.0,0.0,0.0,0.0,0.0,0.0,0.0,0.0,5.8973,6.0127,6.1743,0.0,0.0,6.1396,6.1198,5.9319,6.0012,5.9242,5.4741,5.3395,0.0,0.0,0.0,0.0,0.0,0.0,0.0,0.0,0.0,0.0,0.0,0.0,0.0,0.0,0.0,0.0,0.0,0.0,0.0,0.0,0.0,0.0,0.0,0.0,0.0,0.0,0.0,0.0,0.0,0.0,0.0,0.0,0.0,0.0,0.0,0.0,0.0,0.0,0.0,0.0,0.0,0.0,0.0,0.0,0.0,0.0,0.0,0.0,0.0,0.0,0.0,0.0,5.2482,5.6055,5.8588,6.0325,6.1166,6.0364,5.9511,5.8665,5.7275,5.5738,0.0,0.0,0.0,0.0,0.0,0.0,0.0,0.0,0.0,0.0,0.0,0.0,0.0,0.0,0.0,0.0,0.0,0.0,0.0,0.0,0.0,0.0,0.0,0.0,0.0,0.0,0.0,0.0,4.9586,4.963,4.7928,0.0,0.0,0.0,0.0,0.0,0.0,0.0,0.0,0.0,0.0,6.0594,6.1435,6.2545,6.2891,6.1743,6.2121,6.1858,5.9819,5.9819,5.8781,5.5088,0.0,0.0,0.0,0.0,0.0,0.0,0.0,0.0,0.0,0.0,0.0,0.0,0.0,0.0,0.0,0.0,0.0,0.0,0.0,0.0,0.0,0.0,0.0,0.0,0.0,0.0,0.0,0.0,0.0,0.0,0.0,0.0,0.0,0.0,0.0,0.0,0.0,0.0,0.0,0.0,0.0,0.0,0.0,0.0,0.0,0.0,0.0,0.0,0.0,0.0,0.0,0.0,0.0,5.2823,5.694,5.9517,6.121,6.2024,6.1248,6.0358,5.9473,5.8665,5.7456,5.5776,0.0,0.0,0.0,0.0,0.0,0.0,0.0,0.0,0.0,0.0,0.0,0.0,0.0,0.0,0.0,0.0,0.0,0.0,0.0,0.0,0.0,0.0,0.0,0.0,0.0,0.0,4.9317,4.9399,4.8779,0.0,0.0,0.0,0.0,0.0,0.0,0.0,0.0,0.0,0.0,5.9896,6.2326,6.3121,6.3275,6.3275,6.3198,6.1897,6.0589,5.9665,5.8896,5.7467,0.0,0.0,0.0,0.0,0.0,0.0,0.0,0.0,0.0,0.0,0.0,0.0,0.0,0.0,0.0,0.0,0.0,0.0,0.0,0.0,0.0,0.0,0.0,0.0,0.0,0.0,0.0,4.5466,4.5928,0.0,0.0,0.0,0.0,0.0,0.0,0.0,0.0,0.0,0.0,0.0,5.3589,5.332,0.0,0.0,0.0,0.0,0.0,0.0,0.0,0.0,0.0,0.0,0.0,0.0,5.5016,5.855,6.0633,6.2056,6.2858,6.2095,6.1248,6.0402,5.955,5.8072,5.5853,0.0,0.0,0.0,0.0,0.0,0.0,0.0,0.0,0.0,0.0,0.0,0.0,0.0,0.0,0.0,0.0,0.0,0.0,0.0,0.0,0.0,0.0,0.0,0.0,0.0,5.0164,0.0,0.0,0.0,0.0,0.0,0.0,0.0,0.0,0.0,0.0,0.0,5.5626,5.9858,6.0902,6.1935,6.3897,6.366,6.3314,0.0,0.0,0.0,0.0,0.0,0.0,0.0,0.0,0.0,0.0,0.0,0.0,0.0,0.0,5.7016,5.4477,5.4946,5.5841,5.6368,0.0,0.0,0.0,0.0,0.0,0.0,0.0,0.0,0.0,0.0,0.0,0.0,0.0,0.0,0.0,0.0,4.9274,0.0,0.0,0.0,0.0,0.0,0.0,0.0,0.0,5.678,5.7857,5.8319,5.7747,5.6896,0.0,5.439,5.2289,0.0,0.0,0.0,0.0,0.0,0.0,0.0,0.0,5.6742,5.9473,6.1787,6.3205,6.3698,6.3243,6.2403,6.1287,6.0127,5.8759,5.7137,5.5494,5.3991,0.0,0.0,0.0,0.0,0.0,0.0,0.0,0.0,0.0,0.0,0.0,0.0,0.0,0.0,0.0,0.0,0.0,0.0,0.0,0.0,0.0,0.0,0.0,5.1356,0.0,0.0,0.0,0.0,0.0,0.0,0.0,0.0,0.0,5.4472,5.6055,5.8478,6.2056,6.2557,6.2974,6.4006,0.0,0.0,0.0,0.0,0.0,0.0,0.0,6.1018,5.9094,5.9704,6.0589,6.0896,6.182,6.2749,6.3326,0.0,0.0,5.9011,5.9213,6.0113,6.0657,6.0992,6.1294,6.1614,6.1807,6.1759,0.0,0.0,0.0,0.0,0.0,0.0,0.0,0.0,5.2192,5.1818,0.0,5.1851,0.0,0.0,0.0,0.0,0.0,0.0,0.0,0.0,6.166,6.3275,6.3121,6.1589,6.0864,6.071,5.8325,5.717,5.689,5.2241,0.0,0.0,0.0,0.0,0.0,0.0,5.7863,5.9665,6.282,6.4551,6.4512,6.4551,6.3782,6.2133,6.0473,5.955,5.9435,5.7945,5.6739,5.5853,5.3474,0.0,0.0,0.0,0.0,0.0,0.0,0.0,0.0,0.0,0.0,0.0,0.0,0.0,0.0,0.0,0.0,0.0,0.0,0.0,0.0,5.1962,0.0,0.0,0.0,0.0,0.0,0.0,0.0,0.0,0.0,0.0,5.7286,6.0017,6.2403,6.3275,0.0,0.0,0.0,0.0,6.432,6.3545,6.3391,6.3128,6.2403,6.2897,6.3121,6.2326,0.0,0.0,6.582,6.6013,6.6051,6.6051,6.6673,6.6442,6.3974,6.3468,6.3506,6.3583,6.4193,6.4451,6.4099,6.4482,6.4521,5.5763,0.0,0.0,0.0,0.0,5.4554,5.578,5.7357,5.7973,5.7434,5.6165,5.6357,0.0,0.0,0.0,0.0,0.0,0.0,5.9011,6.1056,6.2589,6.3314,6.3314,6.3474,6.2897,6.171,6.155,6.1512,6.1391,5.9473,5.6786,5.3472,0.0,0.0,0.0,0.0,5.905,6.1287,6.2897,6.366,6.366,6.4282,6.3782,6.2139,6.1633,6.0748,5.955,5.9061,5.8165,5.6778,5.546,0.0,0.0,0.0,0.0,0.0,0.0,0.0,0.0,0.0,0.0,0.0,0.0,0.0,0.0,0.0,0.0,0.0,0.0,0.0,5.2779,5.3395,5.3505,0.0,0.0,0.0,0.0,0.0,0.0,0.0,0.0,0.0,6.3057,6.2595,6.2864,0.0,0.0,6.4083,6.4199,6.4436,6.4743,6.5089,0.0,0.0,0.0,6.5359,6.5089,6.4865,6.6205,6.7622,6.8475,6.909,6.9475,6.9436,6.9667,6.9552,6.8853,6.7737,6.7199,6.7699,6.8077,6.8383,6.8719,6.8683,6.8268,6.3107,5.9859,5.7989,5.7588,5.8286,5.9132,6.0281,6.1589,6.2435,6.1666,5.9858,6.0512,5.8627,5.4928,5.4928,0.0,0.0,0.0,6.1364,6.4095,6.4243,6.5051,6.6276,6.6506,6.609,6.5173,6.5237,6.516,6.482,6.3974,6.2056,5.9088,0.0,0.0,5.8055,5.9511,6.105,6.2557,6.3743,6.432,6.4352,6.4512,6.3935,6.2627,6.2249,6.1441,6.0089,6.0012,5.9567,5.86,5.7422,5.611,0.0,0.0,0.0,0.0,0.0,0.0,0.0,0.0,0.0,0.0,0.0,4.8755,5.0522,0.0,0.0,0.0,5.4313,5.4157,5.467,5.4857,0.0,0.0,0.0,0.0,0.0,0.0,0.0,6.0506,6.2441,6.4288,6.6096,6.5365,6.5166,6.6705,6.5974,6.5391,6.559,0.0,6.6276,6.6821,6.6898,6.7051,6.7513,6.7513,6.7513,6.7827,6.8706,6.9507,7.0052,7.0591,7.0898,7.0898,7.0898,7.0898,7.0898,7.0052,6.9507,7.0052,7.0167,7.0239,7.0278,7.0009,6.9579,6.9468,6.8353,6.2814,6.1358,6.2633,6.3474,6.4237,6.4974,6.582,6.4749,6.2557,6.4051,6.2935,5.9935,6.005,0.0,6.1441,6.2364,6.448,6.7366,6.6635,6.7898,7.0821,7.0052,6.9706,6.9629,6.8814,6.8045,6.7289,6.6481,6.6128,6.609,6.298,6.0935,6.0165,6.2281,6.3429,6.3506,6.5089,6.5904,6.5974,6.5166,6.4237,6.3314,6.2595,6.1749,6.0819,6.0781,6.0781,6.0748,5.9331,5.8434,5.8209,0.0,0.0,0.0,0.0,0.0,0.0,0.0,0.0,0.0,0.0,0.0,0.0,0.0,0.0,0.0,5.7164,0.0,5.7016,5.6324,0.0,0.0,0.0,5.8055,5.9742,6.0671,6.2127,6.4551,0.0,0.0,6.7212,0.0,6.8507,6.8584,6.8468,6.8084,6.7321,6.7898,6.8507,6.8468,6.8545,6.8584,6.8699,6.9199,6.986,7.0475,7.0898,7.0821,7.0821,7.086,7.0898,7.0898,7.0898,7.0898,7.0898,7.0821,7.0898,7.086,7.0825,7.0517,6.9692,6.9363,6.8967,7.1898,7.2084,7.0052,6.8321,6.6968,6.7821,6.793,6.7583,6.8436,6.7359,6.5019,6.5436,6.4782,6.3435,6.4711,6.5782,6.666,6.8129,6.9244,6.9975,6.9821,7.0129,7.086,7.009,6.9706,6.9667,6.8814,6.8622,6.9013,6.8205,6.8129,6.8706,6.7314,6.5859,6.4436,6.432,6.4628,6.5282,6.5705,6.6211,6.6789,6.6019,6.4859,6.3352,6.3121,6.232,6.0864,6.0781,6.0781,6.0787,6.0414,5.9628,5.8363,5.6801,0.0,0.0,0.0,0.0,0.0,0.0,0.0,0.0,0.0,5.2223,5.3962,0.0,5.6911,0.0,5.8391,5.7703,5.706,5.744,0.0,0.0,6.0364,6.1556,6.3205,6.4166,6.5173,6.6365,6.7282,6.8129,6.8975,6.9244,6.9629,7.0167,6.9199,6.8314,6.8122,6.8853,6.9391,6.9475,6.9937,7.0321,7.0321,7.0475,7.0706,7.086,7.0898,7.0898,7.0898,7.0898,7.0898,7.0898,7.0898,7.0898,7.0937,7.0898,7.0898,7.0878,7.06,7.0211,6.9965,6.9265,6.8614,7.3399,7.3507,7.336,7.2283,7.0699,7.1199,7.0898,7.0167,7.1014,7.036,6.8674,6.8289,6.7436,6.6429,6.8052,6.8859,6.9045,6.9975,7.0552,7.0898,7.0898,7.1321,7.2052,7.1622,7.1398,7.1353,7.0514,7.0129,7.0244,7.0129,7.036,7.0783,7.0321,6.9436,6.8129,6.6513,6.5936,6.6404,6.6821,6.7051,6.7058,6.6327,6.5102,6.3395,6.2592,6.1641,6.0355,5.9937,5.9744,5.9744,5.9744,5.9331,5.8394,5.7216,5.5634,0.0,0.0,0.0,0.0,0.0,0.0,0.0,0.0,0.0,0.0,0.0,5.8528,5.9441,5.9105,5.8934,5.9248,6.0012,6.105,6.2358,6.3595,6.4859,6.6167,6.7051,6.7898,6.8712,6.9206,6.9706,7.0167,7.0206,7.0552,7.1367,7.0706,6.9937,6.9667,7.0244,7.0821,7.0821,7.1514,7.2052,7.2052,7.2052,7.2052,7.2052,7.2052,7.2052,7.2052,7.2052,7.2052,7.2052,7.2045,7.1898,7.1552,7.1475,7.136,7.0913,7.0274,6.9874,7.0014,6.9452,6.8792,7.4584,7.4161,7.4546,7.4276,7.3661,7.3776,7.3206,7.2252,7.3014,7.2822,7.1982,7.1245,7.0167,6.9007,7.0398,7.0744,7.0199,7.0161,7.0552,7.1245,7.1245,7.2122,7.3623,7.343,7.3392,7.343,7.2399,7.1552,7.0937,7.1668,7.2098,7.2213,7.2329,7.1867,7.086,6.8667,6.752,6.7443,6.8174,6.8142,6.7302,6.6461,6.5222,6.3465,6.2001,6.0751,5.9752,5.8942,5.8518,5.8402,5.8402,5.8441,5.8513,5.7135,5.5961,0.0,5.3688,0.0,0.0,0.0,0.0,0.0,0.0,0.0,0.0,5.9144,6.0165,6.016,6.0044,6.0704,6.2447,6.332,6.4199,6.5166,6.6667,6.7898,6.866,6.9391,7.0129,7.0821,7.0898,7.0898,7.086,7.0975,7.136,7.2021,7.2206,7.1975,7.1475,7.186,7.2322,7.2367,7.3014,7.3276,7.3315,7.3392,7.3353,7.3315,7.3122,7.3276,7.2969,7.3007,7.3084,7.3046,7.2899,7.2783,7.2168,7.1975,7.1745,7.1007,7.0187,6.972,6.9829,6.9423,6.8956,7.6438,7.7369,7.5507,7.4623,7.4507,7.5207,7.4245,7.2213,7.2399,7.1937,7.1168,7.0975,7.1129,7.1475,7.1828,7.2245,7.2776,7.2776,7.2853,7.3007,7.3007,7.3546,7.4353,7.3091,7.2822,7.3353,7.1245,7.0398,7.0898,7.1091,7.1514,7.2213,7.2899,7.2476,7.0975,0.0,0.0,0.0,6.9412,6.9098,6.8251,6.742,6.5874,6.3599,6.3174,0.0,5.9835,5.9559,5.914,5.8441,5.8402,0.0,0.0,0.0,0.0,0.0,0.0,0.0,0.0,0.0,0.0,0.0,6.0823,6.1489,6.0366,6.2317,6.3628,6.3628,6.3006,6.3281,6.5019,6.5897,6.7013,6.859,6.959,7.0244,7.0437,7.0591,7.0744,7.086,7.0898,7.0898,7.0975,7.1475,7.2021,7.229,7.2822,7.3168,7.3053,7.3129,7.3276,7.3276,7.3546,7.3546,7.3507,7.3546,7.3353,7.2668,7.2437,7.2245,7.1745,7.1552,7.1437,7.1514,7.136,7.1437,7.1245,7.1129,7.1168,7.0937,7.0695,7.0354,6.9607,6.8694,6.7982,7.79,0.0,7.6553,7.5745,0.0,7.5822,7.4784,7.2899,7.3745,7.336,7.2199,7.2206,7.1937,7.1591,7.2476,7.2591,7.2238,7.2668,7.2629,7.2238,7.2668,7.3053,7.3437,7.2591,7.2437,7.2783,7.1091,7.0706,7.1552,7.1975,7.2591,7.3437,7.3853,7.3661,7.2783,7.1937,7.0937,6.9706,7.0124,6.9945,6.9104,6.8289,6.6856,6.476,0.0,0.0,0.0,0.0,0.0,0.0,0.0,0.0,0.0,0.0,0.0,5.9022,5.9384,5.9809,6.0206,6.1015,6.1852,6.271,6.4683,6.5165,6.3472,6.4531,6.559,6.6397,6.5699,6.6051,6.8129,6.8744,6.9321,7.0206,7.1052,7.1398,7.0975,7.0898,7.0898,7.0898,7.0898,7.1052,7.1475,7.186,7.2552,7.3283,7.3776,7.4238,7.4591,7.4353,7.4199,7.4661,7.4738,7.4738,7.47,7.4315,7.3969,7.3514,7.3091,7.2706,7.2276,7.2199,7.2199,7.2161,7.2206,7.2091,7.1629,7.1552,7.1405,7.0993,7.0674,7.0274,6.9472,6.8847,6.8499,7.9092,7.79,7.7323,7.663,7.5976,7.5976,7.5207,7.4007,0.0,0.0,0.0,7.3276,7.2399,7.1014,7.2392,7.2245,7.0975,7.1636,7.1591,7.0937,7.1636,7.2059,7.2175,7.2021,7.2059,7.2136,7.1321,7.129,7.2021,7.3014,7.3853,7.4469,7.4776,7.4861,7.4623,7.3206,7.1745,7.0475,7.072,7.0534,6.9719,6.904,6.7879,6.6195,6.4108,6.2519,6.1494,6.0066,5.9174,5.8865,5.8827,5.8976,5.9274,5.9968,6.0508,6.0844,6.2111,6.3201,6.4008,6.4695,6.5601,6.6673,6.8199,6.8359,6.6712,6.6712,6.7475,6.9161,6.8513,6.8981,7.1321,7.1591,7.1552,7.1591,7.2206,7.2329,7.1514,7.136,7.1437,7.136,7.1437,7.1552,7.2098,7.2514,7.3053,7.4161,7.4661,7.5168,7.5707,7.5361,7.5123,7.5707,7.5592,7.5668,7.5822,7.5014,7.4546,7.4276,7.3699,7.3238,7.3084,7.3046,7.3046,7.2738,7.3007,7.2629,7.2091,7.1822,7.1706,7.1052,7.0471,6.9992,6.9569,6.9282,6.9042,8.0092,8.0323,7.74,7.613,7.5976,7.5976,7.5861,7.5476,7.3598,7.2598,7.2367,7.236,7.1822,7.0937,7.1168,7.1129,7.0937,7.1014,7.1014,0.0,7.1014,7.1482,7.2136,7.1437,7.1482,7.2098,7.1283,7.0975,7.1245,7.2738,7.3546,7.3853,7.5091,7.5438,7.47,7.3783,7.3199,7.293,7.1652,7.06,6.9791,6.9733,6.8877,6.7191,6.6761,6.5456,6.323,6.2882,6.2111,6.0722,6.0601,6.1197,6.2567,6.2799,6.3507,6.489,6.523,6.5724,6.6493,6.6686,6.7757,6.9975,7.1091,7.0937,6.936,6.9821,7.0898,7.2545,7.1898,7.2206,7.3892,7.4084,7.4007,7.4046,7.4207,7.4014,7.3122,7.3046,7.3007,7.3007,7.3122,7.2815,7.2514,7.3437,7.4053,7.4007,7.4853,7.5784,7.5822,7.5899,7.5861,7.5861,7.5361,7.5284,7.5592,7.4661,7.3853,7.3661,7.2937,7.2168,7.1591,7.1475,7.1475,7.1321,7.1475,7.1321,7.1129,7.1091,7.1091,7.0885,7.0494,7.0112,6.9957,6.9302,6.8509,8.0169,7.9477,7.7522,7.6438,7.5976,7.5476,7.5553,7.5822,7.4284,7.3553,7.3437,7.2598,7.1982,7.1559,7.1091,7.0898,7.0898,7.0898,7.0898,7.0898,7.0898,7.1091,7.1437,7.1091,7.1129,7.1475,7.1091,7.136,7.2322,7.3122,7.393,7.4853,7.563,7.5784,7.5399,7.4584,7.4161,7.4123,7.2965,7.1946,7.1138,7.1133,7.0337,6.8642,6.818,6.7134,6.5522,6.5021,6.4443,6.3673,6.3634,6.3969,6.4709,6.5171,6.573,6.6558,6.7859,6.859,6.8513,6.9366,7.0366,7.1514,7.2399,7.2783,7.243,7.2738,7.3276,7.4046,7.3745,7.386,7.4623,7.47,7.4546,7.4084,7.443,7.4353,7.3661,7.3507,7.3507,7.3507,7.3507,7.3507,7.3553,7.4207,7.4815,7.4822,7.5284,7.5322,7.5284,7.493,7.4976,7.5707,7.5277,7.4938,7.5168,7.4315,7.3392,7.2899,7.2091,7.1405,7.0937,7.0898,7.0898,7.0898,7.0898,7.0898,7.0898,7.0898,7.0898,7.0885,7.0755,7.0478,7.0095,6.9262,6.8368,7.99,7.8446,7.7407,7.6592,7.5938,7.5284,7.5399,7.5899,7.5284,7.5014,7.4776,7.3206,7.2399,7.2136,7.1283,7.0898,7.0898,7.0898,7.0898,7.0898,7.0898,7.0898,7.0898,7.0898,7.0898,7.0898,7.0898,7.1629,7.2815,7.3276,7.4353,7.5822,7.5976,7.5976,7.5976,7.5322,7.5014,7.4976,7.4392,7.3553,7.2514,7.2514,7.186,7.0629,6.993,6.9129,6.8289,6.7475,6.6936,6.6744,6.6551,6.6628,6.7019,6.7628,6.8129,6.8667,7.0398,7.1245,7.0706,7.1937,7.2783,7.2783,7.3591,7.4315,7.4892,7.4976,7.5014,7.5007,7.4969,7.4976,7.5053,7.5046,7.4738,7.4161,7.4584,7.4776,7.4199,7.4091,7.4046,7.4084,7.4084,7.4276,7.4623,7.4892,7.5245,7.5668,7.5245,7.4738,7.4623,7.3892,7.3899,7.4745,7.4707,7.4238,7.4276,7.3469,7.2745,7.2175,7.1521,7.1052,7.0898,7.0898,7.0898,7.0898,7.0898,7.0783,7.0667,7.0591,7.0552,7.0545,7.0364,7.0218,6.9927,6.9169,6.8428,7.9323,7.833,7.6823,7.6092,7.6015,7.5899,7.5899,7.5976,7.5899,7.5899,7.5668,7.4123,7.2937,7.2136,7.1321,7.0975,7.0975,7.0898,7.0937,7.0975,7.0898,7.0898,7.0937,7.0898,7.0898,7.0898,7.0898,7.1052,7.1514,7.2853,7.4361,7.5822,7.5976,7.5976,7.5976,7.5899,7.5861,7.5861,7.5822,7.4976,7.3469,7.3392,7.3315,7.3161,7.3046,7.2629,7.1598,7.0905,7.009,6.9398,6.8622,6.8898,7.0206,7.0514,7.1245,7.2661,7.3084,7.3199,7.3199,7.3969,7.4392,7.4553,7.5168,7.5707,7.5822,7.5861,7.5861,7.5822,7.5861,7.5822,7.5861,7.5822,7.5745,7.5592,7.5707,7.5822,7.5668,7.5784,7.5745,7.5745,7.5592,7.5515,7.4892,7.5238,7.5745,7.5668,7.5053,7.4507,7.4315,7.3206,7.2591,7.3322,7.3014,7.2899,7.3245,7.2199,7.1745,7.1975,7.1475,7.1014,7.0898,7.0898,7.0898,7.0898,7.0898,7.0667,7.0206,6.9821,6.986,7.0102,6.978,6.9239,6.9274,6.8967,6.8581,7.813,7.7676,7.6515,7.5976,7.5976,7.5976,7.5976,7.5976,7.5976,7.5976,7.5861,7.4738,7.4014,7.3591,7.2283,7.1937,7.243,7.243,7.2437,7.2399,7.1898,7.1675,7.1629,7.1129,7.0898,7.0898,7.0898,7.1437,7.2591,7.4161,7.5091,7.5284,7.5745,7.5976,7.5976,7.5976,7.5976,7.5976,7.5976,7.563,7.5014,7.4476,7.3969,7.3546,7.3507,7.3353,7.2976,7.2629,7.2283,7.1968,7.1584,7.1738,7.2399,7.243,7.2738,7.343,7.3507,7.3699,7.4199,7.4514,7.47,7.47,7.5515,7.5976,7.5976,7.5976,7.5976,7.5976,7.5976,7.5976,7.5976,7.5976,7.5976,7.5976,7.5976,7.5976,7.5976,7.5976,7.5976,7.5976,7.5976,7.5668,7.4969,7.5007,7.5014,7.4661,7.4168,7.3892,7.3283,7.2168,7.1668,7.1822,7.1629,7.186,7.2437,7.2252,7.1668,7.1398,7.1168,7.0898,7.0821,7.0898,7.0898,7.086,7.0783,7.0706,7.0591,7.0014,6.9776,6.9973,7.0305,7.0103,7.0236,6.9569,6.9085,7.733,7.6868,7.6245,7.5976,7.5976,7.5976,7.5976,7.5976,7.5976,7.5976,7.5899,7.5084,7.4861,7.4822,7.3283,7.2937,7.343,7.3238,7.3168,7.3046,7.2245,7.1828,7.1745,7.1245,7.0898,7.0898,7.0898,7.1822,7.3507,7.4892,7.5438,7.52,7.5707,7.5976,7.5976,7.5976,7.5976,7.5976,7.5976,7.5976,7.5899,7.5399,7.4784,7.4238,7.4199,7.4199,7.4161,7.3969,7.3815,7.3815,7.3623,7.3584,7.3815,7.3853,7.393,7.4161,7.4199,7.443,7.5014,7.5046,7.5053,7.5123,7.5668,7.5976,7.5976,7.5976,7.5976,7.5976,7.5976,7.5976,7.5976,7.5976,7.5976,7.5976,7.5976,7.5976,7.5976,7.5976,7.5976,7.5976,7.5745,7.5438,7.4892,7.47,7.4514,7.3776,7.3546,7.2899,7.186,7.1129,7.0898,7.0629,7.0591,7.0937,7.1636,7.1752,7.1437,7.0898,7.0514,7.0398,7.0321,7.0199,7.0437,7.0129,7.0283,7.009,6.9667,6.943,6.9321,7.0007,7.05,7.0755,7.0762,6.9992,6.9433,7.7522,7.6169,7.6015,7.5976,7.5976,7.5976,7.5976,7.5976,7.5976,7.5976,7.5899,7.5168,7.5207,7.5784,7.4276,7.3507,7.343,7.286,7.2514,7.2406,7.1552,7.1014,7.0975,7.0898,7.0937,7.1129,7.1168,7.1937,7.3507,7.4353,7.5168,7.5861,7.5938,7.5976,7.5976,7.5976,7.5976,7.5976,7.5976,7.5976,7.5976,7.5938,7.5861,7.5745,7.5861,7.5784,7.5707,7.5046,7.4623,7.4623,7.4007,7.3892,7.4546,7.4661,7.5014,7.5668,7.5822,7.5822,7.5861,7.5861,7.5861,7.5899,7.5938,7.5976,7.5976,7.5976,7.5976,7.5976,7.5976,7.5976,7.5976,7.5976,7.5976,7.5976,7.5976,7.5976,7.5938,7.5861,7.5976,7.5745,7.513,7.4591,7.4584,7.47,7.4161,7.3546,7.3353,7.2622,7.0706,7.0475,7.0398,7.0014,6.986,7.0014,7.0744,7.0783,7.0475,7.0129,6.986,6.9545,6.893,6.8584,6.9084,6.9321,6.9161,6.8853,6.8468,6.8276,6.8237,6.8936,7.0244,7.0706,7.0898,7.0,6.9452,7.7515,7.6015,7.5976,7.5976,7.5976,7.5976,7.5976,7.5976,7.5976,7.5976,7.6053,7.6245,7.6245,7.5976,7.5976,7.563,7.5091,7.4784,7.4322,7.3745,7.2937,7.2584,7.2514,7.2014,7.2052,7.2507,7.2545,7.2853,7.3469,7.4315,7.4853,7.5207,7.5745,7.5976,7.5976,7.5976,7.5976,7.5976,7.5976,7.5976,7.5991,7.5976,7.5976,7.5976,7.5976,7.5976,7.5976,7.5707,7.5553,7.5515,7.5238,7.5207,7.5476,7.5515,7.5668,7.5938,7.5976,7.5976,7.5976,7.5976,7.5976,7.5976,7.5976,7.5976,7.5976,7.5976,7.5976,7.5976,7.5976,7.5976,7.5976,7.5976,7.5976,7.5976,7.5976,7.5784,7.5322,7.5168,7.4976,7.4392,7.3668,7.3129,7.3322,7.3591,7.3161,7.1591,7.1975,7.1591,7.0206,6.9545,6.9353,6.9513,6.9237,6.8968,6.9199,6.9276,6.9237,6.9436,6.936,6.893,6.8391,6.8199,6.8584,6.8667,6.8353,6.816,6.7968,6.843,6.8205,6.8321,6.9629,7.0552,7.0898,6.9924,6.9473,7.7445,7.6476,7.613,7.5976,7.5976,7.5976,7.5976,7.5976,7.5976,7.5976,7.6169,7.6899,7.6669,7.5938,7.6791,7.6638,7.5668,7.5553,7.513,7.4315,7.3738,7.3353,7.3053,7.2745,7.2899,7.3469,7.3776,7.3892,7.3969,7.4738,7.5123,7.5207,7.5745,7.5976,7.5976,7.5976,7.5976,7.6029,7.6059,7.6088,7.6081,7.612,7.6081,7.6061,7.6041,7.5976,7.5976,7.5976,7.5976,7.5976,7.5976,7.5976,7.5976,7.5976,7.5976,7.5976,7.5976,7.5976,7.5976,7.5976,7.5976,7.5976,7.5976,7.5976,7.5976,7.5976,7.5976,7.5976,7.5976,7.5976,7.5976,7.5976,7.5899,7.5707,7.5822,7.563,7.4861,7.4738,7.4207,7.3322,7.2668,7.229,7.2252,7.2745,7.1975,6.9968,7.0783,7.0591,6.8859,6.8282,6.8129,6.8667,6.8321,6.8244,6.8282,6.8205,6.8052,6.8205,6.8398,6.8084,6.7814,6.7737,6.7814,6.7859,6.7821,6.7667,6.7859,6.8398,6.8436,6.8205,6.9129,7.0206,7.0148,6.9865,6.9437,7.733,7.713,7.6361,7.613,7.6207,7.6245,7.6092,7.6207,7.613,7.6169,7.6438,7.6976,7.6476,7.5515,7.6669,7.6399,7.5161,7.4969,7.4546,7.3776,7.3623,7.3199,7.2591,7.3245,7.3584,7.3776,7.4353,7.4661,7.4661,7.5322,7.5745,7.5861,7.5899,7.5976,7.5976,7.5976,7.5976,7.6034,7.6154,7.6244,7.6295,7.6267,7.625,7.6266,7.6108,7.6012,7.5984,7.5976,7.5976,7.5976,7.5976,7.5976,7.5976,7.5976,7.5976,7.5976,7.5976,7.5976,7.5976,7.5976,7.5976,7.5976,7.5976,7.5976,7.5976,7.5976,7.5976,7.5976,7.5976,7.5976,7.5976,7.5976,7.5745,7.5007,7.5592,7.563,7.493,7.4623,7.4014,7.2598,7.2059,7.2175,7.2175,7.229,7.1591,7.0283,6.9821,6.9283,6.7398,6.709,6.7096,6.725,6.7244,6.7321,6.7244,6.7167,6.7013,6.6904,6.7096,6.7051,6.6705,6.659,6.6859,6.6936,6.6821,6.6667,6.6821,6.7282,6.759,6.7705,6.8859,6.9622,6.9481,6.9268,6.9247,7.7284,7.7292,7.7015,7.7215,7.7676,7.7715,7.7715,7.763,7.7176,7.7215,7.7599,7.7407,7.6976,7.6669,7.7092,7.6669,7.563,7.5592,7.5123,7.443,7.4315,7.4161,7.3976,7.4161,7.463,7.5053,7.4853,7.47,7.4776,7.5014,7.5123,7.52,7.5745,7.5976,7.5976,7.5976,7.5976,7.5991,7.6052,7.6141,7.6267,7.6295,7.63,7.6284,7.6237,7.6128,7.5998,7.5976,7.5976,7.5976,7.5976,7.5976,7.5976,7.5976,7.5976,7.5976,7.5976,7.5976,7.5976,7.5976,7.5976,7.5976,7.5976,7.5976,7.5976,7.5976,7.5976,7.5976,7.5976,7.5976,7.5976,7.5976,7.5861,7.563,7.5822,7.5592,7.463,7.3668,7.2552,7.1591,7.1321,7.1321,7.1437,7.1706,7.1482,7.0052,6.9706,6.9013,6.793,6.6859,6.6596,6.6942,6.6712,6.6551,6.6667,6.6705,6.6474,6.6404,6.6442,6.6519,6.6096,6.5904,6.6134,6.6173,6.6019,6.5981,6.6096,6.6327,6.675,6.7244,6.8129,6.8564,6.8761,6.8847,6.8919,7.7753,7.7715,7.7407,7.7753,7.8369,7.7907,7.7792,7.7907,7.7176,7.7092,7.7445,7.7715,7.6984,7.6361,7.7138,7.6669,7.5284,7.5668,7.5707,7.5245,7.5168,7.5053,7.4815,7.5053,7.5399,7.5822,7.5438,7.5168,7.5207,7.5161,7.5207,7.5322,7.5745,7.5976,7.5976,7.5984,7.6027,7.6095,7.621,7.6322,7.6493,7.6535,7.6497,7.6419,7.6348,7.621,7.6012,7.5976,7.5976,7.5976,7.5976,7.5976,7.5976,7.5976,7.5976,7.5976,7.5976,7.5976,7.5976,7.5976,7.5976,7.5976,7.5976,7.5976,7.5976,7.5976,7.5976,7.5976,7.5976,7.5976,7.5976,7.5976,7.5976,7.5976,7.5668,7.5014,7.3937,7.2867,7.1905,7.1206,7.0937,7.0898,7.1052,7.1206,7.1213,7.0014,6.9706,6.9398,6.8507,6.7507,6.7436,6.725,6.6981,6.675,6.6436,6.6205,6.5981,6.5981,6.6019,6.6058,6.5904,6.5904,6.6019,6.6019,6.5904,6.5904,6.6019,6.6173,6.6519,6.7051,6.7398,6.7692,6.8024,6.8633,6.8768,7.8369,7.8407,7.7638,7.7753,7.8253,7.6938,7.6669,7.7022,7.6438,7.613,7.6438,7.7323,7.6553,7.4938,7.6592,7.6207,7.4392,7.513,7.5899,7.5861,7.5861,7.5553,7.5084,7.5553,7.5861,7.5976,7.5938,7.5861,7.563,7.5938,7.6015,7.5938,7.6169,7.613,7.6207,7.6092,7.619,7.6289,7.6452,7.6604,7.6847,7.6864,7.6768,7.6571,7.6419,7.6231,7.6041,7.5976,7.5976,7.5976,7.5976,7.5976,7.5976,7.5976,7.5976,7.5976,7.5976,7.5976,7.5976,7.5976,7.5976,7.5976,7.5976,7.5976,7.5976,7.5976,7.5976,7.5976,7.5976,7.5976,7.5976,7.5976,7.5976,7.5784,7.5245,7.4207,7.2636,7.229,7.179,7.1129,7.0898,7.0898,7.0898,7.0975,7.0591,7.0129,6.9898,6.9513,6.8898,6.8391,6.8391,6.7936,6.7212,6.6789,6.6404,6.6134,6.5904,6.5904,6.5904,6.5904,6.5904,6.5904,6.5904,6.5904,6.5904,6.5904,6.5942,6.6096,6.6134,6.632,6.6628,6.6898,6.7375,6.8005,6.8567,7.7369,7.8369,7.7638,7.7753,7.833,7.7369,7.6669,7.6361,7.6092,7.5899,7.6015,7.5745,7.5707,7.5322,7.4899,7.4899,7.5151,7.5144,7.5438,7.5938,7.5976,7.5899,7.5707,7.5861,7.5984,7.5991,7.5914,7.5668,7.5207,7.6291,7.6553,7.6092,7.7138,7.7438,7.7053,7.6899,7.6712,7.6366,7.632,7.6552,7.6856,7.6921,7.6785,7.6597,7.6517,7.6343,7.6062,7.5976,7.5976,7.5976,7.5976,7.5976,7.5976,7.5976,7.5976,7.5976,7.5976,7.5976,7.5976,7.5976,7.5976,7.5976,7.5976,7.5976,7.5976,7.5976,7.5976,7.5976,7.5976,7.5976,7.5976,7.5976,7.5745,7.513,7.4853,7.4276,7.3283,7.2552,7.186,7.1091,7.0937,7.0898,7.0898,7.086,7.0783,7.0591,7.0514,7.0283,6.9629,6.9475,6.9436,6.7936,6.7096,6.6712,6.6365,6.6096,6.5904,6.5904,6.5904,6.5904,6.5904,6.5904,6.5904,6.5904,6.5904,6.5904,6.5904,6.5981,6.5904,6.5904,6.6058,6.6442,6.6782,6.7309,6.8005,7.7099,7.7946,7.7484,7.7561,7.7792,7.6707,7.5938,7.5515,7.5438,7.5245,7.5091,7.5668,7.5245,7.4437,7.4899,7.4998,7.508,7.5285,7.5721,7.6127,7.6179,7.6068,7.595,7.5707,7.5663,7.6063,7.5663,7.5691,7.592,7.6563,7.6753,7.713,7.7676,7.7753,7.7284,7.7299,7.6968,7.6416,7.6366,7.6571,7.6866,7.6921,7.6778,7.6639,7.6544,7.6311,7.6062,7.5976,7.5976,7.5976,7.5976,7.5976,7.5976,7.5976,7.5976,7.5976,7.5976,7.5976,7.5976,7.5976,7.5976,7.5976,7.5976,7.5976,7.5976,7.5976,7.5976,7.5976,7.5976,7.5976,7.5976,7.5976,7.5745,7.5399,7.493,7.4392,7.3584,7.2706,7.2052,7.1514,7.1129,7.0898,7.0898,7.0937,7.0898,7.0975,7.1245,7.086,7.0437,7.0475,7.0206,6.8821,6.7705,6.7359,6.6821,6.6442,6.5942,6.5904,6.5904,6.5904,6.5904,6.5904,6.5904,6.5904,6.5904,6.5904,6.5904,6.5904,6.5904,6.5904,6.5904,6.6173,6.6628,6.7436,6.8035,7.7215,7.7284,7.7092,7.7022,7.6746,7.5322,7.443,7.4276,7.4507,7.4046,7.3776,7.5707,7.484,7.2576,7.4885,7.5665,7.4333,7.549,7.6123,7.6397,7.64,7.6277,7.6077,7.5521,7.562,7.607,7.5278,7.6006,7.6816,7.6685,7.726,7.8169,7.8092,7.7746,7.79,7.7715,7.724,7.6891,7.6816,7.6981,7.7114,7.7045,7.6819,7.6625,7.6341,7.6228,7.6069,7.5976,7.5976,7.5976,7.5976,7.5976,7.5976,7.5976,7.5976,7.5976,7.5976,7.5976,7.5976,7.5976,7.5976,7.5976,7.5976,7.5976,7.5976,7.5976,7.5976,7.5976,7.5976,7.5976,7.5976,7.5976,7.5938,7.5745,7.5245,7.4546,7.3783,7.2937,7.2329,7.229,7.1591,7.1129,7.1129,7.1091,7.1091,7.1437,7.1706,7.1629,7.1283,7.1206,7.086,7.009,6.909,6.8237,6.7552,6.6821,6.6288,6.5904,6.5904,6.5904,6.5904,6.5904,6.5904,6.5904,6.5904,6.5904,6.5904,6.5904,6.5942,6.6019,6.6096,6.6481,6.6981,6.8013,6.8796,7.6669,7.7176,7.5822,7.5245,7.5091,7.4161,7.3007,7.1937,7.3238,7.3046,7.2091,7.2867,7.3459,7.3413,7.3927,7.4281,7.5653,7.5833,7.5856,7.656,7.6591,7.6539,7.6434,7.6022,7.6101,7.6228,7.6095,7.6543,7.7305,7.7807,7.8438,7.9285,7.9669,7.99,7.9246,7.8999,7.9012,7.8465,7.784,7.7651,7.773,7.7206,7.6768,7.6541,7.626,7.6072,7.6012,7.5976,7.5976,7.5976,7.5976,7.5976,7.5976,7.5976,7.5976,7.5976,7.5976,7.5976,7.5976,7.5976,7.5976,7.5976,7.6092,7.5976,7.5976,7.6053,7.6015,7.5976,7.5976,7.5976,7.5976,7.5976,7.5976,7.5899,7.5784,7.5592,7.5245,7.4084,7.3322,7.3053,7.2514,7.2168,7.2738,7.2091,7.1975,7.2059,7.2129,7.2283,7.2091,7.1745,7.1283,7.0629,6.9629,6.866,6.8052,6.7244,6.6551,6.6058,6.5981,6.5904,6.5904,6.5904,6.5904,6.5904,6.5904,6.5904,6.5904,6.6013,6.609,6.6211,6.6404,6.6904,6.7552,6.859,6.9244,7.6284,7.6515,7.5245,7.4469,7.4123,7.3661,7.2507,7.1552,7.3161,7.2853,7.1754,7.3029,7.3992,7.3853,7.428,7.5456,7.6354,7.6425,7.6445,7.6825,7.6827,7.6744,7.6735,7.6663,7.6564,7.651,7.6026,7.6525,7.7457,7.8055,7.8581,7.9715,8.0323,8.0092,7.9854,7.9823,7.9352,7.8729,7.8159,7.7897,7.7907,7.7236,7.6618,7.6351,7.6108,7.5976,7.5976,7.5976,7.5976,7.5976,7.5976,7.5976,7.5976,7.5976,7.6015,7.5976,7.5976,7.5976,7.5976,7.5976,7.5976,7.6015,7.6361,7.6284,7.6284,7.6322,7.6361,7.613,7.5976,7.5976,7.5976,7.5976,7.5976,7.5976,7.5976,7.5976,7.5784,7.4861,7.4046,7.3892,7.3322,7.3129,7.3091,7.286,7.2399,7.2206,7.2136,7.2245,7.1745,7.1475,7.136,7.0744,6.9776,6.893,6.8436,6.7705,6.6821,6.6404,6.6173,6.6019,6.5904,6.5904,6.5904,6.5904,6.5904,6.5904,6.5904,6.609,6.6205,6.6282,6.6551,6.7282,6.7936,6.8622,6.9161,7.5976,7.5938,7.5053,7.4238,7.3584,7.3469,7.2514,7.1398,7.3346,7.2906,7.1782,7.4453,7.4514,7.4369,7.5322,7.6295,7.6747,7.707,7.7109,7.7109,7.7031,7.6942,7.6936,7.6929,7.6885,7.685,7.6198,7.6592,7.7494,7.7875,7.8573,7.9526,8.0023,8.0054,7.9892,7.9977,7.9851,7.9295,7.8777,7.8434,7.8232,7.7583,7.7006,7.6423,7.6342,7.6169,7.6053,7.5976,7.5976,7.5976,7.5976,7.5976,7.5976,7.6015,7.613,7.613,7.613,7.613,7.6322,7.6284,7.6284,7.6207,7.6976,7.7015,7.663,7.6746,7.6669,7.6284,7.5976,7.5976,7.5976,7.5976,7.5976,7.5976,7.5976,7.5976,7.5861,7.5322,7.4969,7.4822,7.4245,7.3899,7.3783,7.3591,7.2937,7.2399,7.236,7.2129,7.1668,7.1321,7.1245,7.0898,6.9975,6.8706,6.8052,6.7782,6.6981,6.6558,6.6288,6.6096,6.5904,6.5904,6.5904,6.5904,6.5904,6.5904,6.5942,6.6128,6.6244,6.6282,6.6974,6.793,6.8391,6.866,6.9237,7.5976,7.5938,7.5053,7.4238,7.3546,7.3469,7.2482,7.126,7.2426,7.2225,7.15,7.2781,7.3938,7.4192,7.4425,7.5194,7.6244,7.6875,7.7226,7.7226,7.7148,7.7109,7.7109,7.7109,7.7148,7.71,7.6786,7.7201,7.7826,7.8439,7.8651,7.9211,8.0234,8.0516,8.0054,8.0416,8.0697,8.0287,7.9879,7.9641,7.9411,7.8785,7.7961,7.7203,7.7053,7.6707,7.6169,7.6015,7.5976,7.5976,7.5976,7.6015,7.613,7.613,7.6399,7.6669,7.6322,7.6245,7.6899,7.7015,7.7061,7.7253,7.783,7.7869,7.7369,7.7207,7.7092,7.6361,7.6053,7.5976,7.5976,7.5976,7.5976,7.5976,7.5976,7.5976,7.5938,7.5822,7.563,7.5553,7.5014,7.463,7.4553,7.4322,7.3745,7.3245,7.3053,7.2514,7.1822,7.1514,7.1321,7.0821,7.0167,6.8821,6.7558,6.7404,6.7019,6.6551,6.6282,6.6019,6.5904,6.5904,6.5904,6.6096,6.6019,6.5904,6.6013,6.6167,6.6436,6.6667,6.759,6.866,6.9122,6.9507,6.9937,7.5976,7.5861,7.4623,7.3853,7.3469,7.2976,7.216,7.1365,7.2474,7.2454,7.2072,7.2864,7.3824,7.4352,7.4938,7.5659,7.6484,7.6953,7.7187,7.7226,7.7226,7.7226,7.7226,7.7226,7.7226,7.7305,7.753,7.7501,7.7608,7.8485,7.8612,7.8704,8.0085,8.0439,7.9746,8.0408,8.0776,8.0673,8.0406,8.0221,8.0063,7.9277,7.8471,7.8115,7.7869,7.7484,7.6861,7.6669,7.6669,7.6592,7.6245,7.6515,7.6861,7.6938,7.6868,7.713,7.6553,7.663,7.7522,7.7638,7.7445,7.7984,7.8677,7.8707,7.8323,7.8207,7.7861,7.6938,7.613,7.5976,7.5976,7.5976,7.5976,7.5976,7.5976,7.5976,7.5976,7.5976,7.5976,7.5976,7.563,7.5399,7.5515,7.5168,7.4584,7.4161,7.3776,7.3046,7.2161,7.2014,7.1898,7.1706,7.1283,7.0244,6.8859,6.8167,6.7327,6.6667,6.6359,6.609,6.5942,6.5981,6.6288,6.6596,6.6404,6.6058,6.6134,6.632,6.6673,6.7135,6.8244,6.9199,6.9853,7.0398,7.0629,7.5899,7.563,7.4322,7.3546,7.3137,7.2564,7.1888,7.1593,7.2623,7.2567,7.1893,7.3228,7.4016,7.4385,7.5273,7.625,7.6953,7.7031,7.7187,7.7226,7.7226,7.7226,7.7226,7.7226,7.7226,7.7305,7.7656,7.7812,7.7497,7.8467,7.84,7.8261,7.9629,8.003,7.9161,8.0015,8.0169,8.0359,8.0241,8.0261,7.9976,7.9445,7.8907,7.8784,7.8754,7.84,7.7638,7.7522,7.7522,7.7369,7.713,7.7138,7.8099,7.7907,7.7638,7.763,7.6976,7.7476,7.813,7.833,7.8284,7.8754,7.9554,7.9477,7.8938,7.8707,7.8477,7.7438,7.6515,7.6015,7.5976,7.5976,7.5976,7.5976,7.5976,7.5976,7.5976,7.5976,7.5976,7.5976,7.5976,7.5938,7.5899,7.5745,7.5123,7.4546,7.4161,7.3738,7.3007,7.3007,7.293,7.2976,7.2629,7.1898,7.0744,6.9513,6.8282,6.6821,6.6551,6.6359,6.6211,6.6096,6.6481,6.6827,6.6712,6.6442,6.6481,6.6635,6.7058,6.7744,6.8859,6.9706,7.0321,7.0514,7.0629,7.5553,7.4853,7.463,7.3745,7.2499,7.2411,7.1959,7.1334,7.1812,7.1852,7.1757,7.2812,7.3437,7.3906,7.5156,7.5898,7.6328,7.6875,7.7187,7.7226,7.7226,7.7226,7.7226,7.7226,7.7226,7.7265,7.7422,7.7305,7.7448,7.8563,7.8336,7.752,7.8463,7.887,7.873,8.0054,8.0239,8.0854,8.1072,8.1166,8.1079,8.0788,8.0277,7.9823,7.9592,7.9246,7.8523,7.8369,7.8369,7.833,7.8253,7.8253,7.8484,7.8446,7.8823,7.9015,7.8861,7.8638,7.9438,7.9361,7.9361,7.9708,8.0362,8.0362,7.9708,7.8477,7.7861,7.7407,7.6522,7.6053,7.5976,7.5976,7.5976,7.5976,7.5976,7.5976,7.5976,7.5976,7.5976,7.5976,7.5976,7.5976,7.5938,7.5822,7.563,7.5053,7.4546,7.4199,7.3969,7.4046,7.4007,7.4046,7.3623,7.286,7.186,7.0744,6.9321,6.7436,6.7013,6.6821,6.6782,6.6744,6.6635,6.6865,6.6865,6.7096,6.7359,6.7513,6.7628,6.8205,6.9167,6.9975,7.0706,7.0744,7.0667,7.4776,7.399,7.3607,7.3032,7.2378,7.2061,7.177,7.1578,7.1649,7.1756,7.194,7.2305,7.3047,7.4062,7.4922,7.5742,7.6484,7.7031,7.7187,7.7226,7.7226,7.7226,7.7226,7.7226,7.7226,7.7305,7.7617,7.7656,7.7734,7.7814,7.777,7.7217,7.8723,7.9562,7.8953,8.0831,8.1323,8.1339,8.1143,8.1228,8.1193,8.1122,8.09,8.0554,8.0516,8.0015,7.9477,7.9246,7.9246,7.9131,7.8869,7.9061,7.9554,7.9631,7.9631,8.0362,8.0208,8.0169,8.0439,8.0085,8.0123,8.0469,8.0862,8.0862,8.0246,7.9054,7.7984,7.7984,7.6746,7.6092,7.6015,7.5976,7.5976,7.5976,7.5976,7.5976,7.5976,7.5976,7.5976,7.5976,7.5976,7.5976,7.5976,7.5938,7.5861,7.5592,7.5322,7.5168,7.5084,7.52,7.5168,7.5091,7.4469,7.3738,7.2622,7.1507,7.036,6.8821,6.8007,6.7814,6.766,6.759,6.7513,6.7667,6.7975,6.8205,6.8321,6.809,6.7859,6.859,6.943,7.0283,7.1052,7.0898,7.086,7.3833,7.2893,7.2595,7.2378,7.2143,7.1722,7.1607,7.1686,7.1753,7.1861,7.2031,7.2305,7.3242,7.4414,7.4961,7.5859,7.7148,7.7226,7.7226,7.7226,7.7226,7.7226,7.7226,7.7226,7.7226,7.7226,7.7656,7.7656,7.7422,7.742,7.7358,7.6957,7.8634,7.9478,7.97,8.0485,8.1177,8.0754,8.0962,8.1093,8.1116,8.1116,8.1093,8.1054,8.1016,8.0785,8.0246,8.0131,8.0123,8.0015,7.9669,7.9939,8.0631,8.0439,8.0362,8.0862,8.0823,8.0862,8.0823,8.0592,8.0554,8.0862,8.1093,8.1054,8.0862,7.9677,7.8638,7.8446,7.7253,7.6438,7.6053,7.5976,7.5976,7.5976,7.5976,7.5976,7.5976,7.5976,7.5976,7.5976,7.5976,7.5976,7.5976,7.5976,7.5976,7.5976,7.5976,7.5976,7.5976,7.5938,7.5822,7.5592,7.5322,7.4469,7.3276,7.2161,7.1052,7.009,6.9237,6.8622,6.8353,6.843,6.8552,6.8776,6.8968,6.9045,6.9013,6.8513,6.8167,6.9283,7.0283,7.086,7.1283,7.1129,7.0975,7.2701,7.1422,7.2184,7.2016,7.1402,7.1583,7.1686,7.1747,7.1906,7.1953,7.2109,7.2812,7.3633,7.457,7.539,7.6211,7.7187,7.7187,7.7226,7.7226,7.7226,7.7226,7.7226,7.7226,7.7226,7.7226,7.7461,7.7422,7.7265,7.7337,7.7456,7.7805,7.8668,7.8979,7.9389,8.0139,8.0562,8.0439,8.0862,8.1093,8.1093,8.1093,8.1093,8.1093,8.1093,8.1054,8.1016,8.09,8.0862,8.0823,8.0631,8.0554,8.0939,8.09,8.0939,8.1016,8.1093,8.1093,8.0977,8.0977,8.1016,8.1054,8.1093,8.1093,8.1016,8.0285,7.94,7.8677,7.7746,7.7015,7.6438,7.6053,7.6399,7.6245,7.6284,7.6169,7.6092,7.5976,7.5976,7.5976,7.5976,7.5976,7.5976,7.5976,7.5976,7.5976,7.5976,7.5976,7.5976,7.5976,7.5976,7.5899,7.5899,7.513,7.3815,7.2776,7.1968,7.0937,6.9968,6.9314,6.8776,6.9045,6.9507,6.9391,6.9468,6.9584,6.9706,6.9436,6.9513,7.036,7.0975,7.1168,7.1283,7.1129,7.1014,7.223,7.1285,7.1799,7.1815,7.1521,7.1795,7.1904,7.1906,7.1953,7.1992,7.207,7.289,7.3789,7.4648,7.5508,7.6367,7.7109,7.7226,7.7226,7.7226,7.7226,7.7226,7.7226,7.7226,7.7226,7.7226,7.7226,7.7578,7.7969,7.7812,7.8535,7.8987,7.9034,7.972,8.0213,8.0592,8.0939,8.0977,8.1131,8.1093,8.1093,8.1093,8.1093,8.1093,8.1093,8.1093,8.1093,8.1093,8.1093,8.1093,8.1093,8.1093,8.1093,8.1093,8.1131,8.1131,8.1131,8.1131,8.1131,8.1131,8.1093,8.1093,8.1093,8.1093,8.1054,8.0315,7.9777,7.9131,7.8515,7.7784,7.7676,7.7522,7.7522,7.7061,7.663,7.6399,7.6284,7.6169,7.5976,7.5976,7.5976,7.5976,7.5976,7.5976,7.5976,7.5976,7.5976,7.5976,7.5976,7.5976,7.5976,7.5861,7.5861,7.5707,7.4437,7.3661,7.2892,7.1853,7.0744,7.009,6.959,7.0014,7.036,7.0129,7.0007,7.0206,7.036,7.0398,7.0667,7.1014,7.1014,7.0975,7.1052,7.1129,7.1014,7.2036,7.134,7.1609,7.1689,7.1741,7.1909,7.1992,7.1992,7.1992,7.1992,7.2109,7.3359,7.418,7.4844,7.5859,7.6562,7.7109,7.7226,7.7226,7.7226,7.7226,7.7226,7.7265,7.7422,7.7578,7.7422,7.7851,7.8359,7.8398,7.8555,7.9229,7.992,8.0296,8.0534,8.1061,8.1862,8.2208,8.1823,8.1747,8.1439,8.1477,8.1208,8.1362,8.1323,8.1285,8.1093,8.1093,8.1093,8.1093,8.1093,8.1093,8.1093,8.1093,8.1131,8.1208,8.1285,8.1246,8.117,8.1362,8.1208,8.1131,8.1093,8.1093,8.1093,8.0939,8.0516,8.02,7.97,7.9169,7.8784,7.8638,7.8061,7.7984,7.7484,7.6669,7.6361,7.6438,7.6361,7.613,7.5976,7.5976,7.5976,7.5976,7.5976,7.5976,7.5976,7.5976,7.5976,7.5976,7.5976,7.5976,7.5822,7.563,7.5438,7.5091,7.3783,7.2629,7.2661,7.1629,7.0937,7.0629,7.0898,7.0898,7.0629,7.0591,7.0821,7.0821,7.0706,7.0937,7.1321,7.1283,7.1283,7.0937,7.1014,7.0975,7.2107,7.153,7.1651,7.1696,7.1747,7.1909,7.2031,7.2148,7.2226,7.2187,7.2461,7.4492,7.5234,7.5195,7.6328,7.7031,7.7148,7.7226,7.7226,7.7226,7.7226,7.7226,7.75,7.7773,7.7969,7.7773,7.8437,7.8945,7.875,7.9297,7.9966,8.0334,8.0558,8.0721,8.1139,8.19,8.1862,8.14,8.2016,8.2247,8.217,8.1631,8.1631,8.1593,8.1362,8.1093,8.1093,8.1093,8.1131,8.1323,8.1131,8.1093,8.1093,8.1093,8.14,8.2016,8.1439,8.1516,8.2101,8.1477,8.1208,8.1208,8.1285,8.117,8.117,8.0977,8.0708,8.0169,7.9854,7.94,7.8707,7.8138,7.8369,7.8054,7.7323,7.6899,7.7053,7.6669,7.6476,7.6284,7.6092,7.5976,7.5976,7.5976,7.5976,7.5976,7.5976,7.5976,7.5976,7.5784,7.5707,7.563,7.5399,7.513,7.4668,7.3283,7.2437,7.2629,7.2322,7.136,7.0898,7.0898,7.0898,7.0898,7.0898,7.0898,7.0898,7.086,7.1091,7.1283,7.1668,7.1629,7.1206,7.0898,7.0898,7.1767,7.1647,7.181,7.1906,7.1908,7.1992,7.2305,7.289,7.3398,7.3398,7.3359,7.5078,7.582,7.5937,7.6484,7.7226,7.7226,7.7226,7.7226,7.7226,7.7226,7.7226,7.75,7.8047,7.8359,7.8437,7.918,8.0078,8.0234,8.0384,8.0733,8.1084,8.096,8.1287,8.177,8.2285,8.2285,8.2716,8.3062,8.3139,8.3054,8.2362,8.1823,8.1708,8.1362,8.1246,8.1208,8.1246,8.1477,8.167,8.1516,8.1208,8.117,8.117,8.1554,8.2016,8.1631,8.1477,8.1862,8.167,8.14,8.1554,8.14,8.1362,8.1747,8.1323,8.0977,8.0708,8.0546,8.0285,8.0208,8.0054,8.0015,7.9438,7.8784,7.84,7.8207,7.74,7.6938,7.6753,7.6553,7.6245,7.6092,7.6245,7.6284,7.613,7.6092,7.6015,7.5976,7.5438,7.5161,7.5245,7.513,7.4822,7.4168,7.286,7.2252,7.2399,7.1975,7.1129,7.0898,7.0898,7.0898,7.0898,7.0898,7.0898,7.0898,7.0898,7.0975,7.1206,7.1475,7.1552,7.1129,7.0898,7.0898,7.1624,7.1738,7.226,7.2265,7.2031,7.1992,7.2344,7.3008,7.4023,7.3984,7.3476,7.5195,7.5937,7.5937,7.6601,7.7226,7.7226,7.7226,7.7226,7.7226,7.7226,7.7422,7.7851,7.8437,7.8906,7.9219,8.0,8.0859,8.0859,8.1157,8.1386,8.1458,8.1337,8.1568,8.2016,8.2362,8.2708,8.3178,8.3486,8.3708,8.3632,8.3247,8.2516,8.2247,8.2016,8.19,8.1708,8.1785,8.2016,8.2131,8.19,8.1516,8.1516,8.1631,8.2093,8.2593,8.2862,8.2631,8.2593,8.2477,8.2447,8.2678,8.1747,8.1439,8.1747,8.1323,8.117,8.1054,8.1093,8.1054,8.1016,8.1054,8.0631,7.9969,7.9554,7.9131,7.9015,7.8246,7.7522,7.733,7.7022,7.6676,7.6438,7.6476,7.663,7.6438,7.6207,7.613,7.6015,7.5476,7.4969,7.4976,7.4707,7.4238,7.3591,7.2514,7.2129,7.2213,7.1629,7.0937,7.0898,7.0898,7.0898,7.0898,7.0898,7.0898,7.0898,7.0937,7.0975,7.0975,7.1014,7.1014,7.0898,7.0898,7.0898,7.1732,7.1863,7.2847,7.2734,7.207,7.1992,7.2031,7.2187,7.3867,7.3711,7.2461,7.5742,7.6289,7.539,7.6523,7.7148,7.7226,7.7226,7.7226,7.7226,7.7226,7.7695,7.8398,7.914,7.9531,8.0273,8.1015,8.1484,8.1211,8.154,8.1806,8.1619,8.129,8.1508,8.19,8.217,8.2631,8.3293,8.3862,8.417,8.4324,8.4016,8.3516,8.3216,8.3101,8.2832,8.2716,8.287,8.2901,8.2785,8.2439,8.2362,8.2324,8.2324,8.3439,8.4209,8.4508,8.417,8.3708,8.3439,8.3293,8.3178,8.2054,8.1439,8.1246,8.1323,8.1131,8.1093,8.1093,8.1093,8.1093,8.0785,8.0477,8.0015,7.9592,7.9515,7.9669,7.9131,7.8369,7.7907,7.7599,7.7369,7.733,7.733,7.7284,7.7099,7.6907,7.6476,7.6284,7.5668,7.52,7.4899,7.4476,7.3623,7.286,7.2168,7.1706,7.1668,7.1437,7.0898,7.0898,7.0898,7.0898,7.0898,7.0898,7.0898,7.0898,7.0898,7.0898,7.0898,7.1052,7.1014,7.1052,7.0937,7.0898,7.1762,7.1948,7.2265,7.2226,7.1992,7.1992,7.1992,7.2226,7.3828,7.4219,7.3945,7.5547,7.625,7.6523,7.6992,7.7187,7.7226,7.7226,7.7226,7.7226,7.7226,7.7773,7.8515,7.9336,7.9961,8.082,8.1601,8.2148,8.1914,8.207,8.1715,8.1278,8.1181,8.1354,8.14,8.1477,8.2401,8.3255,8.3901,8.4478,8.4824,8.4632,8.4209,8.3862,8.3832,8.3563,8.3486,8.3563,8.3708,8.4016,8.3486,8.3255,8.3208,8.3216,8.3717,8.3862,8.4362,8.4747,8.4478,8.3939,8.3678,8.3601,8.2639,8.2178,8.1823,8.1516,8.1208,8.1208,8.1246,8.1323,8.1323,8.1054,8.0785,8.0477,8.0208,8.0246,8.0323,7.9939,7.9169,7.8784,7.8446,7.8215,7.8176,7.8176,7.8099,7.7907,7.7599,7.7169,7.6553,7.5976,7.5168,7.4822,7.4322,7.3476,7.2822,7.2129,7.1552,7.1129,7.0975,7.0937,7.1014,7.1014,7.0937,7.0898,7.0898,7.0898,7.0898,7.0898,7.0898,7.1206,7.1321,7.1245,7.1168,7.1321,7.1283,7.1905,7.2031,7.2383,7.25,7.2461,7.2148,7.1992,7.2305,7.3828,7.457,7.4765,7.5937,7.6523,7.6601,7.6953,7.7226,7.7226,7.7226,7.7226,7.7226,7.7226,7.8086,7.8828,7.9492,8.039,8.1289,8.1914,8.2265,8.2187,8.1894,8.1514,8.1285,8.1183,8.11,8.1131,8.1246,8.1593,8.2631,8.3555,8.4401,8.4816,8.5124,8.4824,8.4362,8.4324,8.4362,8.4209,8.4286,8.4709,8.4893,8.4247,8.4132,8.4209,8.4362,8.4601,8.4824,8.5093,8.5431,8.5277,8.4978,8.4516,8.4093,8.3593,8.3247,8.2439,8.1862,8.167,8.1554,8.1593,8.1593,8.1593,8.1516,8.1323,8.1093,8.1054,8.1054,8.0823,8.0592,8.0169,7.9746,7.9438,7.9131,7.9015,7.9023,7.8938,7.8784,7.8446,7.7946,7.7207,7.6361,7.5284,7.4392,7.3937,7.336,7.2745,7.2245,7.1783,7.1321,7.0937,7.0975,7.1129,7.1129,7.1052,7.0975,7.0898,7.0975,7.1168,7.0975,7.0975,7.1398,7.1982,7.2206,7.236,7.2507,7.2392,7.1992,7.207,7.2851,7.3047,7.3086,7.2422,7.2148,7.2305,7.3906,7.457,7.4922,7.6211,7.6484,7.6484,7.6914,7.7187,7.7226,7.7226,7.7226,7.7226,7.7226,7.793,7.8945,7.9765,8.0469,8.1601,8.2265,8.2226,8.2109,8.187,8.1586,8.1383,8.1203,8.11,8.1093,8.1093,8.1323,8.167,8.2824,8.3824,8.4747,8.5354,8.5778,8.5247,8.544,8.5709,8.5316,8.5393,8.5701,8.5247,8.4901,8.4816,8.517,8.5478,8.5786,8.5901,8.5863,8.5863,8.5893,8.5709,8.5363,8.5055,8.4854,8.417,8.3208,8.217,8.1862,8.2131,8.2255,8.2293,8.2293,8.2324,8.2208,8.1785,8.1516,8.1323,8.1016,8.0823,8.0631,8.0323,8.0169,7.99,7.99,7.99,7.99,7.9708,7.9246,7.8715,7.8138,7.7207,7.6092,7.4776,7.4437,7.4053,7.3014,7.2552,7.2129,7.1668,7.1398,7.1552,7.2129,7.1783,7.1206,7.1514,7.1853,7.1514,7.1514,7.1591,7.1822,7.2206,7.2745,7.3245,7.3514,7.3661,7.3584,7.1992,7.1992,7.2226,7.2305,7.2383,7.2812,7.2969,7.3086,7.414,7.4531,7.4687,7.5117,7.5976,7.6836,7.7031,7.7226,7.7226,7.7226,7.7226,7.7226,7.7226,7.789,7.8828,7.9531,8.039,8.1172,8.1797,8.2127,8.1904,8.1746,8.1537,8.12,8.1093,8.1093,8.1093,8.1093,8.1131,8.1208,8.2131,8.3139,8.3901,8.5209,8.594,8.5824,8.6017,8.597,8.5624,8.5324,8.5632,8.5624,8.5132,8.5286,8.5786,8.5978,8.6094,8.6094,8.6094,8.6094,8.6094,8.6055,8.5701,8.5247,8.4854,8.4362,8.3593,8.2593,8.2285,8.2747,8.2947,8.2986,8.3062,8.3093,8.2978,8.2477,8.2016,8.1631,8.1285,8.117,8.1054,8.0939,8.0823,8.0708,8.0669,8.0746,8.0785,8.0477,7.9939,7.9477,7.9246,7.8554,7.7823,7.6669,7.5822,7.513,7.3822,7.3091,7.2822,7.2745,7.2584,7.2815,7.3122,7.286,7.2552,7.2776,7.2969,7.2545,7.2437,7.2853,7.3084,7.3206,7.3553,7.4053,7.4591,7.4822,7.47,7.1992,7.1992,7.1992,7.1992,7.207,7.2539,7.2734,7.2812,7.3242,7.3672,7.418,7.4844,7.5937,7.707,7.7187,7.7148,7.7148,7.7226,7.7226,7.7226,7.7383,7.8086,7.875,7.9453,8.0625,8.1406,8.1797,8.1992,8.1757,8.1568,8.1383,8.1138,8.1093,8.1093,8.1093,8.1093,8.1093,8.1131,8.19,8.2524,8.3139,8.4247,8.5517,8.567,8.5824,8.5824,8.5778,8.5363,8.5239,8.5393,8.5047,8.5047,8.5478,8.5863,8.6055,8.6094,8.6094,8.6094,8.6094,8.6017,8.5854,8.5508,8.5401,8.5093,8.4978,8.4132,8.367,8.3978,8.3401,8.3332,8.3901,8.4093,8.367,8.3178,8.2947,8.2716,8.2324,8.2054,8.19,8.167,8.1362,8.0823,8.0862,8.1054,8.1208,8.1593,8.0977,8.0554,8.0246,7.9977,7.9208,7.8515,7.7669,7.5784,7.3892,7.3584,7.3738,7.3699,7.3892,7.3584,7.3584,7.3853,7.4007,7.3815,7.3623,7.3353,7.3392,7.3738,7.393,7.3976,7.4361,7.4853,7.5399,7.5976,7.5899,7.1992,7.1992,7.1992,7.1992,7.207,7.2305,7.2265,7.2109,7.2305,7.2773,7.3476,7.4844,7.6055,7.664,7.7031,7.7031,7.6953,7.6797,7.6914,7.7187,7.7226,7.7773,7.8594,7.957,8.0742,8.1601,8.207,8.1965,8.1692,8.1572,8.143,8.1152,8.1093,8.1093,8.1093,8.1093,8.1093,8.1208,8.167,8.2093,8.2601,8.3178,8.4478,8.517,8.5286,8.5209,8.5401,8.5124,8.4662,8.4931,8.497,8.497,8.5124,8.5517,8.5901,8.6017,8.6094,8.6094,8.6094,8.6094,8.6055,8.6017,8.6094,8.6017,8.5824,8.5431,8.497,8.467,8.4093,8.4016,8.4632,8.4901,8.4401,8.387,8.3717,8.3563,8.3178,8.2832,8.2593,8.2362,8.1785,8.117,8.14,8.1593,8.1747,8.217,8.2208,8.1823,8.1439,8.1131,8.0631,8.0131,7.9515,7.7323,7.4969,7.4776,7.5361,7.5399,7.5515,7.463,7.413,7.4668,7.4784,7.4315,7.4084,7.4238,7.4161,7.4353,7.4507,7.4938,7.5399,7.5976,7.663,7.7099,7.713,7.1992,7.1992,7.1992,7.1992,7.2187,7.3398,7.332,7.2383,7.3437,7.3867,7.3476,7.3555,7.4297,7.5156,7.5898,7.625,7.6562,7.6445,7.6758,7.7109,7.7187,7.7461,7.8125,7.9336,8.0742,8.1562,8.2018,8.2001,8.1699,8.1627,8.1442,8.1139,8.1093,8.1093,8.1093,8.1093,8.1093,8.1208,8.1285,8.1631,8.2362,8.3054,8.4055,8.4401,8.4324,8.4555,8.4516,8.3555,8.3901,8.4439,8.4816,8.4777,8.4854,8.4978,8.5286,8.567,8.5786,8.594,8.5901,8.6017,8.6055,8.6094,8.6094,8.6094,8.5824,8.5478,8.5239,8.5393,8.5016,8.4901,8.5277,8.5508,8.5209,8.4478,8.4093,8.387,8.3563,8.3332,8.3093,8.2747,8.2247,8.2285,8.2755,8.2631,8.217,8.2516,8.2708,8.2362,8.2208,8.2093,8.1977,8.1554,8.1093,7.9946,7.8092,7.7323,7.7476,7.7438,7.7215,7.6592,7.6092,7.5784,7.5707,7.5361,7.5438,7.563,7.5515,7.5361,7.5899,7.6399,7.6707,7.7169,7.783,7.8061,7.7907]}]]